[[{"header":{"parameterUnit":"m.s-1","parameterCategory":1,"la1":30.6,"la2":29.2853,"lo1":-89.7004,"lo2":-87.6739,"dy":0.0162,"dx":0.0183,"nx":112,"ny":82,"refTime":"2023-09-23T06:00:00:Z","depth":0,"parameterNumber":2,"parameterNumberName":"U-component_of_WINDS"},"data":[0.0,0.0,0.0,0.0,0.0,0.0,0.0,0.0,0.0,0.0,0.0,0.0,0.0,0.0,0.0,0.0,0.0,0.0,0.0,0.0,0.0,0.0,0.0,0.0,0.0,0.0,0.0,0.0,0.0,0.0,0.0,0.0,0.0,0.0,0.0,0.0,0.0,0.0,0.0,0.0,0.0,0.0,0.0,0.0,0.0,0.0,0.0,0.0,0.0,0.0,0.0,0.0,0.0,0.0,0.0,0.0,0.0,0.0,0.0,0.0,0.0,0.0,0.0,0.0,0.0,0.0,0.0,0.0,0.0,0.0,0.0,0.0,0.0,0.0,0.0,0.0,0.0,0.0,0.0,0.0,0.0,0.0,0.0,0.0,0.0,0.0,0.0,0.0,0.0,0.0,0.006,0.102,0.1476,0.1702,0.1702,0.2123,0.2397,0.2397,0.0,0.0,0.0,0.0,0.0,0.0,0.0,0.0,0.0,0.0,0.0,0.0,0.0,0.0,0.0,0.0,0.0,0.0,0.0,0.0,0.0,0.0,0.0,0.0,0.0,0.0,0.0,0.0,0.0,0.0,0.0,0.0,0.0,0.0,0.0,0.0,0.0,0.0,0.0,0.0,0.0,0.0,0.0,0.0,0.0,0.0,0.0,0.0,0.0,0.0,0.0,0.0,0.0,0.0,0.0,0.0,0.0,0.0,0.0,0.0,0.0,0.0,0.0,0.0,0.0,0.0,0.0,0.0,0.0,0.0,0.0,0.0,0.0,0.0,0.0,0.0,0.0,0.0,0.0,0.0,0.0,0.0,0.0,0.0,0.0,0.0,0.0,0.0,0.0,0.0,0.0,0.0,0.0,0.0,0.0,0.0,0.0,0.0,0.0,0.0,0.0,0.0,0.0,0.0,-0.1124,0.0146,0.1132,0.1702,0.1702,0.2123,0.2397,0.2397,0.0,0.0,0.0,0.0,0.0,0.0,0.0,0.0,0.0,0.0,0.0,0.0,0.0,0.0,0.0,0.0,0.0,0.0,0.0,0.0,0.0,0.0,0.0,0.0,0.0,0.0,0.0,0.0,0.0,0.0,0.0,0.0,0.0,0.0,0.0,0.0,0.0,0.0,0.0,0.0,0.0,0.0,0.0,0.0,0.0,0.0,0.0,0.0,0.0,0.0,0.0,0.0,0.0,0.0,0.0,0.0,0.0,0.0,0.0,0.0,0.0,0.0,0.0,0.0,0.0,0.0,0.0,0.0,0.0,0.0,0.0,0.0,0.0,0.0,0.0,0.0,0.0,0.0,0.0,0.0,0.0,0.0,0.0,0.0,0.0,0.0,0.0,0.0,0.0,0.0,0.0,0.0,0.0,0.0,0.0,0.0,0.0,0.0,0.0,0.0,0.0,0.0,0.0,-0.0485,-0.0449,0.0684,0.1384,0.1764,0.1764,0.2178,0.2463,0.2463,0.2681,0.0,0.0,0.0,0.0,0.0,0.0,0.0,0.0,0.0,0.0,0.0,0.0,0.0,0.0,0.0,0.0,0.0,0.0,0.0,0.0,0.0,0.0,0.0,0.0,0.0,0.0,0.0,0.0,0.0,0.0,0.0,0.0,0.0,0.0,0.0,0.0,0.0,0.0,0.0,0.0,0.0,0.0,0.0,0.0,0.0,0.0,0.0,0.0,0.0,0.0,0.0,0.0,0.0,0.0,0.0,0.0,0.0,0.0,0.0,0.0,0.0,0.0,0.0,0.0,0.0,0.0,0.0,0.0,0.0,0.0,0.0,0.0,0.0,0.0,0.0,0.0,0.0,0.0,0.0,0.0,0.0,0.0,0.0,0.0,0.0,0.0,0.0,0.0,0.0,0.0,0.0,0.0,0.0,0.0,0.0,0.0,0.0,0.0,0.0,0.0,0.0,0.0,0.0325,0.0613,0.1313,0.1644,0.1794,0.1794,0.2221,0.2491,0.2491,0.2761,0.0,0.0,0.0,0.0,0.0,0.0,0.0,0.0,0.0,0.0,0.0,0.0,0.0,0.0,0.0,0.0,0.0,0.0,0.0,0.0,0.0,0.0,0.0,0.0,0.0,0.0,0.0,0.0,0.0,0.0,0.0,0.0,0.0,0.0,0.0,0.0,0.0,0.0,0.0,0.0,0.0,0.0,0.0,0.0,0.0,0.0,0.0,0.0,0.0,0.0,0.0,0.0,0.0,0.0,0.0,0.0,0.0,0.0,0.0,0.0,0.0,0.0,0.0,0.0,0.0,0.0,0.0,0.0,0.0,0.0,0.0,0.0,0.0,0.0,0.0,0.0,0.0,0.0,0.0,0.0,0.0,0.0,0.0,0.0,0.0,0.0,0.0,0.0,0.0,0.0,0.0,0.0,0.0,0.0,0.0,0.0,0.0,0.0,0.0,0.0,0.0,0.0,0.0514,0.132,0.1387,0.1636,0.1794,0.1794,0.2221,0.2491,0.2491,0.2761,0.0,0.0,0.0,0.0,0.0,0.0,0.0,0.0,0.0,0.0,0.0,0.0,0.0,0.0,0.0,0.0,0.0,0.0,0.0,0.0,0.0,0.0,0.0,0.0,0.0,0.0,0.0,0.0,0.0,0.0,0.0,0.0,0.0,0.0,0.0,0.0,0.0,0.0,0.0,0.0,0.0,0.0,0.0,0.0,0.0,0.0,0.0,0.0,0.0,0.0,0.0,0.0,0.0,0.0,0.0,0.0,0.0,0.0,0.0,0.0,0.0,0.0,0.0,0.0,0.0,0.0,0.0,0.0,0.0,0.0,0.0,0.0,0.0,0.0,0.0,0.0,0.0,0.0,0.0,0.0,0.0,0.0,0.0,0.0,0.0,0.0,0.0,0.0,0.0,0.0,0.0,0.0,0.0,0.0,0.0,0.0,0.0,0.0,0.0,0.0,0.0,0.0,0.0381,0.0762,0.0,0.148,0.1615,0.1794,0.2109,0.2357,0.2491,0.0,0.0,0.0,0.0,0.0,0.0,0.0,0.0,0.0,0.0,0.0,0.0,0.0,0.0,0.0,0.0,0.0,0.0,0.0,0.0,0.0,0.0,0.0,0.0,0.0,0.0,0.0,0.0,0.0,0.0,0.0,0.0,0.0,0.0,0.0,0.0,0.0,0.0,0.0,0.0,0.0,0.0,0.0,0.0,0.0,0.0,0.0,0.0,0.0,0.0,0.0,0.0,0.0,0.0,0.0,0.0,0.0,0.0,0.0,0.0,0.0,0.0,0.0,0.0,0.0,0.0,0.0,0.0,0.0,0.0,0.0,0.0,0.0,0.0,0.0,0.0,0.0,0.0,0.0,0.0,0.0,0.0,0.0,0.0,0.0,0.0,0.0,0.0,0.0,0.0,0.0,0.0,0.0,0.0,0.0,0.0,0.0,0.0,0.0,0.0,0.0,0.0,0.0403,0.0515,0.0718,0.0,0.1525,0.1637,0.1907,0.2154,0.2357,0.2491,0.0,0.0,0.0,0.0,0.0,0.0,0.0,0.0,0.0,0.0,0.0,0.0,0.0,0.0,0.0,0.0,0.0,0.0,0.0,0.0,0.0,0.0,0.0,0.0,0.0,0.0,0.0,0.0,0.0,0.0,0.0,0.0,0.0,0.0,0.0,0.0,0.0,0.0,0.0,0.0,0.0,0.0,0.0,0.0,0.0,0.0,0.0,0.0,0.0,0.0,0.0,0.0,0.0,0.0,0.0,0.0,0.0,0.0,0.0,0.0,0.0,0.0,0.0,0.0,0.0,0.0,0.0,0.0,0.0,0.0,0.0,0.0,0.0,0.0,0.0,0.0,0.0,0.0,0.0,0.0,0.0,0.0,0.0,0.0,0.0,0.0,0.0,0.0,0.0,0.0,0.0,0.0,0.0,0.0,0.0,0.0,0.0,0.0,0.0,0.0,0.0,0.0,0.0426,0.0987,0.1503,0.1772,0.1794,0.1907,0.2176,0.2379,0.2491,0.0,0.0,0.0,0.0,0.0,0.0,0.0,0.0,0.0,0.0,0.0,0.0,0.0,0.0,0.0,0.0,0.0,0.0,0.0,0.0,0.0,0.0,0.0,0.0,0.0,0.0,0.0,0.0,0.0,0.0,0.0,0.0,0.0,0.0,0.0,0.0,0.0,0.0,0.0,0.0,0.0,0.0,0.0,0.0,0.0,0.0,0.0,0.0,0.0,0.0,0.0,0.0,0.0,0.0,0.0,0.0,0.0,0.0,0.0,0.0,0.0,0.0,0.0,0.0,0.0,0.0,0.0,0.0,0.0,0.0,0.0,0.0,0.0,0.0,0.0,0.0,0.0,0.0,0.0,0.0,0.0,0.0,0.0,0.0,0.0,0.0,0.0,0.0,0.0,0.0,0.0,0.0,0.0,0.0,0.0,0.0,0.0,0.0,0.0,0.0,0.0,0.0,0.0,0.1054,0.1278,0.1436,0.1503,0.1525,0.1637,0.1885,0.2154,0.2357,0.2491,0.0,0.0,0.0,0.0,0.0,0.0,0.0,0.0,0.0,0.0,0.0,0.0,0.0,0.0,0.0,0.0,0.0,0.0,0.0,0.0,0.0,0.0,0.0,0.0,0.0,0.0,0.0,0.0,0.0,0.0,0.0,0.0,0.0,0.0,0.0,0.0,0.0,0.0,0.0,0.0,0.0,0.0,0.0,0.0,0.0,0.0,0.0,0.0,0.0,0.0,0.0,0.0,0.0,0.0,0.0,0.0,0.0,0.0,0.0,0.0,0.0,0.0,0.0,0.0,0.0,0.0,0.0,0.0,0.0,0.0,0.0,0.0,0.0,0.0,0.0,0.0,0.0,0.0,0.0,0.0,0.0,0.0,0.0,0.0,0.0,0.0,0.0,0.0,0.0,0.0,0.0,0.0,0.0,0.0,0.0,0.0,0.0,0.0,0.0,0.0,0.0,0.0,0.1503,0.1458,0.1436,0.1548,0.166,0.1817,0.2064,0.2334,0.2536,0.2649,0.0,0.0,0.0,0.0,0.0,0.0,0.0,0.0,0.0,0.0,0.0,0.0,0.0,0.0,0.0,0.0,0.0,0.0,0.0,0.0,0.0,0.0,0.0,0.0,0.0,0.0,0.0,0.0,0.0,0.0,0.0,0.0,0.0,0.0,0.0,0.0,0.0,0.0,0.0,0.0,0.0,0.0,0.0,0.0,0.0,0.0,0.0,0.0,0.0,0.0,0.0,0.0,0.0,0.0,0.0,0.0,0.0,0.0,0.0,0.0,0.0,0.0,0.0,0.0,0.0,0.0,0.0,0.0,0.0,0.0,0.0,0.0,0.0,0.0,0.0,0.0,0.0,0.0,0.0,0.0,0.0,0.0,0.0,0.0,0.0,0.0,0.0,0.0,0.0,0.0,0.0,0.0,0.0,0.0,0.0,0.0,0.0,0.0,0.0,0.0,0.0,0.0,0.1727,0.1548,0.1503,0.1727,0.1997,0.2243,0.2424,0.2694,0.2873,0.2873,0.0,0.0,0.0,0.0,0.0,0.0,0.0,0.0,0.0,0.0,0.0,0.0,0.0,0.0,0.0,0.0,0.0,0.0,0.0,0.0,0.0,0.0,0.0,0.0,0.0,0.0,0.0,0.0,0.0,0.0,0.0,0.0,0.0,0.0,0.0,0.0,0.0,0.0,0.0,0.0,0.0,0.0,0.0,0.0,0.0,0.0,0.0,0.0,0.0,0.0,0.0,0.0,0.0,0.0,0.0,0.0,0.0,0.0,0.0,0.0,0.1707,0.0,0.0,0.0,0.0,0.0,0.0,0.0,0.0,0.0,0.0,0.0,0.0,0.0,0.0,0.0,0.0,0.0,0.0,0.0,0.0,0.0,0.0,0.0,0.0,0.0,0.0,0.0,0.0,0.0,0.0,0.0,0.0,0.0,0.0,0.0,0.0,0.0,0.0,0.0,0.0,0.0,0.1503,0.1436,0.1413,0.148,0.1727,0.1907,0.1952,0.2334,0.2581,0.2581,0.2784,0.0,0.0,0.0,0.0,0.0,0.0,0.0,0.0,0.0,0.0,0.0,0.0,0.0,0.0,0.0,0.0,0.0,0.0,0.0,0.0,0.0,0.0,0.0,0.0,0.0,0.0,0.0,0.0,0.0,0.0,0.0,0.0,0.0,0.0,0.0,0.0,0.0,0.0,0.0,0.0,0.0,0.0,0.0,0.0,0.0,0.0,0.0,0.0,0.0,0.0,0.0,0.0,0.0,0.0,0.0,0.0,0.0,0.0,0.0,0.0,0.1809,0.0,0.0,0.0,0.0,0.0,0.0,0.0,0.0,0.0,0.0,0.0,0.0,0.0,0.0,0.0,0.0,0.0,0.0,0.0,0.0,0.0,0.0,0.0,0.0,0.0,0.0,0.0,0.0,0.0,0.0,0.0,0.0,0.0,0.0,0.0,0.0,0.0,0.0,0.0,0.0,0.1413,0.1391,0.1463,0.1615,0.1844,0.2058,0.2215,0.2564,0.2795,0.2795,0.2912,0.0,0.0,0.0,0.0,0.0,0.0,0.0,0.0,0.0,0.0,0.0,0.0,0.0,0.0,0.0,0.0,0.0,0.0,0.0,0.0,0.0,0.0,0.0,0.0,0.0,0.0,0.0,0.0,0.0,0.0,0.0,0.0,0.0,0.0,0.0,0.0,0.0,0.0,0.0,0.0,0.0,0.0,0.0,0.0,0.0,0.0,0.0,0.0,0.0,0.0,0.0,0.0,0.0,0.1552,0.1588,0.1639,0.1639,0.164,0.1638,0.1759,0.1744,0.164,0.2045,0.0,0.0,0.0,0.0,0.0,0.0,0.0,0.0,0.0,0.0,0.0,0.0,0.0,0.0,0.0,0.0,0.0,0.0,0.0,0.0,0.0,0.0,0.0,0.0,0.1727,0.1794,0.0,0.0,0.0,0.0,0.0,0.0,0.0,0.0,0.0,0.0,0.0,0.0,0.142,0.1425,0.1529,0.1812,0.2024,0.2249,0.2545,0.2787,0.2954,0.3002,0.3025,0.3002,0.0,0.0,0.0,0.0,0.0,0.0,0.0,0.0,0.0,0.0,0.0,0.0,0.0,0.0,0.0,0.0,0.0,0.0,0.0,0.0,0.0,0.0,0.0,0.0,0.0,0.0,0.0,0.0,0.0,0.0,0.0,0.0,0.1853,0.1767,0.0,0.0,0.0,0.0,0.0,0.0,0.0,0.0,0.0,0.0,0.0,0.0,0.0,0.0062,0.0415,0.0416,0.0334,0.0167,0.0167,0.0168,0.021,0.0989,0.1348,0.1349,0.1433,0.0,0.1695,0.1763,0.0,0.0,0.0,0.0,0.0,0.0,0.0,0.0,0.0,0.0,0.0,0.0,0.0,0.0,0.0,0.0,0.0,0.0,0.0,0.0,0.0,0.0,0.1458,0.1458,0.1458,0.1458,0.0,0.1615,0.166,0.148,0.166,0.0,0.0,0.0,0.0,0.0,0.0,0.0,0.1498,0.1498,0.1515,0.1544,0.1782,0.195,0.2003,0.2194,0.2408,0.2642,0.2666,0.2782,0.3084,0.3084,0.0,0.0,0.0,0.0,0.0,0.0,0.0,0.0,0.0,0.0,0.0,0.0,0.0,0.0,0.0,0.0,0.0,0.0,0.0,0.0,0.0,0.0,0.0,0.0,0.0,0.0,0.0,0.0,0.0,0.1639,0.1554,0.1481,0.1236,0.1186,0.0,0.0,0.0,0.0,0.0,0.0,0.0,0.0,0.0,-0.1594,-0.1212,-0.0924,-0.0756,-0.0756,-0.0803,-0.0897,-0.0897,-0.086,-0.0827,-0.0414,-0.0218,-0.0196,0.0374,0.066,0.0806,0.1482,0.1723,0.1679,0.0,0.0,0.0,0.0,0.1449,0.1548,0.1437,0.1468,0.0,0.1436,0.0,0.0,0.0,0.0,0.0,0.0,0.0,0.0,0.0,0.0,0.1391,0.1391,0.1391,0.1391,0.1391,0.1503,0.1548,0.0,0.1503,0.1553,0.1481,0.0,0.0,0.0,0.0,0.1506,0.1506,0.1494,0.1581,0.1768,0.1891,0.2021,0.2165,0.2266,0.2437,0.2706,0.2706,0.284,0.3077,0.31,0.3107,0.0,0.0,0.0,0.0,0.0,0.0,0.0,0.0,0.0,0.0,0.0,0.0,0.0,0.0,0.0,0.0,0.0,0.0,0.0,0.0,0.0,0.0,0.0,0.0,0.0,0.0,0.0,0.0,0.1442,0.1321,0.0988,0.0637,0.0463,0.0,0.0,0.0,0.0,0.0,0.0,-0.2122,-0.2176,-0.2182,-0.2182,-0.1981,-0.1858,-0.1858,-0.1858,-0.1852,-0.1857,-0.1595,-0.1586,-0.1768,-0.1029,-0.0806,-0.0985,-0.0045,0.0359,0.0426,0.1323,0.157,0.1413,0.1615,0.157,0.1391,0.1391,0.1391,0.1391,0.1391,0.1391,0.1391,0.1391,0.1391,0.1391,0.1391,0.0,0.0,0.0,0.0,0.1391,0.1391,0.1391,0.1391,0.1391,0.1391,0.1415,0.1422,0.1424,0.1422,0.0,0.1419,0.1431,0.15,0.0,0.0,0.0,0.0,0.1538,0.1538,0.152,0.1631,0.1877,0.1905,0.199,0.2168,0.2196,0.2322,0.2575,0.26,0.2734,0.3015,0.3014,0.3068,0.3121,0.0,0.0,0.0,0.0,0.0,0.0,0.0,0.0,0.0,0.0,0.0,0.0,0.0,0.0,0.0,0.0,0.0,0.0,0.0,0.0,0.0,0.0,0.0,0.0,0.0,0.0,0.0,0.0,0.0,0.0081,-0.0041,0.0,0.0,0.0,0.0,-0.2602,-0.2706,-0.3065,-0.3825,-0.399,-0.4057,-0.4057,-0.3271,-0.2836,-0.2836,-0.2836,-0.2837,-0.2818,-0.1854,-0.19,-0.2732,0.0,0.0762,-0.0022,0.0919,0.1323,0.1323,0.1391,0.1413,0.1391,0.1413,0.1413,0.1391,0.1391,0.1391,0.1391,0.1391,0.1391,0.1391,0.1391,0.1391,0.1391,0.1391,0.1391,0.0,0.0,0.1391,0.1391,0.1391,0.1391,0.1391,0.1391,0.1391,0.142,0.1472,0.1502,0.147,0.0,0.1459,0.1502,0.1504,0.0,0.15,0.1502,0.1551,0.1594,0.1594,0.1594,0.1613,0.1614,0.1614,0.1615,0.1642,0.1642,0.1743,0.2021,0.2046,0.2272,0.2797,0.2821,0.2947,0.3196,0.314,0.0,0.0,0.0,0.0,0.0,0.0,0.0,0.0,0.0,0.0,0.0,0.0,0.0,0.0,0.0,0.0,0.0,0.0,0.0,0.0,0.0,0.0,0.0,0.0,0.0,0.0,0.0,0.0,-0.0892,-0.1003,0.0,-0.1648,-0.2273,-0.2848,-0.3277,-0.3871,-0.433,-0.464,-0.4695,-0.4716,-0.4716,-0.4414,-0.4251,-0.4251,-0.4251,-0.4251,-0.4251,-0.389,-0.3578,-0.3312,-0.2281,-0.1677,-0.1343,-0.0246,0.0247,0.0291,0.1076,0.1391,0.1391,0.1391,0.1391,0.1391,0.1391,0.1391,0.1391,0.1391,0.1391,0.1391,0.1391,0.1391,0.1391,0.1391,0.1391,0.1391,0.1391,0.1391,0.1391,0.1391,0.1427,0.1465,0.1465,0.1457,0.1473,0.1484,0.151,0.1483,0.1472,0.1479,0.1516,0.156,0.1572,0.1562,0.1557,0.1594,0.16,0.16,0.161,0.1592,0.1592,0.1592,0.1592,0.1592,0.1592,0.1718,0.1971,0.1996,0.2172,0.2522,0.2548,0.2674,0.2927,0.2907,0.2998,0.0,0.0,0.0,0.0,0.0,0.0,0.0,0.0,0.0,0.0,0.0,0.0,0.0,0.0,0.0,0.0,0.0,0.0,0.0,0.0,0.0,0.0,0.0,0.0,0.0,0.0,-0.0912,-0.1869,-0.203,-0.2266,-0.2734,-0.3441,-0.3925,-0.4067,-0.4652,-0.501,-0.501,-0.501,-0.501,-0.501,-0.501,-0.501,-0.501,-0.501,-0.501,-0.4988,-0.4674,-0.436,-0.4048,-0.3062,-0.246,-0.2082,-0.065,-0.0022,0.0022,0.083,0.1166,0.1188,0.1345,0.1391,0.1391,0.1391,0.1391,0.1391,0.1391,0.1391,0.1391,0.1391,0.1391,0.1391,0.1391,0.142,0.1428,0.1428,0.1435,0.1443,0.1443,0.1458,0.1496,0.1496,0.1511,0.1505,0.1539,0.1541,0.1545,0.1531,0.1524,0.1548,0.1592,0.1605,0.1594,0.1588,0.1592,0.1592,0.1592,0.1592,0.1592,0.1592,0.1592,0.1621,0.1631,0.1633,0.1713,0.1878,0.1894,0.2014,0.2291,0.2291,0.2419,0.2699,0.2699,0.2768,0.2927,0.0,0.0,0.0,0.0,0.0,0.0,0.0,0.0,0.0,0.0,0.0,0.0,0.0,0.0,0.0,0.0,0.0,0.0,0.0,0.0,0.0,0.0,0.0,-0.0317,-0.0985,-0.1909,-0.2844,-0.3137,-0.3645,-0.4614,-0.4901,-0.501,-0.5033,-0.5033,-0.5033,-0.5033,-0.5033,-0.5033,-0.5033,-0.5033,-0.5033,-0.5033,-0.5035,-0.5037,-0.5015,-0.4121,-0.4145,-0.4886,-0.2105,-0.13,-0.2041,-0.018,0.0629,0.0651,0.0674,0.0696,0.0741,0.1211,0.1391,0.1391,0.1391,0.1391,0.1391,0.1391,0.1414,0.1392,0.1393,0.1393,0.1393,0.1393,0.1459,0.1505,0.1505,0.1503,0.1502,0.1502,0.1503,0.1504,0.1504,0.1504,0.1513,0.1591,0.1598,0.1606,0.1611,0.1593,0.1598,0.1598,0.1597,0.1592,0.1592,0.1592,0.0,0.1593,0.1594,0.1594,0.1594,0.1594,0.1632,0.1687,0.169,0.1702,0.1703,0.1705,0.1818,0.2075,0.2075,0.2206,0.2491,0.2491,0.247,0.24,0.0,0.0,0.0,0.0,0.0,0.0,0.0,0.0,0.0,0.0,0.0,0.0,0.0,0.0,0.0,0.0,0.0,0.0,0.0,0.0,0.0,0.0,-0.2561,-0.2182,-0.2474,-0.3103,-0.4086,-0.4392,-0.4696,-0.5171,-0.526,-0.5349,-0.5508,-0.5508,-0.5508,-0.5508,-0.5508,-0.5508,-0.5508,-0.5508,-0.5508,-0.5508,-0.5608,-0.5648,-0.565,-0.5478,-0.519,-0.4746,-0.3973,-0.3343,-0.2806,-0.1381,-0.0749,-0.0679,0.0305,0.0703,0.0725,0.1066,0.1188,0.1211,0.1345,0.1391,0.1416,0.146,0.1468,0.1472,0.1471,0.1478,0.1478,0.1478,0.1484,0.149,0.149,0.1496,0.1502,0.1502,0.1543,0.1583,0.1583,0.1576,0.1569,0.1603,0.1605,0.1607,0.159,0.161,0.1605,0.1605,0.1611,0.1592,0.1592,0.1636,0.0,0.1675,0.1667,0.168,0.168,0.168,0.1684,0.1692,0.1692,0.1696,0.1704,0.1697,0.1745,0.1797,0.1797,0.193,0.2195,0.2406,0.2479,0.0,0.0,0.0,0.0,0.0,0.0,0.0,0.0,0.0,0.0,0.0,0.0,0.0,0.0,0.0,0.0,0.0,0.0,0.0,0.0,0.0,0.0,-0.3599,-0.3913,-0.3805,-0.3868,-0.4182,-0.4746,-0.5035,-0.5235,-0.5394,-0.5485,-0.5574,-0.5688,-0.5688,-0.5688,-0.5688,-0.5757,-0.5781,-0.5781,-0.5832,-0.5859,-0.5859,-0.5947,-0.5977,-0.598,-0.6051,-0.5824,-0.5275,-0.4873,-0.4371,-0.3754,-0.2591,-0.1831,-0.1356,-0.0595,0.0,0.0,0.0,0.0,0.0,0.0,0.1266,0.1291,0.1447,0.15,0.1502,0.1497,0.1502,0.1502,0.1502,0.1511,0.1545,0.1545,0.153,0.154,0.154,0.1577,0.159,0.159,0.1604,0.1592,0.1592,0.1627,0.1636,0.1636,0.1645,0.0,0.1654,0.1643,0.164,0.1652,0.1669,0.1706,0.1706,0.1694,0.1704,0.1704,0.1704,0.171,0.1749,0.175,0.0,0.0,0.0,0.175,0.175,0.175,0.0,0.0,0.0,0.22,0.2157,0.0,0.0,0.0,0.2659,0.2737,0.0,0.0,0.0,0.0,0.0,0.0,0.0,0.0,0.0,0.0,0.0,0.0,0.0,0.0,0.0,0.0,-0.5055,-0.5055,-0.5077,-0.5077,-0.5077,-0.5055,-0.528,-0.5438,-0.5438,-0.5599,-0.5716,-0.5729,-0.5732,-0.5738,-0.5751,0.0,0.0,0.0,0.0,-0.611,-0.611,-0.6123,-0.6132,-0.6132,-0.6119,-0.6124,-0.61,-0.5263,-0.4903,-0.4832,-0.3828,-0.2848,-0.1939,-0.182,-0.115,-0.012,0.0454,0.0691,0.0739,0.0977,0.1049,0.1097,0.1338,0.0,0.0,0.1463,0.1464,0.1464,0.1512,0.1555,0.1601,0.1601,0.1596,0.1592,0.1592,0.1592,0.1592,0.1621,0.1622,0.1623,0.16,0.1648,0.1693,0.1693,0.1687,0.1705,0.1709,0.1712,0.1702,0.17,0.1707,0.171,0.171,0.1712,0.1714,0.1714,0.0,0.0,0.1807,0.1809,0.1794,0.1793,0.1797,0.1809,0.1809,0.1809,0.1809,0.1809,0.1809,0.1769,0.1714,0.1955,0.1955,0.1714,0.2242,0.2478,0.0,0.0,0.0,0.0,0.0,0.0,0.0,0.0,0.0,0.0,0.0,0.0,0.0,0.0,0.0,-0.528,-0.5327,-0.5371,-0.5552,-0.5574,-0.5508,-0.5349,-0.5508,-0.5644,-0.5644,-0.5666,-0.5748,-0.5863,-0.5871,-0.5912,-0.6013,-0.6037,-0.6051,-0.6051,-0.6096,-0.611,-0.611,-0.6208,-0.6257,-0.626,0.0,0.0,-0.6344,-0.6144,-0.6069,-0.602,-0.4953,-0.4382,-0.4109,-0.3238,-0.2268,-0.1168,0.0,0.0548,0.0715,0.0763,0.0787,0.0788,0.0898,0.0928,0.0979,0.1193,0.1249,0.1299,0.1524,0.1578,0.0,0.1608,0.1612,0.1592,0.1592,0.1592,0.1623,0.1673,0.1679,0.1686,0.1682,0.1692,0.1696,0.1696,0.17,0.1712,0.1764,0.1743,0.1698,0.1703,0.1752,0.1768,0.1768,0.179,0.1778,0.1778,0.1778,0.178,0.1785,0.1787,0.1789,0.1795,0.1789,0.1787,0.1787,0.1787,0.1787,0.1787,0.1787,0.1783,0.1778,0.1833,0.1833,0.1804,0.2268,0.2264,0.0,0.0,0.0,0.0,0.0,0.0,0.0,0.0,0.0,0.0,0.0,-0.4496,0.0,0.0,-0.528,-0.5508,-0.5552,-0.5574,-0.5688,-0.5688,-0.5666,-0.5552,-0.5644,-0.5735,-0.5789,-0.5794,-0.5869,-0.5986,-0.5994,-0.6021,-0.6107,-0.6167,-0.6202,-0.6202,-0.6233,-0.626,-0.626,-0.6323,-0.6352,-0.6352,-0.6385,-0.6412,-0.6412,-0.6412,-0.6412,-0.6362,-0.5834,-0.5286,-0.4709,-0.3651,-0.2569,-0.1535,-0.0865,-0.0221,0.0368,0.0491,0.054,0.0565,0.0745,0.0797,0.0823,0.0957,0.101,0.1035,0.1162,0.1288,0.139,0.139,0.1526,0.1639,0.1639,0.165,0.1665,0.168,0.1709,0.1687,0.1701,0.1716,0.1754,0.1754,0.1739,0.1755,0.1797,0.176,0.175,0.175,0.179,0.18,0.18,0.1813,0.1795,0.1795,0.1795,0.1795,0.1795,0.1795,0.1795,0.1795,0.1795,0.1795,0.1795,0.1795,0.1795,0.1795,0.1795,0.1795,0.1795,0.1795,0.1795,0.1794,0.204,0.1996,0.0,0.0,0.0,0.0,0.0,0.0,0.0,0.0,-0.5099,-0.5122,-0.5144,-0.5213,-0.5416,-0.5463,-0.5508,-0.5666,-0.5688,-0.5688,-0.5688,-0.5729,-0.5743,-0.5743,-0.5743,-0.5789,-0.5926,-0.5937,-0.5988,-0.6137,-0.6145,-0.6153,-0.6154,-0.6271,-0.6325,-0.6325,-0.6363,-0.6412,-0.6412,-0.6412,-0.6412,-0.6412,-0.6412,-0.6423,-0.6447,-0.6447,-0.6458,-0.6482,-0.6482,-0.5977,-0.5116,-0.4021,-0.3073,-0.2228,-0.2026,-0.129,-0.0252,0.0177,0.0328,0.0354,0.0581,0.0657,0.0657,0.0707,0.0734,0.0736,0.0787,0.0942,0.1123,0.1123,0.1368,0.1618,0.1618,0.1661,0.1705,0.1712,0.1713,0.1714,0.172,0.1768,0.1814,0.1814,0.1806,0.1795,0.1795,0.1795,0.1795,0.1795,0.1795,0.1795,0.1795,0.1795,0.1795,0.1795,0.1795,0.1795,0.1795,0.1795,0.1795,0.1795,0.1795,0.1795,0.1795,0.1795,0.1795,0.1795,0.1795,0.1795,0.1795,0.1795,0.1795,0.1795,0.1795,0.1795,-0.484,-0.4915,-0.4996,-0.5008,-0.501,-0.5055,0.0,0.0,-0.5416,-0.5574,-0.5621,-0.5621,-0.5666,-0.5666,-0.5666,-0.5688,-0.5688,-0.5688,-0.5688,-0.5797,-0.5885,-0.5885,-0.5885,-0.5931,-0.6053,-0.6088,-0.614,-0.6263,-0.6271,-0.6293,-0.6366,-0.6385,-0.6393,-0.6393,-0.6404,-0.6412,-0.6412,-0.6412,-0.6412,-0.6412,-0.6412,-0.6469,-0.6572,-0.6572,-0.6634,-0.676,-0.676,-0.6681,-0.6498,-0.5411,-0.4838,-0.4534,-0.3581,-0.2477,-0.1311,-0.0328,0.0051,0.0051,0.0076,0.0101,0.0126,0.0379,0.0434,0.0492,0.0725,0.0812,0.0848,0.0848,0.1089,0.1356,0.1356,0.1517,0.1711,0.1765,0.1799,0.1779,0.1779,0.1788,0.179,0.179,0.1793,0.1795,0.1795,0.1795,0.1795,0.1795,0.1795,0.1795,0.1795,0.1795,0.1795,0.1795,0.1795,0.1795,0.1795,0.1795,0.1795,0.1795,0.1795,0.1795,0.1795,0.1795,0.1795,0.1795,0.1795,0.1795,0.1795,0.1795,0.1795,0.1795,0.1795,0.1795,-0.5371,-0.5416,0.0,0.0,-0.5416,-0.5438,-0.5552,-0.5574,-0.5599,-0.5688,-0.5688,-0.5688,-0.5688,-0.5688,-0.5688,0.0,-0.5688,-0.5735,-0.58,-0.5874,-0.5956,-0.6123,-0.614,-0.6159,-0.6211,-0.6216,-0.6265,-0.6358,-0.6366,-0.6363,-0.6409,-0.6412,-0.6412,-0.6412,-0.6412,-0.6412,-0.6412,-0.6482,-0.6517,-0.6517,-0.659,-0.665,-0.6725,-0.6725,-0.6755,-0.6801,-0.6801,-0.6801,-0.6775,-0.6323,-0.5738,-0.5067,-0.462,-0.3764,-0.2619,-0.1372,-0.0534,0.0,0.0,0.0,0.0026,0.013,0.0157,0.0185,0.029,0.0451,0.056,0.056,0.0806,0.1109,0.1272,0.139,0.1485,0.1496,0.1498,0.1501,0.1512,0.1514,0.157,0.1767,0.1795,0.1795,0.1795,0.1795,0.1795,0.1795,0.1795,0.1795,0.1795,0.1795,0.1795,0.1795,0.1795,0.1795,0.1795,0.1795,0.1795,0.1795,0.1795,0.1795,0.1795,0.1795,0.1795,0.1795,0.1795,0.1795,0.1795,0.1795,0.1795,0.1795,0.1795,0.1804,-0.5666,0.0,0.0,-0.5688,-0.5688,-0.5688,-0.5688,-0.5688,-0.5688,-0.5688,-0.5688,-0.5688,-0.5688,-0.5688,-0.5688,-0.5688,-0.5688,-0.5751,-0.5888,-0.5931,-0.6032,-0.6268,-0.632,-0.6339,-0.6339,-0.6339,-0.6347,-0.6406,-0.6412,-0.6412,-0.6412,-0.6412,-0.6412,-0.6412,-0.6444,-0.646,-0.646,-0.6582,-0.6645,-0.6645,-0.676,-0.682,-0.6855,-0.6885,-0.6899,-0.6899,-0.6899,-0.6899,-0.6899,-0.6899,-0.6423,-0.5698,-0.5698,-0.5014,-0.3918,-0.2942,-0.191,-0.094,-0.0601,-0.0501,-0.0453,-0.0107,0.0,0.0,0.0,0.0135,0.0298,0.0298,0.0518,0.0798,0.0991,0.1111,0.1177,0.1177,0.1177,0.1177,0.1177,0.1177,0.1262,0.1514,0.1542,0.1542,0.1542,0.1542,0.1542,0.1542,0.1542,0.1598,0.1767,0.1795,0.1795,0.1795,0.1795,0.1795,0.1795,0.1795,0.1795,0.1795,0.1795,0.1799,0.1807,0.1808,0.1811,0.182,0.182,0.182,0.182,0.182,0.182,0.182,0.182,0.1832,-0.5688,0.0,-0.5688,-0.5688,-0.5688,-0.5688,-0.5688,-0.5688,-0.5688,-0.5688,-0.5688,-0.5688,-0.5688,-0.5688,-0.5688,-0.5688,-0.5688,-0.5751,-0.5888,-0.6005,-0.6151,-0.6276,-0.6366,-0.6406,0.0,-0.6406,-0.6406,-0.6412,-0.6412,-0.6412,-0.6412,-0.6412,-0.6412,-0.6412,-0.6525,-0.6588,-0.6588,-0.6736,-0.6796,-0.6796,-0.6801,-0.6864,-0.701,-0.7122,-0.7199,-0.7199,-0.7199,-0.7199,-0.7199,-0.7199,-0.7078,-0.6951,-0.6951,-0.6205,-0.5151,-0.5118,-0.4402,-0.3317,-0.215,-0.1753,-0.1542,-0.0373,0.0,0.0,0.0,0.0,0.0,0.0,0.0196,0.042,0.042,0.0673,0.0925,0.0925,0.0925,0.0925,0.0925,0.0925,0.0925,0.0925,0.0925,0.0925,0.0925,0.0925,0.0925,0.0925,0.0925,0.1149,0.1739,0.1795,0.1795,0.1795,0.1795,0.1795,0.1795,0.1795,0.1795,0.1795,0.1795,0.1808,0.1809,0.181,0.1824,0.1882,0.1883,0.1883,0.1883,0.1883,0.1883,0.1883,0.1883,0.1883,-0.5688,0.0,-0.5688,-0.5688,-0.5688,-0.5688,-0.5688,-0.5688,-0.5688,-0.5688,-0.5688,-0.5688,-0.5688,-0.5688,-0.5688,-0.5688,-0.5688,-0.5778,-0.5996,-0.6062,-0.6159,-0.6355,-0.639,0.0,0.0,0.0,0.0,-0.6412,-0.6412,-0.6412,-0.6412,-0.6488,-0.6531,-0.6531,-0.665,-0.6741,-0.6741,-0.6864,-0.6923,-0.6923,-0.7027,-0.7084,-0.7128,-0.7166,-0.721,-0.721,-0.721,-0.721,-0.721,-0.721,-0.716,-0.7125,-0.7125,-0.6878,-0.6538,-0.6538,-0.6292,-0.5704,-0.3689,-0.2996,-0.2915,-0.2531,-0.1852,-0.1195,-0.1195,-0.0642,0.0,0.0,0.0056,0.0168,0.0364,0.0477,0.0561,0.0561,0.0561,0.0561,0.0561,0.0561,0.0645,0.0869,0.0897,0.0897,0.0897,0.0897,0.0897,0.0897,0.0897,0.0981,0.1177,0.1206,0.1211,0.1196,0.1197,0.1289,0.1506,0.1536,0.1624,0.1855,0.1855,0.186,0.187,0.187,0.1875,0.1885,0.1886,0.1886,0.1886,0.1886,0.1886,0.1886,0.1886,0.1778,-0.5688,-0.5688,-0.5688,-0.5688,-0.5688,-0.5688,-0.5688,-0.5688,-0.5688,-0.5688,-0.5688,-0.5688,-0.5688,-0.5688,-0.5724,-0.5765,-0.5773,-0.5854,-0.6142,-0.6175,-0.6222,-0.639,-0.6412,-0.6412,0.0,0.0,0.0,-0.6412,-0.6412,-0.6431,-0.6474,-0.6553,-0.6612,-0.6681,-0.6804,-0.6866,-0.6866,-0.7013,-0.7073,-0.7076,-0.7147,-0.721,-0.721,-0.721,-0.721,-0.721,-0.721,-0.721,-0.721,-0.721,-0.721,-0.721,-0.721,-0.721,-0.721,-0.721,-0.721,-0.6919,-0.4942,-0.4241,-0.4168,-0.3748,-0.277,-0.1875,-0.2323,-0.1288,-0.0084,-0.0532,-0.0336,0.0028,0.0224,0.0252,0.0252,0.0252,0.0252,0.0252,0.0252,0.0252,0.0308,0.0533,0.0589,0.0589,0.0589,0.0589,0.059,0.0565,0.0566,0.065,0.0877,0.0905,0.0911,0.0898,0.0899,0.099,0.1207,0.1208,0.1326,0.1532,0.165,0.1713,0.1723,0.1842,0.1907,0.1948,0.1948,0.1948,0.1948,0.1948,0.1888,0.1768,0.1768,0.1567,-0.5688,-0.5688,-0.5688,-0.5688,-0.5688,-0.5688,-0.5688,-0.5688,-0.5688,-0.5688,-0.5688,-0.5688,-0.5688,-0.5688,-0.5746,-0.5877,-0.5899,-0.5986,-0.6249,-0.629,-0.6336,0.0,0.0,0.0,0.0,0.0,0.0,-0.642,0.0,-0.6471,-0.6588,-0.6604,-0.6692,-0.6806,-0.6931,-0.7021,-0.7021,-0.7128,-0.721,-0.721,-0.721,-0.721,-0.721,-0.721,-0.721,-0.721,-0.721,-0.721,-0.721,-0.721,-0.721,-0.721,-0.721,-0.721,-0.721,-0.721,-0.721,-0.7043,-0.5901,-0.5483,-0.5314,-0.4167,-0.2965,-0.2211,-0.3357,-0.2043,-0.042,-0.1484,-0.0981,-0.0084,-0.0028,0.0,0.0,0.0,0.0,0.0,0.0,0.0,0.0,0.0,0.0,0.0,0.0,0.0,0.0,0.0,0.0,0.0201,0.0777,0.0863,0.084,0.0854,0.0855,0.0855,0.0886,0.0886,0.0886,0.0915,0.1211,0.1368,0.1389,0.1692,0.1887,0.1945,0.1946,0.1946,0.1946,0.1946,0.1791,0.1482,0.1482,0.1297,-0.5688,-0.5688,-0.5688,-0.5688,-0.5688,-0.5688,-0.5688,-0.5688,-0.5688,-0.5688,-0.5688,-0.5688,-0.5688,-0.5688,-0.5721,-0.5748,-0.5824,0.0,-0.6134,-0.6235,0.0,-0.6398,0.0,-0.6412,-0.6412,-0.6412,0.0,0.0,-0.6547,-0.6561,-0.6593,-0.6793,-0.6907,-0.6937,-0.7078,-0.7138,-0.7138,-0.7196,-0.721,-0.721,-0.721,-0.721,-0.721,-0.721,-0.721,-0.721,-0.721,-0.721,-0.721,-0.721,-0.721,-0.721,-0.721,-0.721,-0.721,-0.721,-0.721,-0.7154,-0.6849,-0.6735,-0.668,-0.6371,-0.5479,-0.4531,-0.484,-0.3888,-0.2547,-0.1959,-0.1567,-0.112,-0.0224,0.0,0.0,0.0,0.0,0.0,0.0,0.0,0.0,0.0,0.0,0.0,0.0,0.0,0.0,0.0,0.0,0.0059,0.0205,0.0234,0.0236,0.0239,0.024,0.0331,0.0579,0.061,0.0702,0.0946,0.1068,0.1101,0.1105,0.1197,0.123,0.1266,0.1266,0.1266,0.1266,0.1266,0.1204,0.1142,0.1142,0.0957,-0.5688,-0.5688,-0.5688,-0.5688,-0.5688,-0.5688,-0.5688,-0.5688,-0.5688,-0.5688,-0.5688,-0.5688,-0.5688,-0.5688,-0.5746,0.0,0.0,0.0,-0.6214,-0.6298,-0.6366,0.0,-0.6412,0.0,-0.6412,-0.6412,-0.646,0.0,-0.6593,-0.6639,-0.6774,-0.691,-0.7035,-0.7087,-0.7149,-0.721,-0.721,-0.721,-0.721,-0.721,-0.721,-0.721,-0.721,-0.721,-0.721,-0.721,0.0,-0.721,-0.721,-0.721,-0.721,-0.721,-0.721,-0.721,-0.721,-0.721,-0.721,-0.721,-0.721,-0.721,-0.721,-0.721,-0.6374,-0.5511,-0.604,-0.4977,-0.3469,-0.277,-0.2211,-0.1512,-0.0308,0.0,0.0,0.0,0.0,0.0,0.0,0.0,0.0,0.0,0.0,0.0,0.0,0.0,0.0,0.0,0.0,0.0,0.0,0.0,0.0,0.0,0.0,0.0061,0.0278,0.0278,0.037,0.0556,0.071,0.0772,0.0772,0.0926,0.0988,0.0988,0.0988,0.0988,0.0988,0.0988,0.0926,0.0772,0.0772,0.0587,-0.5688,-0.5688,-0.5688,-0.5688,-0.5688,-0.5688,-0.5688,-0.5688,-0.5688,-0.5688,0.0,-0.5688,-0.5688,-0.5724,-0.58,-0.6029,0.0,-0.6181,-0.636,-0.6401,-0.6412,-0.6412,-0.6412,-0.6412,-0.6412,-0.6412,-0.6469,-0.6607,-0.6618,-0.6744,-0.6999,-0.7027,-0.7081,-0.7207,-0.721,-0.721,-0.721,-0.721,-0.721,-0.721,-0.721,-0.721,-0.721,-0.721,-0.721,-0.721,-0.721,-0.721,-0.721,-0.721,-0.721,-0.721,-0.721,-0.721,-0.721,-0.721,-0.721,-0.721,-0.721,-0.721,-0.721,-0.721,-0.6485,-0.5845,-0.6877,-0.5729,-0.4055,-0.3888,-0.3078,-0.1959,-0.0588,-0.0252,-0.0196,-0.0028,0.0,0.0,0.0,0.0,0.0,0.0,0.0,0.0,0.0,0.0,0.0,0.0,0.0,0.0,0.0,0.0,0.0,0.0,0.0,0.0,0.0,0.0,0.0,0.0,0.0278,0.0432,0.0432,0.071,0.0864,0.0864,0.0864,0.0864,0.0864,0.0864,0.071,0.0432,0.0432,0.0278,-0.5688,-0.5688,-0.5688,-0.5688,-0.5688,-0.5688,-0.5688,-0.5688,0.0,0.0,-0.5688,-0.5688,-0.5688,-0.5786,-0.5888,-0.5928,0.0,0.0,0.0,0.0,-0.6412,0.0,0.0,0.0,0.0,0.0,0.0,0.0,0.0,-0.6834,-0.7005,-0.71,-0.7163,-0.721,-0.721,-0.721,-0.721,-0.721,-0.721,-0.721,-0.721,-0.721,-0.721,-0.721,-0.721,-0.721,-0.721,0.0,-0.721,-0.721,-0.721,-0.721,-0.721,-0.721,-0.721,-0.721,-0.721,-0.721,-0.721,-0.721,-0.721,-0.721,-0.7071,-0.6932,-0.7127,-0.6902,-0.6371,-0.5369,-0.4923,-0.4278,-0.2071,-0.1484,-0.1232,-0.0224,0.0,0.0,0.0,0.0,0.0,0.0,0.0,0.0,0.0,0.0,0.0,0.0,0.0,0.0,0.0,0.0,0.0,0.0,0.0,0.0,0.0,0.0,0.0,0.0,0.0062,0.0093,0.0093,0.0154,0.0185,0.0185,0.0185,0.0185,0.0185,0.0185,0.0154,0.0093,0.0093,0.0062,-0.5688,-0.5688,-0.5688,-0.5688,-0.5688,-0.5688,-0.5688,0.0,0.0,0.0,-0.5688,-0.5688,-0.5688,-0.5803,0.0,0.0,0.0,0.0,0.0,0.0,0.0,0.0,0.0,0.0,0.0,0.0,0.0,0.0,0.0,-0.688,-0.7092,-0.7152,-0.721,-0.721,-0.721,-0.721,-0.721,-0.721,-0.721,-0.721,-0.721,-0.721,-0.721,-0.721,-0.721,-0.721,-0.721,0.0,-0.721,-0.721,-0.721,-0.721,-0.721,-0.721,-0.721,-0.721,-0.721,-0.721,-0.721,-0.721,-0.7099,-0.6457,-0.6682,-0.721,-0.721,-0.721,-0.6818,-0.4977,-0.4475,-0.3916,-0.1484,-0.0868,-0.0728,-0.014,0.0,0.0,0.0,0.0,0.0,0.0,0.0,0.0,0.0,0.0,0.0,0.0,0.0,0.0,0.0,0.0,0.0,0.0,0.0,0.0,0.0,0.0,0.0,0.0,0.0,0.0,0.0,0.0,0.0,0.0,0.0,0.0,0.0,0.0,0.0,0.0,0.0,0.0,-0.5688,-0.5688,-0.5688,-0.5688,-0.5688,-0.5688,-0.5688,-0.5688,0.0,0.0,-0.5688,-0.5688,-0.5688,0.0,-0.5972,0.0,-0.6233,0.0,0.0,0.0,0.0,0.0,0.0,0.0,0.0,0.0,0.0,0.0,0.0,0.0,-0.7199,-0.721,-0.721,-0.721,-0.721,-0.721,-0.721,-0.721,-0.721,-0.721,-0.721,-0.721,-0.721,-0.721,-0.721,-0.721,-0.721,0.0,0.0,-0.721,-0.721,-0.721,-0.721,-0.721,-0.721,-0.721,-0.721,-0.7154,-0.6902,-0.6818,-0.6624,-0.5397,-0.5843,-0.6765,-0.651,-0.6427,-0.6035,-0.4139,-0.3608,-0.3106,-0.0953,-0.0392,-0.0308,-0.0056,0.0,0.0,0.0,0.0,0.0,0.0,0.0,0.0,0.0,0.0,0.0,0.0,0.0,0.0,0.0,0.0,0.0,0.0,0.0,0.0,0.0,0.0,0.0,0.0,0.0,0.0,0.0,0.0,0.0,0.0,0.0,0.0,0.0,0.0,0.0,0.0,0.0,0.0,-0.5688,-0.5688,-0.5688,-0.5688,-0.5688,-0.5688,-0.5688,0.0,0.0,-0.5688,-0.5688,-0.5688,-0.5688,-0.5918,-0.6096,-0.6107,0.0,-0.6401,0.0,0.0,0.0,0.0,0.0,0.0,0.0,0.0,0.0,0.0,0.0,0.0,-0.721,-0.721,-0.721,-0.721,-0.721,-0.721,-0.721,-0.721,-0.721,-0.721,-0.721,-0.721,-0.721,-0.721,-0.721,-0.721,-0.721,0.0,0.0,-0.721,-0.721,-0.721,-0.721,-0.721,-0.721,-0.721,-0.721,-0.7043,-0.5956,-0.5566,-0.5369,-0.4168,-0.4587,-0.5369,-0.425,-0.3943,-0.3888,-0.3664,-0.3608,-0.3301,-0.1987,-0.1623,-0.1372,-0.0252,0.0,0.0,0.0,0.0,0.0,0.0,0.0,0.0,0.0,0.0,0.0,0.0,0.0,0.0,0.0,0.0,0.0,0.0,0.0,0.0,0.0,0.0,0.0,0.0,0.0,0.0,0.0,0.0,0.0,0.0,0.0,0.0,0.0,0.0,0.0,0.0,0.0,0.0,-0.5688,-0.5688,-0.5688,-0.5688,-0.5688,-0.5688,-0.5688,0.0,-0.5688,-0.5688,-0.5688,-0.5688,-0.5688,-0.5926,-0.611,-0.611,-0.626,0.0,0.0,0.0,0.0,0.0,0.0,0.0,0.0,0.0,0.0,0.0,0.0,0.0,-0.721,-0.721,-0.721,-0.721,-0.721,-0.721,-0.721,-0.721,-0.721,-0.721,-0.721,-0.721,-0.721,-0.721,-0.721,-0.721,-0.721,0.0,0.0,-0.721,-0.721,-0.721,-0.721,-0.721,-0.7099,-0.6374,-0.6123,-0.5954,-0.4726,-0.4308,-0.4111,-0.291,-0.2854,-0.3273,-0.3525,-0.3608,-0.3441,-0.2714,-0.2519,-0.2239,-0.1036,-0.0728,-0.0588,-0.0112,0.0,0.0,0.0,0.0,0.0,0.0,0.0,0.0,0.0,0.0,0.0,0.0,0.0,0.0,0.0,0.0,0.0,0.0,0.0,0.0,0.0,0.0,0.0,0.0,0.0,0.0,0.0,0.0,0.0,0.0,0.0,0.0,0.0,0.0,0.0,0.0,0.0,0.0,-0.5688,-0.5688,-0.5688,-0.5688,-0.5688,-0.568,0.0,0.0,-0.568,-0.5642,-0.5664,-0.5688,-0.5688,-0.5896,-0.6043,-0.6104,-0.6255,-0.6374,-0.6406,0.0,0.0,0.0,0.0,0.0,0.0,0.0,0.0,0.0,0.0,0.0,-0.721,-0.721,-0.721,-0.721,-0.721,-0.721,-0.721,-0.721,-0.7015,-0.668,-0.668,-0.6485,-0.6149,-0.6149,-0.6149,-0.6149,-0.6149,0.0,0.0,-0.6513,-0.6457,-0.6177,-0.6541,-0.6455,-0.6035,-0.5172,-0.4868,-0.4698,-0.3497,-0.3078,-0.2882,-0.1651,-0.126,-0.1428,-0.2267,-0.2547,-0.2351,-0.1512,-0.126,-0.1064,-0.0224,0.0,0.0,0.0,0.0,0.0,0.0,0.0,0.0,0.0,0.0,0.0,0.0,0.0,0.0,0.0,0.0,0.0,0.0,0.0,0.0,0.0,0.0,0.0,0.0,0.0,0.0,0.0,0.0,0.0,0.0,0.0,0.0,0.0,0.0,0.0,0.0,0.0,0.0,0.0,0.0,0.0,-0.5688,-0.5688,-0.5688,-0.5688,-0.5688,-0.5656,0.0,-0.5602,-0.5656,-0.5534,-0.5605,-0.5688,-0.5688,-0.5805,-0.5945,-0.6091,-0.6213,0.0,-0.6396,0.0,0.0,0.0,0.0,0.0,0.0,0.0,0.0,0.0,0.0,0.0,-0.721,-0.721,-0.721,-0.721,-0.721,-0.721,-0.721,-0.721,-0.6596,-0.5427,-0.5427,-0.4782,-0.3636,-0.3636,-0.3636,-0.3636,0.0,0.0,0.0,-0.4923,-0.4726,-0.3748,-0.4951,-0.4698,-0.3636,-0.3636,-0.3608,-0.3441,-0.2239,-0.1819,-0.1623,-0.042,-0.0028,-0.0028,-0.0028,-0.0028,-0.0028,-0.0028,-0.0028,-0.0028,0.0,0.0,0.0,0.0,0.0,0.0,0.0,0.0,0.0,0.0,0.0,0.0,0.0,0.0,0.0,0.0,0.0,0.0,0.0,0.0,0.0,0.0,0.0,0.0,0.0,0.0,0.0,0.0,0.0,0.0,0.0,0.0,0.0,0.0,0.0,0.0,0.0,0.0,0.0,0.0,0.0,0.0,-0.5688,-0.5688,-0.5688,-0.5688,-0.5688,-0.5656,-0.5534,-0.5602,-0.5653,-0.5532,-0.5605,-0.5688,-0.5688,-0.5803,-0.5945,-0.6091,-0.6213,-0.6333,0.0,0.0,0.0,0.0,0.0,0.0,0.0,0.0,0.0,0.0,0.0,0.0,-0.721,-0.721,-0.721,-0.721,-0.721,-0.721,-0.721,-0.6374,-0.5789,-0.5399,-0.4559,-0.3971,-0.3608,-0.3608,-0.3608,0.0,0.0,0.0,0.0,-0.3999,-0.3943,-0.3636,-0.4027,-0.3943,-0.3497,-0.2686,-0.2379,-0.2211,-0.0981,-0.056,-0.0504,-0.0112,0.0,0.0,0.0,0.0,0.0,0.0,0.0,0.0,0.0,0.0,0.0,0.0,0.0,0.0,0.0,0.0,0.0,0.0,0.0,0.0,0.0,0.0,0.0,0.0,0.0,0.0,0.0,0.0,0.0,0.0,0.0,0.0,0.0,0.0,0.0,0.0,0.0,0.0,0.0,0.0,0.0,0.0,0.0,0.0,0.0,0.0,0.0,0.0,0.0,0.0,-0.5688,-0.5688,-0.5688,-0.5688,-0.5688,0.0,-0.5499,-0.5591,-0.5664,-0.5497,-0.5594,-0.5688,-0.5688,-0.577,-0.5893,-0.6059,-0.6175,0.0,0.0,0.0,0.0,0.0,0.0,0.0,0.0,0.0,0.0,0.0,0.0,0.0,-0.721,-0.721,-0.721,-0.721,-0.721,-0.6985,-0.6513,-0.5789,-0.4951,-0.4029,-0.3273,-0.2686,-0.2239,-0.2239,-0.2239,0.0,0.0,0.0,0.0,-0.2742,-0.2658,-0.2295,-0.2742,-0.2629,-0.2155,-0.14,-0.112,-0.1008,-0.0252,0.0,0.0,0.0,0.0,0.0,0.0,0.0,0.0,0.0,0.0,0.0,0.0,0.0,0.0,0.0,0.0,0.0,0.0,0.0,0.0,0.0,0.0,0.0,0.0,0.0,0.0,0.0,0.0,0.0,0.0,0.0,0.0,0.0,0.0,0.0,0.0,0.0,0.0,0.0,0.0,0.0,0.0,0.0,0.0,0.0,0.0,0.0,0.0,0.0,0.0,0.0,0.0,0.0,0.0,-0.5688,-0.5688,0.0,0.0,0.0,-0.5447,-0.5559,0.0,-0.5441,-0.5564,-0.5688,-0.5688,-0.5688,-0.5789,-0.6048,-0.611,0.0,0.0,0.0,0.0,0.0,0.0,0.0,0.0,0.0,0.0,0.0,0.0,0.0,-0.721,-0.721,-0.721,-0.721,-0.7127,-0.6541,-0.5399,-0.5314,-0.4111,-0.1791,-0.1707,-0.1092,0.0,0.0,0.0,0.0,0.0,0.0,0.0,-0.1204,-0.1008,-0.0112,-0.1232,-0.0981,0.0,0.0,0.0,0.0,0.0,0.0,0.0,0.0,0.0,0.0,0.0,0.0,0.0,0.0,0.0,0.0,0.0,0.0,0.0,0.0,0.0,0.0,0.0,0.0,0.0,0.0,0.0,0.0,0.0,0.0,0.0,0.0,0.0,0.0,0.0,0.0,0.0,0.0,0.0,0.0,0.0,0.0,0.0,0.0,0.0,0.0,0.0,0.0,0.0,0.0,0.0,0.0,0.0,0.0,0.0,0.0,0.0,0.0,-0.5688,0.0,-0.5688,-0.5688,-0.5688,-0.5648,0.0,-0.5559,-0.5643,-0.5441,-0.5564,-0.5688,-0.5688,-0.5688,-0.5789,-0.6048,0.0,0.0,0.0,0.0,0.0,0.0,0.0,0.0,0.0,0.0,0.0,0.0,0.0,-0.721,-0.721,-0.721,-0.721,-0.721,-0.629,-0.5678,-0.5399,-0.4475,-0.3273,-0.1791,-0.0868,-0.028,0.0,0.0,0.0,0.0,0.0,0.0,-0.0028,-0.0308,-0.0252,-0.0028,-0.0308,-0.0252,0.0,0.0,0.0,0.0,0.0,0.0,0.0,0.0,0.0,0.0,0.0,0.0,0.0,0.0,0.0,0.0,0.0,0.0,0.0,0.0,0.0,0.0,0.0,0.0,0.0,0.0,0.0,0.0,0.0,0.0,0.0,0.0,0.0,0.0,0.0,0.0,0.0,0.0,0.0,0.0,0.0,0.0,0.0,0.0,0.0,0.0,0.0,0.0,0.0,0.0,0.0,0.0,0.0,0.0,0.0,0.0,0.0,0.0,-0.5688,-0.5688,-0.5688,-0.5688,-0.5688,-0.5662,-0.5496,-0.5578,-0.5659,-0.5491,0.0,-0.5688,-0.5688,-0.5688,0.0,0.0,0.0,0.0,0.0,0.0,0.0,0.0,0.0,0.0,0.0,0.0,0.0,0.0,0.0,-0.721,-0.721,-0.721,-0.721,-0.721,-0.604,-0.5146,-0.4587,-0.3385,-0.2155,-0.0953,-0.0308,0.0,0.0,0.0,0.0,0.0,0.0,0.0,0.0,0.0,0.0,0.0,0.0,0.0,0.0,0.0,0.0,0.0,0.0,0.0,0.0,0.0,0.0,0.0,0.0,0.0,0.0,0.0,0.0,0.0,0.0,0.0,0.0,0.0,0.0,0.0,0.0,0.0,0.0,0.0,0.0,0.0,0.0,0.0,0.0,0.0,0.0,0.0,0.0,0.0,0.0,0.0,0.0,0.0,0.0,0.0,0.0,0.0,0.0,0.0,0.0,0.0,0.0,0.0,0.0,0.0,0.0,0.0,0.0,0.0,0.0,0.0,-0.5666,-0.5688,-0.5688,-0.5688,-0.5688,-0.5656,-0.5534,0.0,0.0,0.0,0.0,0.0,0.0,-0.5688,0.0,0.0,0.0,0.0,0.0,0.0,0.0,0.0,0.0,0.0,0.0,0.0,0.0,0.0,0.0,-0.6932,-0.6932,-0.6763,-0.6652,-0.6652,-0.5481,-0.4364,-0.3329,-0.2323,-0.1204,0.0,0.0,0.0,0.0,0.0,0.0,0.0,0.0,0.0,0.0,0.0,0.0,0.0,0.0,0.0,0.0,0.0,0.0,0.0,0.0,0.0,0.0,0.0,0.0,0.0,0.0,0.0,0.0,0.0,0.0,0.0,0.0,0.0,0.0,0.0,0.0,0.0,0.0,0.0,0.0,0.0,0.0,0.0,0.0,0.0,0.0,0.0,0.0,0.0,0.0,0.0,0.0,0.0,0.0,0.0,0.0,0.0,0.0,0.0,0.0,0.0,0.0,0.0,0.0,0.0,0.0,0.0,0.0,0.0,0.0,0.0,0.0,0.0,-0.5488,-0.5688,-0.5688,-0.5688,-0.5688,-0.5656,-0.5534,-0.5602,0.0,0.0,0.0,0.0,0.0,-0.5688,0.0,0.0,0.0,0.0,0.0,0.0,0.0,0.0,0.0,0.0,0.0,0.0,0.0,0.0,0.0,-0.5678,-0.5678,-0.4697,-0.4165,-0.4165,-0.2993,-0.2267,-0.2071,-0.1903,-0.1204,0.0,0.0,0.0,0.0,0.0,0.0,0.0,0.0,0.0,0.0,0.0,0.0,0.0,0.0,0.0,0.0,0.0,0.0,0.0,0.0,0.0,0.0,0.0,0.0,0.0,0.0,0.0,0.0,0.0,0.0,0.0,0.0,0.0,0.0,0.0,0.0,0.0,0.0,0.0,0.0,0.0,0.0,0.0,0.0,0.0,0.0,0.0,0.0,0.0,0.0,0.0,0.0,0.0,0.0,0.0,0.0,0.0,0.0,0.0,0.0,0.0,0.0,0.0,0.0,0.0,0.0,0.0,0.0,0.0,0.0,0.0,0.0,0.0,-0.4837,-0.5307,-0.5688,-0.5688,-0.5688,-0.5675,-0.5618,-0.5648,-0.5675,0.0,0.0,0.0,0.0,0.0,0.0,0.0,0.0,0.0,0.0,0.0,0.0,0.0,0.0,0.0,0.0,0.0,0.0,0.0,0.0,0.0,-0.5395,-0.425,-0.3608,-0.3608,-0.2435,-0.1791,-0.1791,-0.1148,-0.056,0.0,0.0,0.0,0.0,0.0,0.0,0.0,0.0,0.0,0.0,0.0,0.0,0.0,0.0,0.0,0.0,0.0,0.0,0.0,0.0,0.0,0.0,0.0,0.0,0.0,0.0,0.0,0.0,0.0,0.0,0.0,0.0,0.0,0.0,0.0,0.0,0.0,0.0,0.0,0.0,0.0,0.0,0.0,0.0,0.0,0.0,0.0,0.0,0.0,0.0,0.0,0.0,0.0,0.0,0.0,0.0,0.0,0.0,0.0,0.0,0.0,0.0,0.0,0.0,0.0,0.0,0.0,0.0,0.0,0.0,0.0,0.0,0.0,-0.4186,-0.4837,-0.5419,-0.5644,-0.5532,-0.5419,-0.5644,-0.5532,-0.5441,0.0,0.0,0.0,0.0,0.0,0.0,0.0,0.0,0.0,0.0,0.0,0.0,0.0,0.0,0.0,0.0,0.0,0.0,0.0,0.0,0.0,-0.4557,-0.3405,-0.277,-0.277,-0.1847,-0.1372,-0.1372,-0.0448,0.0,0.0,0.0,0.0,0.0,0.0,0.0,0.0,0.0,0.0,0.0,0.0,0.0,0.0,0.0,0.0,0.0,0.0,0.0,0.0,0.0,0.0,0.0,0.0,0.0,0.0,0.0,0.0,0.0,0.0,0.0,0.0,0.0,0.0,0.0,0.0,0.0,0.0,0.0,0.0,0.0,0.0,0.0,0.0,0.0,0.0,0.0,0.0,0.0,0.0,0.0,0.0,0.0,0.0,0.0,0.0,0.0,0.0,0.0,0.0,0.0,0.0,0.0,0.0,0.0,0.0,0.0,0.0,0.0,0.0,0.0,0.0,0.0,0.0,-0.3807,-0.4344,-0.4612,-0.5488,-0.5037,-0.4634,-0.5508,-0.5015,0.0,-0.553,0.0,0.0,0.0,0.0,0.0,0.0,0.0,0.0,0.0,0.0,0.0,0.0,0.0,0.0,0.0,0.0,0.0,0.0,0.0,0.0,-0.2104,-0.0916,-0.0252,-0.0252,-0.0168,-0.014,-0.014,-0.0056,0.0,0.0,0.0,0.0,0.0,0.0,0.0,0.0,0.0,0.0,0.0,0.0,0.0,0.0,0.0,0.0,0.0,0.0,0.0,0.0,0.0,0.0,0.0,0.0,0.0,0.0,0.0,0.0,0.0,0.0,0.0,0.0,0.0,0.0,0.0,0.0,0.0,0.0,0.0,0.0,0.0,0.0,0.0,0.0,0.0,0.0,0.0,0.0,0.0,0.0,0.0,0.0,0.0,0.0,0.0,0.0,0.0,0.0,0.0,0.0,0.0,0.0,0.0,0.0,0.0,0.0,0.0,0.0,0.0,0.0,0.0,0.0,0.0,0.0,-0.2308,-0.2956,-0.3516,-0.3874,-0.3224,0.0,0.0,-0.4971,-0.4567,-0.5508,-0.5688,0.0,0.0,0.0,0.0,0.0,0.0,0.0,0.0,0.0,0.0,0.0,0.0,0.0,0.0,0.0,0.0,0.0,0.0,0.0,-0.286,-0.1647,-0.0693,-0.0028,0.0,0.0,0.0,0.0,0.0,0.0,0.0,0.0,0.0,0.0,0.0,0.0,0.0,0.0,0.0,0.0,0.0,0.0,0.0,0.0,0.0,0.0,0.0,0.0,0.0,0.0,0.0,0.0,0.0,0.0,0.0,0.0,0.0,0.0,0.0,0.0,0.0,0.0,0.0,0.0,0.0,0.0,0.0,0.0,0.0,0.0,0.0,0.0,0.0,0.0,0.0,0.0,0.0,0.0,0.0,0.0,0.0,0.0,0.0,0.0,0.0,0.0,0.0,0.0,0.0,0.0,0.0,0.0,0.0,0.0,0.0,0.0,0.0,0.0,0.0,0.0,0.0,0.0,-0.1323,-0.1905,-0.251,-0.2823,0.0,0.0,-0.4679,-0.4523,-0.421,-0.5441,-0.5688,0.0,0.0,0.0,0.0,0.0,0.0,0.0,0.0,0.0,0.0,0.0,0.0,0.0,0.0,0.0,0.0,0.0,0.0,0.0,0.0,-0.204,-0.1101,-0.0028,0.0,0.0,0.0,0.0,0.0,0.0,0.0,0.0,0.0,0.0,0.0,0.0,0.0,0.0,0.0,0.0,0.0,0.0,0.0,0.0,0.0,0.0,0.0,0.0,0.0,0.0,0.0,0.0,0.0,0.0,0.0,0.0,0.0,0.0,0.0,0.0,0.0,0.0,0.0,0.0,0.0,0.0,0.0,0.0,0.0,0.0,0.0,0.0,0.0,0.0,0.0,0.0,0.0,0.0,0.0,0.0,0.0,0.0,0.0,0.0,0.0,0.0,0.0,0.0,0.0,0.0,0.0,0.0,0.0,0.0,0.0,0.0,0.0,0.0,0.0,0.0,0.0,0.0,-0.1144,-0.1391,-0.1637,0.0,0.0,0.0,-0.3851,-0.3561,-0.3427,-0.5307,-0.5688,-0.571,-0.5713,0.0,0.0,0.0,0.0,0.0,0.0,0.0,0.0,0.0,0.0,0.0,0.0,0.0,0.0,0.0,0.0,0.0,0.0,-0.1595,-0.11,-0.0028,0.0,0.0,0.0,0.0,0.0,0.0,0.0,0.0,0.0,0.0,0.0,0.0,0.0,0.0,0.0,0.0,0.0,0.0,0.0,0.0,0.0,0.0,0.0,0.0,0.0,0.0,0.0,0.0,0.0,0.0,0.0,0.0,0.0,0.0,0.0,0.0,0.0,0.0,0.0,0.0,0.0,0.0,0.0,0.0,0.0,0.0,0.0,0.0,0.0,0.0,0.0,0.0,0.0,0.0,0.0,0.0,0.0,0.0,0.0,0.0,0.0,0.0,0.0,0.0,0.0,0.0,0.0,0.0,0.0,0.0,0.0,0.0,0.0,0.0,0.0,0.0,0.0,0.0,-0.0337,-0.0404,0.0,-0.0786,0.0,0.0,0.0,-0.3092,0.0,0.0,-0.5688,-0.5762,-0.595,0.0,0.0,0.0,0.0,0.0,0.0,0.0,0.0,0.0,0.0,0.0,0.0,0.0,0.0,0.0,0.0,0.0,0.0,-0.2005,-0.1115,-0.0028,0.0,0.0,0.0,0.0,0.0,0.0,0.0,0.0,0.0,0.0,0.0,0.0,0.0,0.0,0.0,0.0,0.0,0.0,0.0,0.0,0.0,0.0,0.0,0.0,0.0,0.0,0.0,0.0,0.0,0.0,0.0,0.0,0.0,0.0,0.0,0.0,0.0,0.0,0.0,0.0,0.0,0.0,0.0,0.0,0.0,0.0,0.0,0.0,0.0,0.0,0.0,0.0,0.0,0.0,0.0,0.0,0.0,0.0,0.0,0.0,0.0,0.0,0.0,0.0,0.0,0.0,0.0,0.0,0.0,0.0,0.0,0.0,0.0,0.0,0.0,0.0,0.0,0.0,0.0,0.0,0.0,0.0,0.0,-0.0516,-0.2464,0.0,0.0,0.0,0.0,0.0,0.0,0.0,0.0,0.0,0.0,0.0,0.0,0.0,0.0,0.0,0.0,0.0,0.0,0.0,0.0,0.0,0.0,0.0,0.0,-0.1943,-0.1109,-0.0028,0.0,0.0,0.0,0.0,0.0,0.0,0.0,0.0,0.0,0.0,0.0,0.0,0.0,0.0,0.0,0.0,0.0,0.0,0.0,0.0,0.0,0.0,0.0,0.0,0.0,0.0,0.0,0.0,0.0,0.0,0.0,0.0,0.0,0.0,0.0,0.0,0.0,0.0,0.0,0.0,0.0,0.0,0.0,0.0,0.0,0.0,0.0,0.0,0.0,0.0,0.0,0.0,0.0,0.0,0.0,0.0,0.0,0.0,0.0,0.0,0.0,0.0,0.0,0.0,0.0,0.0,0.0,0.0,0.0,0.0,0.0,0.0,0.0,0.0,0.0,0.0,0.0,0.0,0.0,0.0,0.0,0.0,-0.0135,0.0,-0.2488,0.0,-0.5688,0.0,0.0,0.0,0.0,0.0,0.0,0.0,0.0,0.0,0.0,0.0,0.0,0.0,0.0,0.0,0.0,0.0,0.0,0.0,0.0,0.0,0.0,-0.1571,-0.1001,-0.0028,0.0,0.0,0.0,0.0,0.0,0.0,0.0,0.0,0.0,0.0,0.0,0.0,0.0,0.0,0.0,0.0,0.0,0.0,0.0,0.0,0.0,0.0,0.0,0.0,0.0,0.0,0.0,0.0,0.0,0.0,0.0,0.0,0.0,0.0,0.0,0.0,0.0,0.0,0.0,0.0,0.0,0.0,0.0,0.0,0.0,0.0,0.0,0.0,0.0,0.0,0.0,0.0,0.0,0.0,0.0,0.0,0.0,0.0,0.0,0.0,0.0,0.0,0.0,0.0,0.0,0.0,0.0,0.0,0.0,0.0,0.0,0.0,0.0,0.0,0.0,0.0,0.0,0.0,0.0067,0.0,0.0,0.0,-0.1144,-0.2376,-0.2801,-0.4344,0.0,0.0,0.0,0.0,0.0,0.0,0.0,0.0,0.0,0.0,0.0,0.0,0.0,0.0,0.0,0.0,0.0,0.0,0.0,0.0,0.0,0.0,-0.289,-0.1251,-0.0244,0.0,0.0,0.0,0.0,0.0,0.0,0.0,0.0,0.0,0.0,0.0,0.0,0.0,0.0,0.0,0.0,0.0,0.0,0.0,0.0,0.0,0.0,0.0,0.0,0.0,0.0,0.0,0.0,0.0,0.0,0.0,0.0,0.0,0.0,0.0,0.0,0.0,0.0,0.0,0.0,0.0,0.0,0.0,0.0,0.0,0.0,0.0,0.0,0.0,0.0,0.0,0.0,0.0,0.0,0.0,0.0,0.0,0.0,0.0,0.0,0.0,0.0,0.0,0.0,0.0,0.0,0.0,0.0,0.0,0.0,0.0,0.0,0.0,0.0,0.0,0.0,0.0,0.0,0.0,0.0067,0.0,0.0,0.0,0.0,-0.2308,-0.2801,-0.365,0.0,0.0,0.0,0.0,0.0,0.0,0.0,0.0,0.0,0.0,0.0,0.0,0.0,0.0,0.0,0.0,0.0,0.0,0.0,0.0,0.0,-0.3517,-0.2489,-0.1378,-0.0539,-0.0028,0.0,0.0,0.0,0.0,0.0,0.0,0.0,0.0,0.0,0.0,0.0,0.0,0.0,0.0,0.0,0.0,0.0,0.0,0.0,0.0,0.0,0.0,0.0,0.0,0.0,0.0,0.0,0.0,0.0,0.0,0.0,0.0,0.0,0.0,0.0,0.0,0.0,0.0,0.0,0.0,0.0,0.0,0.0,0.0,0.0,0.0,0.0,0.0,0.0,0.0,0.0,0.0,0.0,0.0,0.0,0.0,0.0,0.0,0.0,0.0,0.0,0.0,0.0,0.0,0.0,0.0,0.0,0.0,0.0,0.0,0.0,0.0,0.0,0.0,0.0,0.0,0.0,0.0,0.0135,0.0,0.0,0.0,-0.0696,0.0,-0.2442,-0.2778,0.0,0.0,0.0,0.0,0.0,0.0,0.0,0.0,0.0,0.0,0.0,0.0,0.0,0.0,0.0,0.0,0.0,0.0,0.0,0.0,0.0,-0.3758,-0.1968,-0.153,-0.0913,-0.0027,0.0,0.0,0.0,0.0,0.0,0.0,0.0,0.0,0.0,0.0,0.0,0.0,0.0,0.0,0.0,0.0,0.0,0.0,0.0,0.0,0.0,0.0,0.0,0.0,0.0,0.0,0.0,0.0,0.0,0.0,0.0,0.0,0.0,0.0,0.0,0.0,0.0,0.0,0.0,0.0,0.0,0.0,0.0,0.0,0.0,0.0,0.0,0.0,0.0,0.0,0.0,0.0,0.0,0.0,0.0,0.0,0.0,0.0,0.0,0.0,0.0,0.0,0.0,0.0,0.0,0.0,0.0,0.0,0.0,0.0,0.0,0.0,0.0,0.0,0.0,0.0,0.0,0.0,0.0,0.0,0.0,0.0,-0.0696,-0.1436,0.0,0.0,0.0,0.0,0.0,0.0,0.0,0.0,0.0,0.0,0.0,0.0,0.0,0.0,0.0,0.0,0.0,0.0,0.0,0.0,0.0,0.0,-0.4454,-0.33,-0.3001,-0.1213,-0.0161,0.0,0.0,0.0,0.0,0.0,0.0,0.0,0.0,0.0,0.0,0.0,0.0,0.0,0.0,0.0,0.0,0.0,0.0,0.0,0.0,0.0,0.0,0.0,0.0,0.0,0.0,0.0,0.0,0.0,0.0,0.0,0.0,0.0,0.0,0.0,0.0,0.0,0.0,0.0,0.0,0.0,0.0,0.0,0.0,0.0,0.0,0.0,0.0,0.0,0.0,0.0,0.0,0.0,0.0,0.0,0.0,0.0,0.0,0.0,0.0,0.0,0.0,0.0,0.0,0.0,0.0,0.0,0.0,0.0,0.0,0.0,0.0,0.0,0.0,0.0,0.0,0.0,0.0,0.0,0.0269,0.009,0.0,0.0,-0.0314,-0.0763,-0.1279,0.0,0.0,0.0,0.0,0.0,0.0,0.0,0.0,0.0,0.0,0.0,0.0,0.0,0.0,0.0,0.0,0.0,0.0,0.0,0.0,0.0,-0.4078,-0.2932,-0.2346,-0.1416,-0.0615,-0.0027,0.0,0.0,0.0,0.0,0.0,0.0,0.0,0.0,0.0,0.0,0.0,0.0,0.0,0.0,0.0,0.0,0.0,0.0,0.0,0.0,0.0,0.0,0.0,0.0,0.0,0.0,0.0,0.0,0.0,0.0,0.0,0.0,0.0,0.0,0.0,0.0,0.0,0.0,0.0,0.0,0.0,0.0207,0.097,0.0521,0.0,0.0,0.0617,0.111,0.111,0.111,0.1357,0.2064,0.0925,0.0278,0.1018,0.0463,0.0,0.0,0.0,0.0,0.0,0.0,0.0,0.0,0.0,0.0,0.0,0.0,0.0,0.0,0.0,0.0,0.0,0.0,0.0,0.0,0.0,0.0,0.0,0.0,0.009,0.0022,0.0,-0.018,0.0,0.0,0.0,0.0,0.0,0.0,0.0,0.0,0.0,0.0,0.0,0.0,0.0,0.0,0.0,0.0,0.0,0.0,0.0,0.0,0.0,0.0,-0.355,-0.2444,-0.1639,-0.1352,-0.0822,-0.0027,0.0,0.0,0.0,0.0,0.0,0.0,0.0,0.0,0.0,0.0,0.0,0.0,0.0,0.0,0.0,0.0,0.0,0.0,0.0,0.0,0.0,0.0,0.0,0.0,0.0,0.0,0.0,0.0,0.0,0.0,0.0,0.0,0.0,0.0,0.0,0.0,0.0,0.0,0.0,0.0,0.0,0.0353,0.1719,0.1468,0.0986,0.0986,0.1787,0.2495,0.2495,0.2495,0.2802,0.3753,0.2248,0.1356,0.2341,0.1602,0.0986,0.0986,0.0986,0.0863,0.0525,0.0494,0.037,0.0031,0.0,0.0,0.0,0.0,0.0,0.0,0.0,0.0,0.0,0.0,0.0,0.0,0.0,0.0,0.0,0.0381,0.0,0.0067,0.0,0.0,0.0,0.0,0.0,0.0,0.0,0.0,0.0,0.0,0.0,0.0,0.0,0.0,0.0,0.0,0.0,0.0,0.0,0.0,0.0,0.0,0.0,0.0,-0.2871,-0.1664,-0.1613,-0.0643,-0.0052,0.0,0.0,0.0,0.0,0.0,0.0,0.0,0.0,0.0,0.0,0.0,0.0,0.0,0.0,0.0,0.0,0.0,0.0,0.0,0.0,0.0,0.0,0.0,0.0,0.0,0.0,0.0,0.0,0.0,0.0,0.0,0.0,0.0,0.0,0.0,0.0,0.0,0.0,0.0,0.0,0.0,0.0,0.0379,0.1708,0.2893,0.3692,0.3692,0.3752,0.3815,0.3815,0.3815,0.3815,0.3875,0.3784,0.3721,0.3784,0.3752,0.3692,0.3692,0.3692,0.3201,0.2003,0.1881,0.1357,0.0093,0.0,0.0,0.0,0.0,0.0,0.0,0.0,0.0,0.0,0.0,0.0,0.0,0.0,0.0,0.0,0.0,0.0,0.0067,0.0,0.0,0.0,0.0,0.0,0.0,0.0,0.0,0.0,0.0,0.0,0.0,0.0,0.0,0.0,0.0,0.0,0.0,0.0,0.0,0.0,0.0,0.0,0.0,0.0,-0.058,-0.058,-0.0206,0.0,0.0,0.0,0.0,0.0,0.0,0.0,0.0,0.0,0.0,0.0,0.0,0.0,0.0,0.0,0.0,0.0,0.0,0.0,0.0,0.0,0.0,0.0,0.0,0.0,0.0,0.0,0.0,0.0,0.0,0.0,0.0,0.0,0.0,0.0,0.0,0.0,0.0,0.0,0.0,0.0197,0.0965,0.18,0.2782,0.409,0.4124,0.3905,0.3905,0.4584,0.5199,0.5199,0.5199,0.5475,0.6333,0.5012,0.4214,0.5075,0.4429,0.3905,0.3905,0.3905,0.3722,0.3263,0.2465,0.1788,0.1326,0.0463,0.0,0.0,0.0,0.0,0.0,0.0,0.0,0.0,0.0,0.0,0.0,0.0,0.0,0.074,0.0,0.0,0.0,0.0,0.0,0.0,0.0,0.0,0.0,0.0,0.0,0.0,0.0,0.0,0.0,0.0,0.0,0.0,0.0,0.0,0.0,0.0,0.0,0.0,0.0,0.0,0.0,0.0,0.0,0.0,0.0,0.0,0.0,0.0,0.0,0.0,0.0,0.0,0.0,0.0,0.0,0.0,0.0,0.0,0.0,0.0,0.0,0.0,0.0,0.0,0.0,0.0,0.0,0.0,0.0,0.0,0.0,0.0,0.0,0.0,0.0,0.0,0.0,0.0,0.0,0.0,0.0,0.0,0.0,0.0,0.0308,0.0899,0.2129,0.3399,0.462,0.5515,0.5433,0.5195,0.5221,0.5965,0.658,0.658,0.658,0.6888,0.7778,0.6392,0.5563,0.6458,0.578,0.5257,0.5257,0.5257,0.5073,0.4613,0.3786,0.2926,0.2066,0.1172,0.0463,0.0031,0.0,0.0,0.0,0.0,0.0,0.0,0.0,0.0,0.0,0.0,0.0,0.0,0.0,0.0,0.0,0.0,0.0,0.0,0.0,0.0,0.0,0.0,0.0,0.0,0.0,0.0,0.0,0.0,0.0,0.0,0.0,0.0,0.0,0.0,0.0,0.0,0.0,0.0,0.0,-0.0606,0.0,0.0,0.0,0.0,0.0,0.0,0.0,0.0,0.0,0.0,0.0,0.0,0.0,0.0,0.0,0.0,0.0,0.0,0.0,0.0,0.0,0.0,0.0,0.0,0.0,0.0,0.0,0.0,0.0,0.0,0.0,0.0,0.0,0.0,0.0,0.0,0.0,0.0,0.0,0.0,0.0,0.0056,0.0953,0.2155,0.3357,0.4584,0.5547,0.5698,0.6773,0.7731,0.7878,0.7903,0.7903,0.7903,0.7903,0.7903,0.7903,0.7903,0.7903,0.7903,0.7903,0.7903,0.7903,0.7903,0.7378,0.6059,0.5937,0.48,0.2219,0.2035,0.1388,0.0062,0.0,0.0,0.0,0.0,0.0,0.0,0.0,0.0,0.0,0.0,0.0,0.1166,0.0,0.0,0.0,0.0,0.0,0.0,0.0,0.0,0.0,0.0,0.0,0.0,0.0,0.0,0.0,0.0,0.0,0.0,0.0,0.0,0.0,0.0,0.0,0.0,0.0,0.0,0.0,-0.0606,0.0,0.0,0.0,0.0,0.0,0.0,0.0,0.0,0.0,0.0,0.0,0.0,0.0,0.0,0.0,0.0,0.0,0.0,0.0,0.0,0.0,0.0,0.0,0.0,0.0,0.0,0.0,0.0,0.0,0.0,0.0,0.0,0.0,0.0,0.0,0.0,0.0,0.0,0.0,0.0,0.0196,0.1064,0.2211,0.3413,0.4615,0.5164,0.5684,0.6639,0.7219,0.7627,0.7862,0.7903,0.7903,0.7903,0.7903,0.7903,0.7903,0.7903,0.7903,0.7903,0.7903,0.7903,0.7903,0.7903,0.775,0.738,0.6458,0.5168,0.3478,0.2495,0.1388,0.0062,0.0,0.0,0.0,0.0,0.0,0.0,0.0,0.0,0.0,0.0,0.0,0.0,0.0,0.0,0.0,0.0,0.0,0.0,0.0,0.0,0.0,0.0,0.0,0.0,0.0,0.0,0.0,0.0,0.0,0.0,0.0,0.0,0.0,0.0,0.0,0.0,-0.1311,-0.0933,-0.0933,-0.0353,0.0,0.0,0.0,0.0,0.0,0.0,0.0,0.0,0.0,0.0,0.0,0.0,0.0,0.0,0.0,0.0,0.0,0.0,0.0,0.0,0.0,0.0,0.0,0.0,0.0,0.0,0.0,0.0,0.0,0.0,0.0,0.0,0.0,0.0,0.0,0.0,0.0,0.0,0.0,0.0364,0.1036,0.2239,0.3441,0.4643,0.5871,0.6151,0.6375,0.7139,0.7403,0.7576,0.7763,0.787,0.7903,0.7903,0.7903,0.7903,0.7903,0.7903,0.7903,0.7903,0.7903,0.7903,0.7903,0.7903,0.7903,0.7903,0.7194,0.6151,0.4829,0.3509,0.2218,0.0895,0.0309,0.0,0.0,0.0,0.0,0.0,0.0,0.0,0.0,0.0,0.0,0.0,0.0,0.0,0.0,0.0,0.0,0.0,0.0,0.0,0.0,0.0,0.0,0.0,0.0,0.0,0.0,0.0,0.0,0.0,0.0,0.0,0.0,0.0,0.0,-0.0101,0.0,0.0,0.0,0.0,0.0,0.0,0.0,0.0,0.0,0.0,0.0,0.0,0.0,0.0,0.0,0.0,0.0,0.0,0.0,0.0,0.0,0.0,0.0,0.0,0.0,0.0,0.0,0.0,0.0,0.0,0.0,0.0,0.0,0.0,0.0,0.0,0.0,0.0,0.0,0.0,0.0,0.0028,0.0168,0.1064,0.2267,0.3497,0.4698,0.5873,0.6932,0.721,0.7212,0.7265,0.7384,0.7506,0.7657,0.7782,0.7903,0.7903,0.7903,0.7903,0.7903,0.7903,0.7903,0.7903,0.7903,0.7903,0.7903,0.7903,0.7903,0.7903,0.7903,0.7319,0.5998,0.4643,0.3324,0.2065,0.071,0.0,0.0,0.0,0.0,0.0,0.0,0.0,0.0,0.0,0.0,0.0,0.0,0.0,0.0,0.0,0.0,0.0045,0.0,0.0,0.0,0.0,0.0,0.0,0.0,0.0,0.0,0.0,0.0,0.0,0.0,0.0,0.0,0.0,0.0,-0.0025,0.0,0.0,0.0,0.0,0.0,0.0,0.0,0.0,0.0,0.0,0.0,0.0,0.0,0.0,0.0,0.0,0.0,0.0,0.0,0.0,0.0,0.0,0.0,0.0,0.0,0.0,0.0,0.0,0.0,0.0,0.0,0.0,0.0,0.0,0.0,0.0,0.0,0.0,0.0,0.0,0.0,0.0196,0.1176,0.2323,0.3525,0.4728,0.5954,0.6902,0.7154,0.721,0.7218,0.7212,0.7285,0.7378,0.75,0.7725,0.7903,0.7903,0.7903,0.7903,0.7903,0.7903,0.7903,0.7903,0.7903,0.7903,0.7903,0.7903,0.7903,0.7903,0.7903,0.7319,0.5998,0.4643,0.3324,0.2065,0.071,0.0,0.0,0.0,0.0,0.0,0.0,0.0,0.0,0.0,0.0,0.0,0.0,0.0,0.0762,0.0,0.0,0.0,0.0,0.0,0.0,0.0,0.0,0.0,0.0,0.0,0.0,0.0,0.0,0.0,0.0,0.0,0.0,0.0,0.0,0.0,0.0,0.0,0.0,0.0,0.0,0.0,0.0,0.0,0.0,0.0,0.0,0.0,0.0,0.0,0.0,0.0,0.0,0.0,0.0,0.0,0.0,0.0,0.0,0.0,0.0,0.0,0.0,0.0,0.0,0.0,0.0,0.0,0.0,0.0,0.0,0.0,0.0,0.0,0.0,0.0,0.0,0.0252,0.1456,0.2658,0.3888,0.5091,0.629,0.721,0.721,0.721,0.721,0.721,0.7249,0.7343,0.7465,0.7663,0.7834,0.7892,0.7903,0.7903,0.7903,0.7903,0.7903,0.7903,0.7903,0.7903,0.7903,0.7903,0.7903,0.7903,0.7903,0.7625,0.695,0.5012,0.36,0.2987,0.1048,0.0,0.0,0.0,0.0,0.0,0.0,0.0,0.0,0.0,0.0,0.0,0.0,0.0,0.0,0.0,0.0381,0.0,0.0,0.0,0.0,0.0,0.0,0.0,0.0,0.0,0.0,0.0,0.0,0.0,0.0,0.0,0.0,0.0,0.0,0.0,0.0,0.0,0.0,0.0,0.0,0.0,0.0,0.0,0.0,0.0,0.0,0.0,0.0,0.0,0.0,0.0,0.0,0.0,0.0,0.0,0.0,0.0,0.0,0.0,0.0,0.0,0.0,0.0,0.0,0.0,0.0,0.0,0.0,0.0,0.0,0.0,0.0,0.0,0.0,0.0,0.0,0.0308,0.1735,0.2854,0.3943,0.5369,0.6457,0.721,0.721,0.721,0.721,0.721,0.723,0.7316,0.7462,0.7627,0.7799,0.7878,0.7903,0.7903,0.7903,0.7903,0.7903,0.7903,0.7903,0.7903,0.7903,0.7903,0.7903,0.7903,0.7903,0.7903,0.7903,0.5379,0.3905,0.3905,0.1387,0.0,0.0,0.0,0.0,0.0,0.0,0.0,0.0,0.0,0.0,0.0,0.0,0.0,0.0,0.0673,0.0,0.0,0.0,0.0,0.0,0.0,0.0,0.0,0.0,0.0,0.0,0.0,0.0,0.0,0.0,0.0,0.0,0.0,0.0,0.0,0.0,0.0,0.0,0.0,0.0,0.0,0.0,0.0,0.0,0.0,0.0,0.0,0.0,0.0,0.0,0.0,0.0,0.0,0.0,0.0,0.0,0.0,0.0,0.0,0.0,0.0,0.0,0.0,0.0,0.0,0.0,0.0,0.0,0.0,0.0,0.0,0.0,0.0,0.0,0.0,0.0,0.0476,0.2742,0.3497,0.4111,0.6399,0.7099,0.721,0.721,0.721,0.721,0.721,0.7193,0.7269,0.7472,0.776,0.7962,0.7892,0.7903,0.7903,0.7903,0.7903,0.7903,0.7903,0.7903,0.7903,0.7903,0.7903,0.7903,0.7903,0.7903,0.7903,0.7903,0.5379,0.3905,0.3905,0.1387,0.0,0.0,0.0,0.0,0.0,0.0,0.0,0.0,0.0,0.0,0.0,0.0,0.0,0.0,0.0,0.0,0.0269,0.0,0.0,0.0,0.0,0.0,0.0,0.0,0.0,0.0,0.0,0.0,0.0,0.0,0.0,0.0,0.0,0.0,0.0,0.0,0.0,0.0,0.0,0.0,0.0,0.0,0.0,0.0,0.0,0.0,0.0,0.0,0.0,0.0,0.0,0.0,0.0,0.0,0.0,0.0,0.0,0.0,0.0,0.0,0.0,0.0,0.0,0.0,0.0,0.0,0.0,0.0,0.0,0.0,0.0,0.0,0.0,0.0,0.0,0.0476,0.14,0.3106,0.4111,0.5033,0.6763,0.721,0.721,0.721,0.721,0.7238,0.7407,0.7324,0.7346,0.7809,0.7962,0.8066,0.8279,0.8405,0.8485,0.8485,0.8485,0.8485,0.8485,0.8485,0.8394,0.8214,0.8363,0.8333,0.7933,0.8089,0.8119,0.7903,0.5379,0.3569,0.2833,0.0987,0.0,0.0,0.0,0.0,0.0,0.0,0.0,0.0,0.0,0.0,0.1143,0.0,0.0,0.0,0.0,0.0,0.0,0.0,0.0,0.0,0.0,0.0,0.0,0.0,0.0,0.0,0.0,0.0,0.0,0.0,0.0,0.0,0.0,0.0,0.0,0.0,0.0,0.0,0.0,0.0,0.0,0.0,0.0,0.0,0.0,0.0,0.0,0.0,0.0,0.0,0.0,0.0,0.0,0.0,0.0,0.0,0.0,0.0,0.0,0.0,0.0196,0.0504,0.0504,0.07,0.0896,0.0252,0.0,0.0,0.0,0.0,0.0,0.0,0.0,0.0,0.0,0.0616,0.1623,0.316,0.4222,0.5258,0.6791,0.721,0.721,0.7296,0.7265,0.7268,0.7551,0.7438,0.7471,0.7995,0.8184,0.8345,0.8682,0.8823,0.8885,0.8885,0.8885,0.8885,0.8885,0.8885,0.8793,0.8552,0.8763,0.8702,0.8208,0.8397,0.8244,0.7533,0.5565,0.3724,0.2065,0.108,0.037,0.0,0.0,0.0,0.0,0.0,0.0,0.0,0.0,0.0,0.0,0.0,0.0,0.0718,0.0,0.0,0.0,0.0,0.0,0.0,0.0,0.0,0.0,0.0,0.0,0.0,0.0,0.0,0.0,0.0,0.0,0.0,0.0,0.0,0.0,0.0,0.0,0.0,0.0,0.0,0.0,0.0,0.0,0.0,0.0,0.0,0.0,0.0,0.0,0.0,0.0,0.0,0.0,0.0,0.0,0.0,0.0,0.0,0.0,0.0,0.07,0.1735,0.1735,0.2463,0.3189,0.0868,0.0,0.0,0.0,0.0,0.0,0.0,0.0,0.0,0.0,0.0028,0.056,0.2938,0.3636,0.4195,0.6594,0.721,0.7265,0.7521,0.7379,0.7268,0.7551,0.7607,0.7642,0.7791,0.8385,0.8903,0.9067,0.8971,0.8885,0.8885,0.8885,0.8885,0.8885,0.8885,0.8885,0.8885,0.8885,0.8885,0.8885,0.8885,0.8177,0.6545,0.6057,0.4677,0.2096,0.1973,0.1326,0.0031,0.0,0.0,0.0,0.0,0.0,0.0,0.0,0.0,0.0,0.0,0.0538,0.0673,0.0,0.0,0.0,0.0,0.0,0.0,0.0,0.0,0.0,0.0,0.0,0.0,0.0,0.0,0.0,0.0,0.0,0.0,0.0,0.0,0.0,0.0,0.0,0.0,0.0,0.0,0.0,0.0,0.0,0.0,0.0,0.0,0.0,0.0,0.0,0.0,0.0,0.0,0.0,0.0,0.0,0.0,0.0,0.0,0.0,0.0,0.0252,0.0616,0.0616,0.1344,0.2323,0.1484,0.1204,0.1064,0.028,0.0,0.0,0.0,0.0,0.014,0.0953,0.1875,0.2935,0.439,0.5481,0.6429,0.724,0.7465,0.7521,0.7795,0.7795,0.7823,0.8128,0.8017,0.8005,0.8441,0.8727,0.8991,0.9241,0.942,0.9491,0.9491,0.9491,0.9491,0.9491,0.9491,0.9396,0.9186,0.9366,0.9339,0.8946,0.8705,0.8336,0.775,0.6582,0.5107,0.3324,0.2434,0.1357,0.0031,0.0,0.0,0.0,0.0,0.0,0.0,0.0,0.0,0.0413,0.0365,0.0,0.0544,0.0428,0.0,0.0381,0.0,0.0,0.0,0.0,0.0,0.0,0.0,0.0,0.0,0.0,0.0,0.0,0.0,0.0,0.0,0.0,0.0,0.0,0.0,0.0,0.0,0.0,0.0,0.0,0.0,0.0,0.0,0.0,0.0,0.0,0.0,0.0,0.0,0.0,0.0,0.0,0.0,0.0,0.0,0.0,0.0,0.0,0.0,0.0252,0.0672,0.112,0.2015,0.2965,0.2127,0.1791,0.1679,0.0896,0.0364,0.0084,0.0616,0.0784,0.1036,0.235,0.3438,0.4385,0.5421,0.6399,0.7238,0.7632,0.7743,0.7826,0.81,0.81,0.81,0.8429,0.8318,0.8294,0.8685,0.8879,0.9089,0.9342,0.9585,0.9734,0.9785,0.9792,0.9792,0.9792,0.9792,0.9731,0.9488,0.967,0.964,0.9247,0.8824,0.8583,0.8583,0.735,0.5996,0.4674,0.3817,0.2779,0.1491,0.0959,0.0711,0.0746,0.0248,0.0,0.0,0.0,0.0]},{"header":{"parameterUnit":"m.s-1","parameterCategory":1,"la1":30.6,"la2":29.2853,"lo1":-89.7004,"lo2":-87.6739,"dy":0.0162,"dx":0.0183,"nx":112,"ny":82,"refTime":"2023-09-23T06:00:00:Z","depth":0,"parameterNumber":3,"parameterNumberName":"V-component_of_WINDS"},"data":[0.0,0.0,0.0,0.0,0.0,0.0,0.0,0.0,0.0,0.0,0.0,0.0,0.0,0.0,0.0,0.0,0.0,0.0,0.0,0.0,0.0,0.0,0.0,0.0,0.0,0.0,0.0,0.0,0.0,0.0,0.0,0.0,0.0,0.0,0.0,0.0,0.0,0.0,0.0,0.0,0.0,0.0,0.0,0.0,0.0,0.0,0.0,0.0,0.0,0.0,0.0,0.0,0.0,0.0,0.0,0.0,0.0,0.0,0.0,0.0,0.0,0.0,0.0,0.0,0.0,0.0,0.0,0.0,0.0,0.0,0.0,0.0,0.0,0.0,0.0,0.0,0.0,0.0,0.0,0.0,0.0,0.0,0.0,0.0,0.0,0.0,0.0,0.0,0.0,0.0,3.6601,3.7408,3.8096,3.8497,3.8497,3.8496,3.85,3.85,0.0,0.0,0.0,0.0,0.0,0.0,0.0,0.0,0.0,0.0,0.0,0.0,0.0,0.0,0.0,0.0,0.0,0.0,0.0,0.0,0.0,0.0,0.0,0.0,0.0,0.0,0.0,0.0,0.0,0.0,0.0,0.0,0.0,0.0,0.0,0.0,0.0,0.0,0.0,0.0,0.0,0.0,0.0,0.0,0.0,0.0,0.0,0.0,0.0,0.0,0.0,0.0,0.0,0.0,0.0,0.0,0.0,0.0,0.0,0.0,0.0,0.0,0.0,0.0,0.0,0.0,0.0,0.0,0.0,0.0,0.0,0.0,0.0,0.0,0.0,0.0,0.0,0.0,0.0,0.0,0.0,0.0,0.0,0.0,0.0,0.0,0.0,0.0,0.0,0.0,0.0,0.0,0.0,0.0,0.0,0.0,0.0,0.0,0.0,0.0,0.0,0.0,0.0,0.0,3.8167,3.83,3.8421,3.8497,3.8497,3.8496,3.85,3.85,0.0,0.0,0.0,0.0,0.0,0.0,0.0,0.0,0.0,0.0,0.0,0.0,0.0,0.0,0.0,0.0,0.0,0.0,0.0,0.0,0.0,0.0,0.0,0.0,0.0,0.0,0.0,0.0,0.0,0.0,0.0,0.0,0.0,0.0,0.0,0.0,0.0,0.0,0.0,0.0,0.0,0.0,0.0,0.0,0.0,0.0,0.0,0.0,0.0,0.0,0.0,0.0,0.0,0.0,0.0,0.0,0.0,0.0,0.0,0.0,0.0,0.0,0.0,0.0,0.0,0.0,0.0,0.0,0.0,0.0,0.0,0.0,0.0,0.0,0.0,0.0,0.0,0.0,0.0,0.0,0.0,0.0,0.0,0.0,0.0,0.0,0.0,0.0,0.0,0.0,0.0,0.0,0.0,0.0,0.0,0.0,0.0,0.0,0.0,0.0,0.0,0.0,0.0,3.8688,3.9197,3.9193,3.9624,3.9902,3.9902,3.9901,3.9904,3.9904,3.991,0.0,0.0,0.0,0.0,0.0,0.0,0.0,0.0,0.0,0.0,0.0,0.0,0.0,0.0,0.0,0.0,0.0,0.0,0.0,0.0,0.0,0.0,0.0,0.0,0.0,0.0,0.0,0.0,0.0,0.0,0.0,0.0,0.0,0.0,0.0,0.0,0.0,0.0,0.0,0.0,0.0,0.0,0.0,0.0,0.0,0.0,0.0,0.0,0.0,0.0,0.0,0.0,0.0,0.0,0.0,0.0,0.0,0.0,0.0,0.0,0.0,0.0,0.0,0.0,0.0,0.0,0.0,0.0,0.0,0.0,0.0,0.0,0.0,0.0,0.0,0.0,0.0,0.0,0.0,0.0,0.0,0.0,0.0,0.0,0.0,0.0,0.0,0.0,0.0,0.0,0.0,0.0,0.0,0.0,0.0,0.0,0.0,0.0,0.0,0.0,0.0,0.0,3.9725,4.0112,4.0115,4.0709,4.1094,4.1094,4.1092,4.1096,4.1096,4.1099,0.0,0.0,0.0,0.0,0.0,0.0,0.0,0.0,0.0,0.0,0.0,0.0,0.0,0.0,0.0,0.0,0.0,0.0,0.0,0.0,0.0,0.0,0.0,0.0,0.0,0.0,0.0,0.0,0.0,0.0,0.0,0.0,0.0,0.0,0.0,0.0,0.0,0.0,0.0,0.0,0.0,0.0,0.0,0.0,0.0,0.0,0.0,0.0,0.0,0.0,0.0,0.0,0.0,0.0,0.0,0.0,0.0,0.0,0.0,0.0,0.0,0.0,0.0,0.0,0.0,0.0,0.0,0.0,0.0,0.0,0.0,0.0,0.0,0.0,0.0,0.0,0.0,0.0,0.0,0.0,0.0,0.0,0.0,0.0,0.0,0.0,0.0,0.0,0.0,0.0,0.0,0.0,0.0,0.0,0.0,0.0,0.0,0.0,0.0,0.0,0.0,0.0,4.0973,4.1014,4.1012,4.1061,4.1094,4.1094,4.1092,4.1096,4.1096,4.1099,0.0,0.0,0.0,0.0,0.0,0.0,0.0,0.0,0.0,0.0,0.0,0.0,0.0,0.0,0.0,0.0,0.0,0.0,0.0,0.0,0.0,0.0,0.0,0.0,0.0,0.0,0.0,0.0,0.0,0.0,0.0,0.0,0.0,0.0,0.0,0.0,0.0,0.0,0.0,0.0,0.0,0.0,0.0,0.0,0.0,0.0,0.0,0.0,0.0,0.0,0.0,0.0,0.0,0.0,0.0,0.0,0.0,0.0,0.0,0.0,0.0,0.0,0.0,0.0,0.0,0.0,0.0,0.0,0.0,0.0,0.0,0.0,0.0,0.0,0.0,0.0,0.0,0.0,0.0,0.0,0.0,0.0,0.0,0.0,0.0,0.0,0.0,0.0,0.0,0.0,0.0,0.0,0.0,0.0,0.0,0.0,0.0,0.0,0.0,0.0,0.0,0.0,4.1092,4.1106,0.0,4.1106,4.1101,4.1094,4.1098,4.1104,4.1096,0.0,0.0,0.0,0.0,0.0,0.0,0.0,0.0,0.0,0.0,0.0,0.0,0.0,0.0,0.0,0.0,0.0,0.0,0.0,0.0,0.0,0.0,0.0,0.0,0.0,0.0,0.0,0.0,0.0,0.0,0.0,0.0,0.0,0.0,0.0,0.0,0.0,0.0,0.0,0.0,0.0,0.0,0.0,0.0,0.0,0.0,0.0,0.0,0.0,0.0,0.0,0.0,0.0,0.0,0.0,0.0,0.0,0.0,0.0,0.0,0.0,0.0,0.0,0.0,0.0,0.0,0.0,0.0,0.0,0.0,0.0,0.0,0.0,0.0,0.0,0.0,0.0,0.0,0.0,0.0,0.0,0.0,0.0,0.0,0.0,0.0,0.0,0.0,0.0,0.0,0.0,0.0,0.0,0.0,0.0,0.0,0.0,0.0,0.0,0.0,0.0,0.0,4.1092,4.109,4.1107,0.0,4.1104,4.11,4.1108,4.1096,4.1104,4.1096,0.0,0.0,0.0,0.0,0.0,0.0,0.0,0.0,0.0,0.0,0.0,0.0,0.0,0.0,0.0,0.0,0.0,0.0,0.0,0.0,0.0,0.0,0.0,0.0,0.0,0.0,0.0,0.0,0.0,0.0,0.0,0.0,0.0,0.0,0.0,0.0,0.0,0.0,0.0,0.0,0.0,0.0,0.0,0.0,0.0,0.0,0.0,0.0,0.0,0.0,0.0,0.0,0.0,0.0,0.0,0.0,0.0,0.0,0.0,0.0,0.0,0.0,0.0,0.0,0.0,0.0,0.0,0.0,0.0,0.0,0.0,0.0,0.0,0.0,0.0,0.0,0.0,0.0,0.0,0.0,0.0,0.0,0.0,0.0,0.0,0.0,0.0,0.0,0.0,0.0,0.0,0.0,0.0,0.0,0.0,0.0,0.0,0.0,0.0,0.0,0.0,0.0,4.1091,4.1101,4.1105,4.1095,4.1094,4.1108,4.1095,4.1103,4.1096,0.0,0.0,0.0,0.0,0.0,0.0,0.0,0.0,0.0,0.0,0.0,0.0,0.0,0.0,0.0,0.0,0.0,0.0,0.0,0.0,0.0,0.0,0.0,0.0,0.0,0.0,0.0,0.0,0.0,0.0,0.0,0.0,0.0,0.0,0.0,0.0,0.0,0.0,0.0,0.0,0.0,0.0,0.0,0.0,0.0,0.0,0.0,0.0,0.0,0.0,0.0,0.0,0.0,0.0,0.0,0.0,0.0,0.0,0.0,0.0,0.0,0.0,0.0,0.0,0.0,0.0,0.0,0.0,0.0,0.0,0.0,0.0,0.0,0.0,0.0,0.0,0.0,0.0,0.0,0.0,0.0,0.0,0.0,0.0,0.0,0.0,0.0,0.0,0.0,0.0,0.0,0.0,0.0,0.0,0.0,0.0,0.0,0.0,0.0,0.0,0.0,0.0,0.0,4.11,4.1093,4.1108,4.1105,4.1104,4.11,4.1109,4.1096,4.1104,4.1096,0.0,0.0,0.0,0.0,0.0,0.0,0.0,0.0,0.0,0.0,0.0,0.0,0.0,0.0,0.0,0.0,0.0,0.0,0.0,0.0,0.0,0.0,0.0,0.0,0.0,0.0,0.0,0.0,0.0,0.0,0.0,0.0,0.0,0.0,0.0,0.0,0.0,0.0,0.0,0.0,0.0,0.0,0.0,0.0,0.0,0.0,0.0,0.0,0.0,0.0,0.0,0.0,0.0,0.0,0.0,0.0,0.0,0.0,0.0,0.0,0.0,0.0,0.0,0.0,0.0,0.0,0.0,0.0,0.0,0.0,0.0,0.0,0.0,0.0,0.0,0.0,0.0,0.0,0.0,0.0,0.0,0.0,0.0,0.0,0.0,0.0,0.0,0.0,0.0,0.0,0.0,0.0,0.0,0.0,0.0,0.0,0.0,0.0,0.0,0.0,0.0,0.0,4.1105,4.1107,4.1108,4.1104,4.1099,4.1093,4.11,4.1106,4.1094,4.1106,0.0,0.0,0.0,0.0,0.0,0.0,0.0,0.0,0.0,0.0,0.0,0.0,0.0,0.0,0.0,0.0,0.0,0.0,0.0,0.0,0.0,0.0,0.0,0.0,0.0,0.0,0.0,0.0,0.0,0.0,0.0,0.0,0.0,0.0,0.0,0.0,0.0,0.0,0.0,0.0,0.0,0.0,0.0,0.0,0.0,0.0,0.0,0.0,0.0,0.0,0.0,0.0,0.0,0.0,0.0,0.0,0.0,0.0,0.0,0.0,0.0,0.0,0.0,0.0,0.0,0.0,0.0,0.0,0.0,0.0,0.0,0.0,0.0,0.0,0.0,0.0,0.0,0.0,0.0,0.0,0.0,0.0,0.0,0.0,0.0,0.0,0.0,0.0,0.0,0.0,0.0,0.0,0.0,0.0,0.0,0.0,0.0,0.0,0.0,0.0,0.0,0.0,4.1096,4.1104,4.1105,4.1096,4.1104,4.1091,4.11,4.1103,4.1091,4.1091,0.0,0.0,0.0,0.0,0.0,0.0,0.0,0.0,0.0,0.0,0.0,0.0,0.0,0.0,0.0,0.0,0.0,0.0,0.0,0.0,0.0,0.0,0.0,0.0,0.0,0.0,0.0,0.0,0.0,0.0,0.0,0.0,0.0,0.0,0.0,0.0,0.0,0.0,0.0,0.0,0.0,0.0,0.0,0.0,0.0,0.0,0.0,0.0,0.0,0.0,0.0,0.0,0.0,0.0,0.0,0.0,0.0,0.0,0.0,0.0,3.4,0.0,0.0,0.0,0.0,0.0,0.0,0.0,0.0,0.0,0.0,0.0,0.0,0.0,0.0,0.0,0.0,0.0,0.0,0.0,0.0,0.0,0.0,0.0,0.0,0.0,0.0,0.0,0.0,0.0,0.0,0.0,0.0,0.0,0.0,0.0,0.0,0.0,0.0,0.0,0.0,0.0,4.1105,4.1108,4.1108,4.1106,4.1096,4.1108,4.1106,4.1106,4.1091,4.1091,4.1097,0.0,0.0,0.0,0.0,0.0,0.0,0.0,0.0,0.0,0.0,0.0,0.0,0.0,0.0,0.0,0.0,0.0,0.0,0.0,0.0,0.0,0.0,0.0,0.0,0.0,0.0,0.0,0.0,0.0,0.0,0.0,0.0,0.0,0.0,0.0,0.0,0.0,0.0,0.0,0.0,0.0,0.0,0.0,0.0,0.0,0.0,0.0,0.0,0.0,0.0,0.0,0.0,0.0,0.0,0.0,0.0,0.0,0.0,0.0,0.0,3.5247,0.0,0.0,0.0,0.0,0.0,0.0,0.0,0.0,0.0,0.0,0.0,0.0,0.0,0.0,0.0,0.0,0.0,0.0,0.0,0.0,0.0,0.0,0.0,0.0,0.0,0.0,0.0,0.0,0.0,0.0,0.0,0.0,0.0,0.0,0.0,0.0,0.0,0.0,0.0,0.0,4.1108,4.1109,4.1263,4.1687,4.1717,4.1883,4.2266,4.2305,4.229,4.229,4.2302,0.0,0.0,0.0,0.0,0.0,0.0,0.0,0.0,0.0,0.0,0.0,0.0,0.0,0.0,0.0,0.0,0.0,0.0,0.0,0.0,0.0,0.0,0.0,0.0,0.0,0.0,0.0,0.0,0.0,0.0,0.0,0.0,0.0,0.0,0.0,0.0,0.0,0.0,0.0,0.0,0.0,0.0,0.0,0.0,0.0,0.0,0.0,0.0,0.0,0.0,0.0,0.0,0.0,3.7429,3.7799,3.85,3.85,3.852,3.8481,3.7908,3.7596,3.7562,3.8226,0.0,0.0,0.0,0.0,0.0,0.0,0.0,0.0,0.0,0.0,0.0,0.0,0.0,0.0,0.0,0.0,0.0,0.0,0.0,0.0,0.0,0.0,0.0,0.0,4.1096,4.1094,0.0,0.0,0.0,0.0,0.0,0.0,0.0,0.0,0.0,0.0,0.0,0.0,4.1323,4.146,4.1827,4.2559,4.2628,4.291,4.3558,4.3622,4.3611,4.3608,4.3606,4.3275,0.0,0.0,0.0,0.0,0.0,0.0,0.0,0.0,0.0,0.0,0.0,0.0,0.0,0.0,0.0,0.0,0.0,0.0,0.0,0.0,0.0,0.0,0.0,0.0,0.0,0.0,0.0,0.0,0.0,0.0,0.0,0.0,3.3269,3.3371,0.0,0.0,0.0,0.0,0.0,0.0,0.0,0.0,0.0,0.0,0.0,0.0,0.0,3.8008,3.8005,3.8103,3.8221,3.8339,3.8339,3.8398,3.8495,3.8561,3.859,3.8629,3.9192,0.0,3.8341,3.8456,0.0,0.0,0.0,0.0,0.0,0.0,0.0,0.0,0.0,0.0,0.0,0.0,0.0,0.0,0.0,0.0,0.0,0.0,0.0,0.0,0.0,0.0,4.1107,4.1107,4.1107,4.1107,0.0,4.1101,4.1099,4.1106,4.1099,0.0,0.0,0.0,0.0,0.0,0.0,0.0,4.2239,4.2884,4.3391,4.3527,4.3538,4.357,4.3684,4.3695,4.3664,4.3592,4.359,4.3544,4.3426,4.3426,0.0,0.0,0.0,0.0,0.0,0.0,0.0,0.0,0.0,0.0,0.0,0.0,0.0,0.0,0.0,0.0,0.0,0.0,0.0,0.0,0.0,0.0,0.0,0.0,0.0,0.0,0.0,0.0,0.0,3.4121,3.4301,3.4793,3.4861,3.5058,0.0,0.0,0.0,0.0,0.0,0.0,0.0,0.0,0.0,3.7935,3.8301,3.8504,3.8508,3.8508,3.8722,3.9169,3.9169,3.9424,3.9913,3.9939,3.9941,3.996,4.0369,4.0307,3.9953,3.9953,3.9963,3.9965,0.0,0.0,0.0,0.0,4.0228,4.0537,4.0521,4.0774,0.0,4.1108,0.0,0.0,0.0,0.0,0.0,0.0,0.0,0.0,0.0,0.0,4.1109,4.1109,4.1109,4.1109,4.1109,4.1105,4.1104,0.0,4.1105,4.126,4.1751,0.0,0.0,0.0,0.0,4.3138,4.3138,4.3451,4.3897,4.4379,4.4432,4.4603,4.5065,4.5119,4.509,4.5055,4.5055,4.4832,4.4346,4.4325,4.409,0.0,0.0,0.0,0.0,0.0,0.0,0.0,0.0,0.0,0.0,0.0,0.0,0.0,0.0,0.0,0.0,0.0,0.0,0.0,0.0,0.0,0.0,0.0,0.0,0.0,0.0,0.0,0.0,3.5224,3.56,3.6236,3.6498,3.6892,0.0,0.0,0.0,0.0,0.0,0.0,3.8477,3.8689,3.8806,3.8806,3.9012,3.9135,3.9135,3.9135,3.9449,4.0035,4.0027,4.0379,4.0997,4.1022,4.1027,4.1023,4.1074,4.1092,4.1091,4.1092,4.1103,4.1108,4.1101,4.1103,4.1109,4.1109,4.1109,4.1109,4.1109,4.1109,4.1109,4.1109,4.1109,4.1109,4.1109,0.0,0.0,0.0,0.0,4.1109,4.1109,4.1109,4.1109,4.1109,4.1109,4.1167,4.1382,4.1421,4.1362,0.0,4.1284,4.1635,4.2298,0.0,0.0,0.0,0.0,4.4036,4.4036,4.4232,4.4619,4.5254,4.5331,4.5581,4.618,4.6237,4.6231,4.6237,4.6235,4.5934,4.5251,4.5232,4.4934,4.4285,0.0,0.0,0.0,0.0,0.0,0.0,0.0,0.0,0.0,0.0,0.0,0.0,0.0,0.0,0.0,0.0,0.0,0.0,0.0,0.0,0.0,0.0,0.0,0.0,0.0,0.0,0.0,0.0,0.0,3.7148,3.7871,0.0,0.0,0.0,0.0,3.8408,3.8401,3.8413,3.8404,3.9192,3.9637,3.9637,4.0434,4.0878,4.0878,4.0878,4.0898,4.0938,4.0934,4.0952,4.1003,4.1074,4.1087,4.1094,4.1103,4.1092,4.1092,4.1109,4.1108,4.1109,4.1108,4.1108,4.1109,4.1109,4.1109,4.1109,4.1109,4.1109,4.1109,4.1109,4.1109,4.1109,4.1109,4.1109,0.0,0.0,4.1109,4.1109,4.1109,4.1109,4.1109,4.1109,4.1109,4.1323,4.2162,4.2337,4.2084,0.0,4.1771,4.2356,4.2395,0.0,4.3646,4.3685,4.4406,4.4933,4.4933,4.5656,4.6183,4.6222,4.6222,4.6241,4.6299,4.6299,4.6295,4.6284,4.6283,4.6253,4.6146,4.6125,4.6117,4.6061,4.5262,0.0,0.0,0.0,0.0,0.0,0.0,0.0,0.0,0.0,0.0,0.0,0.0,0.0,0.0,0.0,0.0,0.0,0.0,0.0,0.0,0.0,0.0,0.0,0.0,0.0,0.0,0.0,0.0,3.8036,3.8307,0.0,3.9223,3.927,3.9487,3.9963,3.9969,3.9942,3.9946,4.0235,4.0409,4.0409,4.0718,4.0873,4.0873,4.0873,4.0873,4.0873,4.087,4.0898,4.094,4.0952,4.0981,4.1033,4.1073,4.1093,4.1093,4.1099,4.1109,4.1109,4.1109,4.1109,4.1109,4.1109,4.1109,4.1109,4.1109,4.1109,4.1109,4.1109,4.1109,4.1109,4.1109,4.1109,4.1109,4.1109,4.1109,4.1109,4.1109,4.1518,4.1947,4.1947,4.2377,4.2865,4.3178,4.3235,4.3138,4.2826,4.3021,4.3411,4.3976,4.4327,4.4738,4.5286,4.5636,4.5831,4.5831,4.6105,4.6301,4.6301,4.6301,4.6301,4.6301,4.6301,4.6296,4.6306,4.6305,4.6277,4.6201,4.6199,4.6192,4.6196,4.5884,4.5742,0.0,0.0,0.0,0.0,0.0,0.0,0.0,0.0,0.0,0.0,0.0,0.0,0.0,0.0,0.0,0.0,0.0,0.0,0.0,0.0,0.0,0.0,0.0,0.0,0.0,0.0,3.8895,3.89,3.9147,3.9525,4.0043,4.0087,4.0298,4.0833,4.0829,4.0807,4.0807,4.0807,4.0807,4.0807,4.0807,4.0807,4.0807,4.0807,4.0807,4.0809,4.0827,4.0842,4.0874,4.0901,4.0961,4.1002,4.1069,4.1094,4.1094,4.1105,4.1097,4.1096,4.1091,4.1109,4.1109,4.1109,4.1109,4.1109,4.1109,4.1109,4.1109,4.1109,4.1109,4.1109,4.1109,4.1304,4.1538,4.1538,4.1753,4.1987,4.1987,4.2416,4.2845,4.2845,4.3274,4.3783,4.4075,4.4133,4.4231,4.4524,4.4349,4.4328,4.4894,4.5245,4.5636,4.6203,4.6301,4.6301,4.6301,4.6301,4.6301,4.6301,4.6301,4.6417,4.671,4.6749,4.6844,4.713,4.6895,4.6714,4.6643,4.6643,4.6636,4.6641,4.6641,4.65,4.6196,0.0,0.0,0.0,0.0,0.0,0.0,0.0,0.0,0.0,0.0,0.0,0.0,0.0,0.0,0.0,0.0,0.0,0.0,0.0,0.0,0.0,0.0,0.0,3.8807,3.9245,3.9739,3.9742,4.0425,4.0892,4.0893,4.084,4.0807,4.0804,4.0804,4.0804,4.0804,4.0804,4.0804,4.0804,4.0804,4.0804,4.0804,4.0823,4.0843,4.0846,4.0926,4.0943,4.09,4.102,4.1073,4.1082,4.1152,4.1187,4.1186,4.1186,4.1185,4.1185,4.1115,4.1109,4.1109,4.1109,4.1109,4.1109,4.1129,4.1147,4.1148,4.1168,4.1187,4.1187,4.1187,4.1771,4.2434,4.2434,4.304,4.3705,4.3705,4.3724,4.3744,4.3744,4.3763,4.4017,4.4855,4.505,4.5284,4.6144,4.5617,4.505,4.505,4.5734,4.6301,4.6301,4.632,0.0,4.634,4.6359,4.6379,4.6379,4.6379,4.6729,4.7568,4.7646,4.7978,4.8759,4.8075,4.7602,4.7533,4.7533,4.7546,4.7532,4.7532,4.7123,4.6285,0.0,0.0,0.0,0.0,0.0,0.0,0.0,0.0,0.0,0.0,0.0,0.0,0.0,0.0,0.0,0.0,0.0,0.0,0.0,0.0,0.0,0.0,4.0779,4.0371,4.0452,4.0565,4.0576,4.0721,4.0824,4.0826,4.0815,4.0803,4.0802,4.0802,4.0802,4.0802,4.0802,4.0802,4.0802,4.0802,4.0802,4.0802,4.1379,4.167,4.1689,4.2323,4.2654,4.2686,4.2726,4.278,4.2818,4.2888,4.2904,4.2924,4.2968,4.2982,4.2865,4.1588,4.1096,4.1095,4.1091,4.1109,4.1187,4.181,4.2045,4.2142,4.2787,4.2982,4.2982,4.2982,4.3158,4.3334,4.3334,4.3529,4.3705,4.3705,4.4172,4.464,4.464,4.5129,4.5657,4.589,4.5948,4.6007,4.6242,4.6105,4.5948,4.5948,4.6144,4.6301,4.6301,4.6846,0.0,4.7236,4.7744,4.8115,4.8115,4.8115,4.8213,4.8447,4.8466,4.8564,4.8798,4.8584,4.8465,4.8443,4.8443,4.8438,4.8446,4.8436,4.8315,0.0,0.0,0.0,0.0,0.0,0.0,0.0,0.0,0.0,0.0,0.0,0.0,0.0,0.0,0.0,0.0,0.0,0.0,0.0,0.0,0.0,0.0,4.0877,4.0868,4.0917,4.0872,4.0861,4.0858,4.0823,4.0798,4.0797,4.0805,4.0793,4.0797,4.0797,4.0797,4.0797,4.1122,4.1296,4.1296,4.1664,4.1857,4.1857,4.2318,4.2531,4.255,4.3053,4.3321,4.3352,4.3399,4.3413,4.3451,4.3536,4.3575,4.3592,4.3648,4.3672,0.0,0.0,0.0,0.0,0.0,4.2188,4.2265,4.2768,4.2942,4.3021,4.3548,4.3705,4.3705,4.3705,4.3958,4.4231,4.4231,4.4505,4.4798,4.4798,4.5168,4.5539,4.5539,4.5929,4.6301,4.6301,4.6593,4.6846,4.6846,4.712,0.0,4.7354,4.7061,4.6963,4.7295,4.7783,4.8095,4.8095,4.8505,4.8798,4.8798,4.8798,4.8954,4.9305,4.9344,0.0,0.0,0.0,4.9344,4.9344,4.9344,0.0,0.0,0.0,4.915,4.88,0.0,0.0,0.0,4.7288,4.7284,0.0,0.0,0.0,0.0,0.0,0.0,0.0,0.0,0.0,0.0,0.0,0.0,0.0,0.0,0.0,0.0,4.0801,4.0801,4.0798,4.0798,4.0798,4.0801,4.0792,4.0791,4.0791,4.0809,4.0832,4.0929,4.0948,4.0987,4.1084,0.0,0.0,0.0,0.0,4.3301,4.3301,4.3398,4.3456,4.3456,4.3537,4.3576,4.3579,4.3649,4.3671,4.3679,4.3759,4.3814,4.3863,4.3888,4.3911,4.3965,4.3767,4.3705,4.3705,4.37,4.3698,4.3717,4.3808,0.0,0.0,4.396,4.3999,4.3999,4.3997,4.4524,4.5147,4.5147,4.5695,4.6301,4.6301,4.6301,4.632,4.6417,4.6456,4.6475,4.6554,4.7198,4.7743,4.7743,4.831,4.8837,4.8935,4.827,4.7978,4.8681,4.8876,4.8954,4.8954,4.9032,4.9091,4.9091,0.0,0.0,5.0182,5.0241,5.0574,5.1355,5.0671,5.0241,5.0241,5.0241,5.0241,5.0241,5.0241,4.9871,4.9091,4.9082,4.9082,4.9091,4.8894,4.8804,0.0,0.0,0.0,0.0,0.0,0.0,0.0,0.0,0.0,0.0,0.0,0.0,0.0,0.0,0.0,4.0792,4.0806,4.08,4.0796,4.0793,4.0802,4.0803,4.0802,4.0803,4.0803,4.08,4.1064,4.1719,4.1777,4.2067,4.2783,4.2957,4.3053,4.3053,4.3205,4.3301,4.3301,4.3998,4.4346,4.4365,0.0,0.0,4.532,4.5328,4.5338,4.5344,4.5453,4.5512,4.5538,4.5588,4.5666,4.5571,4.4238,4.3707,4.3705,4.3704,4.3704,4.3801,4.4503,4.4756,4.4853,4.557,4.5803,4.5802,4.5795,4.591,0.0,4.6046,4.6163,4.6301,4.6301,4.6301,4.6475,4.7177,4.7353,4.7529,4.8174,4.8447,4.8564,4.8564,4.8681,4.9013,4.9734,4.9149,4.8623,4.8779,4.9402,4.9851,4.9851,5.0456,5.0906,5.0906,5.0906,5.0965,5.1121,5.116,5.1219,5.1394,5.1238,5.116,5.116,5.116,5.116,5.116,5.116,5.1063,5.0906,5.0904,5.0904,5.0866,4.946,4.8795,0.0,0.0,0.0,0.0,0.0,0.0,0.0,0.0,0.0,0.0,0.0,4.0847,0.0,0.0,4.0792,4.0802,4.0796,4.0793,4.0797,4.0797,4.08,4.0796,4.0803,4.0968,4.1354,4.1393,4.1757,4.2589,4.2647,4.2841,4.3282,4.3708,4.3959,4.3959,4.4349,4.4543,4.4543,4.4987,4.52,4.52,4.561,4.5803,4.5803,4.5803,4.5803,4.581,4.5861,4.5947,4.601,4.6066,4.6139,4.6127,4.5285,4.496,4.4998,4.4997,4.4997,4.5055,4.5502,4.5657,4.5715,4.6162,4.6297,4.6297,4.6294,4.6291,4.6307,4.6307,4.6616,4.6944,4.6944,4.7256,4.7666,4.8096,4.8192,4.831,4.8701,4.915,4.9441,4.9441,4.9794,5.0243,5.0671,5.0399,5.0106,5.0106,5.0476,5.0749,5.0749,5.112,5.1394,5.1394,5.1394,5.1394,5.1394,5.1394,5.1394,5.1394,5.1394,5.1394,5.1394,5.1394,5.1394,5.1394,5.1394,5.1394,5.1394,5.1394,5.1394,5.1375,5.0506,5.0097,0.0,0.0,0.0,0.0,0.0,0.0,0.0,0.0,4.0796,4.0793,4.079,4.0801,4.0794,4.0808,4.0802,4.08,4.0797,4.0797,4.0797,4.0929,4.1026,4.1026,4.1026,4.1354,4.2164,4.2241,4.2609,4.3495,4.3553,4.3611,4.3788,4.4442,4.4829,4.4829,4.5455,4.5803,4.5803,4.5803,4.5803,4.5803,4.5803,4.5881,4.6055,4.6055,4.6132,4.6306,4.6306,4.6374,4.6477,4.6545,4.65,4.6392,4.6401,4.6369,4.6288,4.6308,4.6307,4.6307,4.6305,4.6304,4.6304,4.6303,4.64,4.6557,4.6556,4.667,4.6803,4.6803,4.7304,4.7844,4.7844,4.8311,4.8837,4.9013,4.9052,4.9091,4.9267,4.9851,5.0358,5.0358,5.0925,5.1394,5.1394,5.1394,5.1394,5.1394,5.1394,5.1394,5.1394,5.1394,5.1394,5.1394,5.1394,5.1394,5.1394,5.1394,5.1394,5.1394,5.1394,5.1394,5.1394,5.1394,5.1394,5.1394,5.1394,5.1394,5.1394,5.1394,5.1394,5.1394,5.1394,5.1394,4.0513,4.0582,4.069,4.0787,4.0807,4.0801,0.0,0.0,4.0794,4.0793,4.0806,4.0806,4.08,4.08,4.08,4.0797,4.0797,4.0797,4.0797,4.1413,4.1874,4.1874,4.1874,4.2202,4.3073,4.3147,4.3514,4.4384,4.4442,4.4775,4.5474,4.561,4.5668,4.5668,4.5745,4.5803,4.5803,4.5803,4.5803,4.5803,4.5803,4.6209,4.6945,4.6945,4.7389,4.8101,4.8101,4.8112,4.8138,4.8193,4.7783,4.7087,4.7149,4.677,4.6212,4.6288,4.6308,4.6308,4.6308,4.6308,4.6308,4.6307,4.6814,4.7458,4.7455,4.8001,4.8606,4.8606,4.8679,4.8751,4.8751,4.8785,4.8993,4.9773,4.9948,5.0164,5.0945,5.1199,5.1258,5.1258,5.1336,5.1394,5.1394,5.1394,5.1394,5.1394,5.1394,5.1394,5.1394,5.1394,5.1394,5.1394,5.1394,5.1394,5.1394,5.1394,5.1394,5.1394,5.1394,5.1394,5.1394,5.1394,5.1394,5.1394,5.1394,5.1394,5.1394,5.1394,5.1394,5.1394,5.1394,5.1394,4.08,4.0794,0.0,0.0,4.0794,4.0791,4.0796,4.0793,4.0809,4.0797,4.0797,4.0797,4.0797,4.0797,4.0797,0.0,4.0797,4.0968,4.1432,4.1796,4.2376,4.3398,4.3514,4.365,4.4017,4.4056,4.4404,4.5239,4.5297,4.5455,4.5784,4.5803,4.5803,4.5803,4.5803,4.5803,4.5803,4.6306,4.6558,4.6558,4.708,4.7505,4.785,4.785,4.8063,4.8392,4.8392,4.8392,4.8395,4.8437,4.8254,4.7956,4.7981,4.7821,4.7486,4.6581,4.6598,4.7051,4.7051,4.7383,4.7812,4.7812,4.8066,4.8359,4.8358,4.8611,4.8903,4.8903,4.9232,4.9597,4.9593,4.9941,5.0408,5.0779,5.0857,5.0954,5.1325,5.1403,5.1402,5.1395,5.1394,5.1394,5.1394,5.1394,5.1394,5.1394,5.1394,5.1394,5.1394,5.1394,5.1394,5.1394,5.1394,5.1394,5.1394,5.1394,5.1394,5.1394,5.1394,5.1394,5.1394,5.1394,5.1394,5.1394,5.1394,5.1394,5.1394,5.1394,5.1394,5.1394,5.1394,5.1668,4.08,0.0,0.0,4.0797,4.0797,4.0797,4.0797,4.0797,4.0797,4.0797,4.0797,4.0797,4.0797,4.0797,4.0797,4.0797,4.0797,4.1084,4.1893,4.2202,4.2918,4.4423,4.4791,4.4926,4.4926,4.4926,4.5162,4.5765,4.5803,4.5803,4.5803,4.5803,4.5803,4.5803,4.6035,4.6151,4.6151,4.7022,4.7467,4.7467,4.8101,4.8527,4.8778,4.8991,4.9088,4.9088,4.9088,4.9088,4.9088,4.9088,4.8995,4.8829,4.8829,4.8727,4.8435,4.7252,4.7286,4.7881,4.7906,4.8318,4.8845,4.8886,4.9062,4.9258,4.9258,4.9414,4.9589,4.9589,5.0017,5.0462,5.0459,5.0925,5.1393,5.1393,5.1393,5.1393,5.1393,5.1393,5.1391,5.1403,5.1403,5.1403,5.1403,5.1403,5.1403,5.1403,5.1403,5.1401,5.1395,5.1394,5.1394,5.1394,5.1394,5.1394,5.1394,5.1394,5.1394,5.1394,5.1394,5.1511,5.1746,5.1765,5.1863,5.2117,5.2117,5.2117,5.2117,5.2117,5.2117,5.2117,5.2117,5.2468,4.0797,0.0,4.0797,4.0797,4.0797,4.0797,4.0797,4.0797,4.0797,4.0797,4.0797,4.0797,4.0797,4.0797,4.0797,4.0797,4.0797,4.1084,4.1893,4.2725,4.3592,4.4481,4.5297,4.5765,0.0,4.5765,4.5765,4.5803,4.5803,4.5803,4.5803,4.5803,4.5803,4.5803,4.6616,4.7061,4.7061,4.7927,4.8353,4.8353,4.8392,4.8836,4.9684,5.0476,5.0821,5.0821,5.0821,5.0821,5.0821,5.0821,5.0364,4.9652,4.9652,4.92,4.8497,4.8441,4.8492,4.8578,4.8644,4.8679,4.8725,4.8866,4.9473,5.0156,5.0156,5.0703,5.1328,5.1328,5.1347,5.1365,5.1365,5.1382,5.1398,5.1398,5.1398,5.1398,5.1398,5.1398,5.1398,5.1398,5.1398,5.1398,5.1398,5.1398,5.1398,5.1398,5.1398,5.1393,5.1396,5.1394,5.1394,5.1394,5.1394,5.1394,5.1394,5.1394,5.1394,5.1394,5.1394,5.1785,5.2625,5.2664,5.3054,5.3893,5.3912,5.3912,5.3912,5.3912,5.3912,5.3912,5.3912,5.3932,4.0797,0.0,4.0797,4.0797,4.0797,4.0797,4.0797,4.0797,4.0797,4.0797,4.0797,4.0797,4.0797,4.0797,4.0797,4.0797,4.0797,4.1277,4.2667,4.3131,4.3827,4.522,4.5649,0.0,0.0,0.0,0.0,4.5803,4.5803,4.5803,4.5803,4.6345,4.6654,4.6654,4.7505,4.7966,4.7966,4.8836,4.9262,4.9262,4.98,5.0206,5.0515,5.0786,5.0898,5.0898,5.0898,5.0898,5.0898,5.0898,5.0747,5.0496,5.0496,5.0333,5.0083,5.0083,5.0114,5.0067,4.9648,4.9871,5.0365,5.0405,5.065,5.0923,5.0923,5.1148,5.1406,5.1406,5.1406,5.1406,5.1405,5.1404,5.1403,5.1403,5.1403,5.1403,5.1403,5.1403,5.1402,5.1399,5.1398,5.1398,5.1398,5.1398,5.1398,5.1398,5.1398,5.1397,5.1393,5.1392,5.1626,5.2193,5.2252,5.2504,5.3084,5.3122,5.3139,5.3132,5.3132,5.3268,5.3541,5.3561,5.3698,5.399,5.401,5.401,5.401,5.401,5.401,5.401,5.401,5.4307,4.0797,4.0797,4.0797,4.0797,4.0797,4.0797,4.0797,4.0797,4.0797,4.0797,4.0797,4.0797,4.0797,4.0797,4.089,4.118,4.1238,4.1819,4.3534,4.3766,4.4272,4.5649,4.5803,4.5803,0.0,0.0,0.0,4.5803,4.5803,4.5939,4.6248,4.6809,4.7235,4.754,4.8411,4.8856,4.8856,4.9703,5.0128,5.0148,5.0651,5.0898,5.0898,5.0898,5.0898,5.0898,5.0898,5.0898,5.0898,5.0898,5.0898,5.0898,5.0898,5.0898,5.0898,5.0898,5.0898,5.084,5.0462,5.0702,5.1178,5.1191,5.1253,5.1294,5.1275,5.1331,5.1406,5.1364,5.1386,5.1406,5.1406,5.1406,5.1406,5.1406,5.1406,5.1406,5.1406,5.1406,5.1405,5.1403,5.1403,5.1403,5.1403,5.1403,5.15,5.1813,5.1852,5.1851,5.1867,5.1867,5.2199,5.3078,5.3156,5.3389,5.3951,5.401,5.4007,5.4002,5.3998,5.4133,5.4445,5.4461,5.4615,5.4926,5.4926,5.4926,5.4926,5.4926,5.4928,5.4932,5.4932,5.5232,4.0797,4.0797,4.0797,4.0797,4.0797,4.0797,4.0797,4.0797,4.0797,4.0797,4.0797,4.0797,4.0797,4.0797,4.1045,4.1816,4.197,4.2589,4.4288,4.4578,4.4907,0.0,0.0,0.0,0.0,0.0,0.0,4.5861,0.0,4.6229,4.7061,4.7177,4.7618,4.843,4.932,4.9761,4.9761,5.0515,5.0898,5.0898,5.0898,5.0898,5.0898,5.0898,5.0898,5.0898,5.0898,5.0898,5.0898,5.0898,5.0898,5.0898,5.0898,5.0898,5.0898,5.0898,5.0898,5.0921,5.1047,5.1093,5.1092,5.1159,5.1223,5.128,5.1218,5.1287,5.1385,5.1326,5.1358,5.1406,5.1406,5.1406,5.1406,5.1406,5.1406,5.1406,5.1406,5.1406,5.1406,5.1406,5.1406,5.1406,5.1465,5.1465,5.1758,5.2637,5.2773,5.2773,5.2768,5.2766,5.3099,5.3977,5.4075,5.4075,5.4133,5.4133,5.4133,5.4133,5.4127,5.4494,5.5334,5.5365,5.5769,5.6588,5.6607,5.6607,5.6607,5.6607,5.6593,5.6602,5.6602,5.6606,4.0797,4.0797,4.0797,4.0797,4.0797,4.0797,4.0797,4.0797,4.0797,4.0797,4.0797,4.0797,4.0797,4.0797,4.0871,4.1064,4.1606,0.0,4.3476,4.4191,0.0,4.5707,0.0,4.5803,4.5803,4.5803,0.0,0.0,4.677,4.6867,4.7099,4.8333,4.9146,4.9359,5.0167,5.0593,5.0593,5.0801,5.0898,5.0898,5.0898,5.0898,5.0898,5.0898,5.0898,5.0898,5.0898,5.0898,5.0898,5.0898,5.0898,5.0898,5.0898,5.0898,5.0898,5.0898,5.0898,5.0906,5.0948,5.0943,5.0951,5.097,5.1054,5.1147,5.1139,5.1181,5.1265,5.1291,5.1304,5.1335,5.1386,5.1406,5.1406,5.1406,5.1406,5.1406,5.1406,5.1406,5.1406,5.1406,5.1406,5.1601,5.2266,5.2363,5.2656,5.3535,5.3672,5.3672,5.3671,5.3671,5.4003,5.4882,5.496,5.5233,5.5876,5.5934,5.5933,5.5949,5.5947,5.6044,5.6259,5.6276,5.6373,5.6607,5.6607,5.6607,5.6607,5.6607,5.6608,5.659,5.659,5.6593,4.0797,4.0797,4.0797,4.0797,4.0797,4.0797,4.0797,4.0797,4.0797,4.0797,4.0797,4.0797,4.0797,4.0797,4.1045,0.0,0.0,0.0,4.4214,4.4813,4.5297,0.0,4.5803,0.0,4.5803,4.5803,4.6151,0.0,4.7099,4.7428,4.8198,4.9165,4.9858,5.0225,5.067,5.0898,5.0898,5.0898,5.0898,5.0898,5.0898,5.0898,5.0898,5.0898,5.0898,5.0898,0.0,5.0898,5.0898,5.0898,5.0898,5.0898,5.0898,5.0898,5.0898,5.0898,5.0898,5.0898,5.0898,5.0898,5.0898,5.0898,5.099,5.109,5.103,5.1106,5.1211,5.1253,5.128,5.1325,5.1386,5.1406,5.1406,5.1406,5.1406,5.1406,5.1406,5.1406,5.1406,5.1406,5.1719,5.2129,5.2617,5.3027,5.3574,5.4433,5.457,5.4707,5.5098,5.4805,5.4902,5.5781,5.5879,5.6074,5.6562,5.6601,5.66,5.6599,5.6597,5.6596,5.6596,5.6594,5.6593,5.6593,5.6593,5.6593,5.6593,5.6593,5.6594,5.6596,5.6596,5.6598,4.0797,4.0797,4.0797,4.0797,4.0797,4.0797,4.0797,4.0797,4.0797,4.0797,0.0,4.0797,4.0797,4.089,4.1432,4.2899,0.0,4.3982,4.5436,4.5726,4.5803,4.5803,4.5803,4.5803,4.5803,4.5803,4.6209,4.7196,4.7273,4.7985,4.9606,4.98,5.0186,5.0879,5.0898,5.0898,5.0898,5.0898,5.0898,5.0898,5.0898,5.0898,5.0898,5.0898,5.0898,5.0898,5.0898,5.0898,5.0898,5.0898,5.0898,5.0898,5.0898,5.0898,5.0898,5.0898,5.0898,5.0898,5.0898,5.0898,5.0898,5.0898,5.0976,5.1053,5.0944,5.1027,5.1168,5.1181,5.1236,5.1291,5.1364,5.1386,5.1386,5.1406,5.1406,5.1406,5.1406,5.1406,5.1426,5.1543,5.2187,5.2773,5.3008,5.3672,5.4473,5.5332,5.5469,5.5742,5.6504,5.5937,5.5762,5.6523,5.6601,5.6601,5.6601,5.6601,5.6601,5.6601,5.6601,5.66,5.66,5.6597,5.6595,5.6595,5.6595,5.6595,5.6595,5.6595,5.6597,5.66,5.66,5.6601,4.0797,4.0797,4.0797,4.0797,4.0797,4.0797,4.0797,4.0797,0.0,0.0,4.0797,4.0797,4.0797,4.1335,4.1893,4.2183,0.0,0.0,0.0,0.0,4.5803,0.0,0.0,0.0,0.0,0.0,0.0,0.0,0.0,4.8624,4.9645,5.0322,5.0767,5.0898,5.0898,5.0898,5.0898,5.0898,5.0898,5.0898,5.0898,5.0898,5.0898,5.0898,5.0898,5.0898,5.0898,0.0,5.0898,5.0898,5.0898,5.0898,5.0898,5.0898,5.0898,5.0898,5.0898,5.0898,5.0898,5.0898,5.0898,5.0898,5.0917,5.0937,5.091,5.0921,5.097,5.1086,5.1131,5.1149,5.1286,5.1326,5.1333,5.1386,5.1406,5.1406,5.1406,5.1406,5.1601,5.2324,5.2598,5.3164,5.4609,5.4961,5.5371,5.623,5.6367,5.6426,5.6582,5.6465,5.6426,5.6582,5.6601,5.6601,5.6601,5.6601,5.6601,5.6601,5.6601,5.6601,5.6601,5.6601,5.6601,5.6601,5.6601,5.6601,5.6601,5.6601,5.6601,5.6601,5.6601,5.6601,4.0797,4.0797,4.0797,4.0797,4.0797,4.0797,4.0797,0.0,0.0,0.0,4.0797,4.0797,4.0797,4.1451,0.0,0.0,0.0,0.0,0.0,0.0,0.0,0.0,0.0,0.0,0.0,0.0,0.0,0.0,0.0,4.8952,5.0264,5.0689,5.0898,5.0898,5.0898,5.0898,5.0898,5.0898,5.0898,5.0898,5.0898,5.0898,5.0898,5.0898,5.0898,5.0898,5.0898,0.0,5.0898,5.0898,5.0898,5.0898,5.0898,5.0898,5.0898,5.0898,5.0898,5.0898,5.0898,5.0898,5.0914,5.0979,5.097,5.0898,5.0898,5.0898,5.0932,5.1106,5.1152,5.1178,5.1326,5.134,5.1362,5.1386,5.1406,5.1406,5.1406,5.1758,5.2207,5.2617,5.3437,5.4316,5.5156,5.5683,5.6113,5.6543,5.6601,5.6601,5.6601,5.6601,5.6601,5.6601,5.6601,5.6601,5.6601,5.6601,5.6601,5.6601,5.6601,5.6601,5.6601,5.6601,5.6601,5.6601,5.6601,5.6601,5.6601,5.6601,5.6601,5.6601,5.6601,5.6601,4.0797,4.0797,4.0797,4.0797,4.0797,4.0797,4.0797,4.0797,0.0,0.0,4.0797,4.0797,4.0797,0.0,4.2492,0.0,4.4172,0.0,0.0,0.0,0.0,0.0,0.0,0.0,0.0,0.0,0.0,0.0,0.0,0.0,5.0821,5.0898,5.0898,5.0898,5.0898,5.0898,5.0898,5.0898,5.0898,5.0898,5.0898,5.0898,5.0898,5.0898,5.0898,5.0898,5.0898,0.0,0.0,5.0898,5.0898,5.0898,5.0898,5.0898,5.0898,5.0898,5.0898,5.0906,5.0921,5.0932,5.0958,5.1083,5.1034,5.0959,5.0953,5.0963,5.0992,5.1161,5.1201,5.1234,5.1358,5.1385,5.1386,5.1406,5.1406,5.1445,5.1641,5.2226,5.2812,5.3183,5.4355,5.5351,5.5547,5.6152,5.6601,5.6601,5.6601,5.6601,5.6601,5.6601,5.6601,5.6601,5.6601,5.6601,5.6601,5.6601,5.6601,5.6601,5.6601,5.6601,5.6601,5.6601,5.6601,5.6601,5.6601,5.6601,5.6601,5.6601,5.6601,5.6601,5.6601,5.6601,4.0797,4.0797,4.0797,4.0797,4.0797,4.0797,4.0797,0.0,0.0,4.0797,4.0797,4.0797,4.0797,4.2106,4.3205,4.3282,0.0,4.5726,0.0,0.0,0.0,0.0,0.0,0.0,0.0,0.0,0.0,0.0,0.0,0.0,5.0898,5.0898,5.0898,5.0898,5.0898,5.0898,5.0898,5.0898,5.0898,5.0898,5.0898,5.0898,5.0898,5.0898,5.0898,5.0898,5.0898,0.0,0.0,5.0898,5.0898,5.0898,5.0898,5.0898,5.0898,5.0898,5.0898,5.0921,5.104,5.1084,5.1086,5.1178,5.1142,5.1086,5.1152,5.1176,5.1181,5.1197,5.1201,5.1222,5.129,5.1302,5.1329,5.1386,5.1406,5.1621,5.2402,5.2637,5.3164,5.4746,5.5195,5.5547,5.6348,5.6543,5.6601,5.6601,5.6601,5.6601,5.6601,5.6601,5.6601,5.6601,5.6601,5.6601,5.6601,5.6601,5.6601,5.6601,5.6601,5.6601,5.6601,5.6601,5.6601,5.6601,5.6601,5.6601,5.6601,5.6601,5.6601,5.6601,5.6601,5.6601,4.0797,4.0797,4.0797,4.0797,4.0797,4.0797,4.0797,0.0,4.0797,4.0797,4.0797,4.0797,4.0797,4.2164,4.3301,4.3301,4.472,0.0,0.0,0.0,0.0,0.0,0.0,0.0,0.0,0.0,0.0,0.0,0.0,0.0,5.0898,5.0898,5.0898,5.0898,5.0898,5.0898,5.0898,5.0898,5.0898,5.0898,5.0898,5.0898,5.0898,5.0898,5.0898,5.0898,5.0898,0.0,0.0,5.0898,5.0898,5.0898,5.0898,5.0898,5.0914,5.099,5.102,5.1021,5.113,5.1167,5.1163,5.1245,5.1249,5.1224,5.1207,5.1201,5.1213,5.1256,5.1266,5.1279,5.1337,5.1362,5.1364,5.1386,5.1797,5.2285,5.2637,5.3516,5.4473,5.5176,5.5723,5.6191,5.6543,5.6601,5.6601,5.6601,5.6601,5.6601,5.6601,5.6601,5.6601,5.6601,5.6601,5.6601,5.6601,5.6601,5.6601,5.6601,5.6601,5.6601,5.6601,5.6601,5.6601,5.6601,5.6601,5.6601,5.6601,5.6601,5.6601,5.6601,5.6601,5.6601,4.0797,4.0797,4.0797,4.0797,4.0797,4.0739,0.0,0.0,4.0739,4.0468,4.0623,4.0797,4.0797,4.1951,4.2995,4.3263,4.4504,4.5533,4.5765,0.0,0.0,0.0,0.0,0.0,0.0,0.0,0.0,0.0,0.0,0.0,5.0898,5.0898,5.0898,5.0898,5.0898,5.0898,5.0898,5.0898,5.0925,5.0951,5.0951,5.0976,5.0998,5.0998,5.0998,5.0998,5.0998,0.0,0.0,5.0972,5.0979,5.0994,5.0969,5.096,5.0992,5.1086,5.1136,5.1132,5.1209,5.1236,5.1247,5.1301,5.1332,5.1328,5.1278,5.1265,5.1274,5.1325,5.1332,5.1337,5.1386,5.1406,5.1465,5.1719,5.2246,5.2832,5.3359,5.4433,5.5371,5.5625,5.6172,5.6601,5.6601,5.6601,5.6601,5.6601,5.6601,5.6601,5.6601,5.6601,5.6601,5.6601,5.6601,5.6601,5.6601,5.6601,5.6601,5.6601,5.6601,5.6601,5.6601,5.6601,5.6601,5.6601,5.6601,5.6601,5.6601,5.6601,5.6601,5.6601,5.6601,5.6601,4.0797,4.0797,4.0797,4.0797,4.0797,4.0565,0.0,4.0178,4.0565,3.9694,4.0197,4.0797,4.0797,4.1471,4.2299,4.3166,4.4036,0.0,4.5687,0.0,0.0,0.0,0.0,0.0,0.0,0.0,0.0,0.0,0.0,0.0,5.0898,5.0898,5.0898,5.0898,5.0898,5.0898,5.0898,5.0898,5.0961,5.1099,5.1099,5.1124,5.1199,5.1199,5.1199,5.1199,0.0,0.0,0.0,5.1131,5.113,5.1191,5.1128,5.1132,5.1199,5.1199,5.1201,5.1213,5.1279,5.1296,5.1302,5.1385,5.1406,5.1406,5.1406,5.1406,5.1406,5.1406,5.1406,5.1406,5.1406,5.1406,5.1621,5.248,5.2695,5.3164,5.4902,5.5293,5.5566,5.6426,5.6582,5.6601,5.6601,5.6601,5.6601,5.6601,5.6601,5.6601,5.6601,5.6601,5.6601,5.6601,5.6601,5.6601,5.6601,5.6601,5.6601,5.6601,5.6601,5.6601,5.6601,5.6601,5.6601,5.6601,5.6601,5.6601,5.6601,5.6601,5.6601,5.6601,5.6601,5.6601,4.0797,4.0797,4.0797,4.0797,4.0797,4.0565,3.9694,4.0178,4.0545,3.9675,4.0197,4.0797,4.0797,4.1451,4.2299,4.3166,4.4036,4.4887,0.0,0.0,0.0,0.0,0.0,0.0,0.0,0.0,0.0,0.0,0.0,0.0,5.0898,5.0898,5.0898,5.0898,5.0898,5.0898,5.0898,5.099,5.1059,5.1102,5.1145,5.1174,5.1201,5.1201,5.1201,0.0,0.0,0.0,0.0,5.1172,5.1176,5.1199,5.117,5.1176,5.1209,5.1258,5.1273,5.128,5.1358,5.1364,5.1365,5.1386,5.1406,5.1406,5.1406,5.1406,5.1406,5.1406,5.1406,5.1406,5.1406,5.1836,5.2363,5.2637,5.3613,5.4629,5.5176,5.5762,5.6269,5.6543,5.6601,5.6601,5.6601,5.6601,5.6601,5.6601,5.6601,5.6601,5.6601,5.6601,5.6601,5.6601,5.6601,5.6601,5.6601,5.6601,5.6601,5.6601,5.6601,5.6601,5.6601,5.6601,5.6601,5.6601,5.6601,5.6601,5.6601,5.6601,5.6601,5.6601,5.6601,5.6601,4.0797,4.0797,4.0797,4.0797,4.0797,0.0,3.9285,3.9942,4.0465,3.9265,3.9962,4.0797,4.0797,4.1219,4.1932,4.3111,4.3766,0.0,0.0,0.0,0.0,0.0,0.0,0.0,0.0,0.0,0.0,0.0,0.0,0.0,5.0898,5.0898,5.0898,5.0898,5.0898,5.091,5.0972,5.1059,5.1128,5.1189,5.1224,5.1258,5.1279,5.1279,5.1279,0.0,0.0,0.0,0.0,5.1255,5.1259,5.1277,5.1255,5.1241,5.1283,5.1328,5.1335,5.1338,5.1386,5.1406,5.1406,5.1406,5.1406,5.1406,5.1406,5.1406,5.1406,5.1406,5.1406,5.1406,5.1406,5.2051,5.2773,5.3105,5.4277,5.539,5.5723,5.6211,5.6601,5.6601,5.6601,5.6601,5.6601,5.6601,5.6601,5.6601,5.6601,5.6601,5.6601,5.6601,5.6601,5.6601,5.6601,5.6601,5.6601,5.6601,5.6601,5.6601,5.6601,5.6601,5.6601,5.6601,5.6601,5.6601,5.6601,5.6601,5.6601,5.6601,5.6601,5.6601,5.6601,5.6601,0.0,4.0797,4.0797,0.0,0.0,0.0,3.8602,3.9553,0.0,3.8563,3.9591,4.0797,4.0797,4.0797,4.1354,4.3034,4.3301,0.0,0.0,0.0,0.0,0.0,0.0,0.0,0.0,0.0,0.0,0.0,0.0,0.0,5.0898,5.0898,5.0898,5.0898,5.091,5.0969,5.1102,5.1092,5.1163,5.1297,5.13,5.1336,5.1406,5.1406,5.1406,0.0,0.0,0.0,0.0,5.1333,5.1338,5.1386,5.1333,5.1358,5.1406,5.1406,5.1406,5.1406,5.1406,5.1406,5.1406,5.1406,5.1406,5.1406,5.1406,5.1406,5.1406,5.1406,5.1406,5.1406,5.1484,5.2148,5.3008,5.3887,5.4765,5.5605,5.6426,5.6601,5.6601,5.6601,5.6601,5.6601,5.6601,5.6601,5.6601,5.6601,5.6601,5.6601,5.6601,5.6601,5.6601,5.6601,5.6601,5.6601,5.6601,5.6601,5.6601,5.6601,5.6601,5.6601,5.6601,5.6601,5.6601,5.6601,5.6601,5.6601,5.6601,5.6601,5.6601,5.6601,5.6601,5.6601,4.0797,0.0,4.0797,4.0797,4.0797,4.0349,0.0,3.9553,4.031,3.8563,3.9591,4.0797,4.0797,4.0797,4.1354,4.3034,0.0,0.0,0.0,0.0,0.0,0.0,0.0,0.0,0.0,0.0,0.0,0.0,0.0,5.0898,5.0898,5.0898,5.0898,5.0898,5.1,5.1072,5.1102,5.1152,5.1224,5.1297,5.134,5.1386,5.1406,5.1406,5.1406,0.0,0.0,0.0,5.1406,5.1386,5.1386,5.1406,5.1386,5.1386,5.1406,5.1406,5.1406,5.1406,5.1406,5.1406,5.1406,5.1406,5.1406,5.1406,5.1406,5.1406,5.1406,5.1406,5.1406,5.1543,5.2226,5.3047,5.3906,5.4785,5.5664,5.6348,5.6562,5.6601,5.6601,5.6601,5.6601,5.6601,5.6601,5.6601,5.6601,5.6601,5.6601,5.6601,5.6601,5.6601,5.6601,5.6601,5.6601,5.6601,5.6601,5.6601,5.6601,5.6601,5.6601,5.6601,5.6601,5.6601,5.6601,5.6601,5.6601,5.6601,5.6601,5.6601,5.6601,5.6601,5.6601,5.6601,4.0797,4.0797,4.0797,4.0797,4.0797,4.0445,3.9108,3.9846,4.0426,3.9069,0.0,4.0797,4.0797,4.0797,0.0,0.0,0.0,0.0,0.0,0.0,0.0,0.0,0.0,0.0,0.0,0.0,0.0,0.0,0.0,5.0898,5.0898,5.0898,5.0898,5.0898,5.103,5.1109,5.1142,5.1216,5.1283,5.1358,5.1386,5.1406,5.1406,5.1406,5.1406,0.0,0.0,0.0,5.1406,5.1406,5.1406,5.1406,5.1406,5.1406,5.1406,5.1406,5.1406,5.1406,5.1406,5.1406,5.1406,5.1406,5.1406,5.1406,5.1406,5.1406,5.1406,5.1406,5.1406,5.1601,5.2461,5.3359,5.4219,5.5098,5.5976,5.6601,5.6601,5.6601,5.6601,5.6601,5.6601,5.6601,5.6601,5.6601,5.6601,5.6601,5.6601,5.6601,5.6601,5.6601,5.6601,5.6601,5.6601,5.6601,5.6601,5.6601,5.6601,5.6601,5.6601,5.6601,5.6601,5.6601,5.6601,5.6601,5.6601,5.6601,5.6601,5.6601,5.6601,5.6601,5.6601,5.6601,4.08,4.0797,4.0797,4.0797,4.0797,4.0565,3.9694,0.0,0.0,0.0,0.0,0.0,0.0,4.0797,0.0,0.0,0.0,0.0,0.0,0.0,0.0,0.0,0.0,0.0,0.0,0.0,0.0,0.0,0.0,5.0937,5.0937,5.094,5.0954,5.0954,5.1074,5.1162,5.122,5.1275,5.1333,5.1406,5.1406,5.1406,5.1406,5.1406,5.1406,5.1406,0.0,0.0,5.1406,5.1406,5.1406,5.1406,5.1406,5.1406,5.1406,5.1406,5.1406,5.1406,5.1406,5.1406,5.1406,5.1406,5.1406,5.1406,5.1406,5.1406,5.1406,5.1406,5.1504,5.1797,5.2676,5.3555,5.4414,5.5293,5.6055,5.6601,5.6601,5.6601,5.6601,5.6601,5.6601,5.6601,5.6601,5.6601,5.6601,5.6601,5.6601,5.6601,5.6601,5.6601,5.6601,5.6601,5.6601,5.6601,5.6601,5.6601,5.6601,5.6601,5.6601,5.6601,5.6601,5.6601,5.6601,5.6601,5.6601,5.6601,5.6601,5.6601,5.6601,5.6601,5.6601,5.6601,4.0824,4.0797,4.0797,4.0797,4.0797,4.0565,3.9694,4.0178,0.0,0.0,0.0,0.0,0.0,4.0797,0.0,0.0,0.0,0.0,0.0,0.0,0.0,0.0,0.0,0.0,0.0,0.0,0.0,0.0,0.0,5.1072,5.1072,5.1113,5.1139,5.1139,5.1221,5.1278,5.1286,5.1293,5.1333,5.1406,5.1406,5.1406,5.1406,5.1406,5.1406,5.1406,0.0,5.1406,5.1406,5.1406,5.1406,5.1406,5.1406,5.1406,5.1406,5.1406,5.1406,5.1406,5.1406,5.1406,5.1406,5.1406,5.1406,5.1406,5.1406,5.1406,5.1406,5.1406,5.1933,5.2695,5.3574,5.4453,5.5312,5.6191,5.6504,5.6601,5.6601,5.6601,5.6601,5.6601,5.6601,5.6601,5.6601,5.6601,5.6601,5.6601,5.6601,5.6601,5.6601,5.6601,5.6601,5.6601,5.6601,5.6601,5.6601,5.6601,5.6601,5.6601,5.6601,5.6601,5.6601,5.6601,5.6601,5.6601,5.6601,5.6601,5.6601,5.6601,5.6601,5.6601,5.6601,5.6601,4.0867,4.0828,4.0797,4.0797,4.0797,4.07,4.0294,4.0507,4.07,0.0,0.0,0.0,0.0,0.0,0.0,0.0,0.0,0.0,0.0,0.0,0.0,0.0,0.0,0.0,0.0,0.0,0.0,0.0,0.0,0.0,5.1063,5.1152,5.1201,5.1201,5.127,5.1297,5.1297,5.1335,5.1364,5.1406,5.1406,5.1406,5.1406,5.1406,5.1406,5.1406,0.0,5.1406,5.1406,5.1406,5.1406,5.1406,5.1406,5.1406,5.1406,5.1406,5.1406,5.1406,5.1406,5.1406,5.1406,5.1406,5.1406,5.1406,5.1406,5.1406,5.1406,5.1406,5.2031,5.2891,5.3769,5.4648,5.5527,5.6387,5.6601,5.6601,5.6601,5.6601,5.6601,5.6601,5.6601,5.6601,5.6601,5.6601,5.6601,5.6601,5.6601,5.6601,5.6601,5.6601,5.6601,5.6601,5.6601,5.6601,5.6601,5.6601,5.6601,5.6601,5.6601,5.6601,5.6601,5.6601,5.6601,5.6601,5.6601,5.6601,5.6601,5.6601,5.6601,5.6601,5.6601,5.6601,4.09,4.0867,4.0814,4.0803,4.0818,4.0814,4.0803,4.0818,4.0811,0.0,0.0,0.0,0.0,0.0,0.0,0.0,0.0,0.0,0.0,0.0,0.0,0.0,0.0,0.0,0.0,0.0,0.0,0.0,0.0,0.0,5.0812,5.1097,5.1253,5.1253,5.1295,5.1329,5.1329,5.1365,5.1406,5.1406,5.1406,5.1406,5.1406,5.1406,5.1406,5.1406,5.1406,5.1406,5.1406,5.1406,5.1406,5.1406,5.1406,5.1406,5.1406,5.1406,5.1406,5.1406,5.1406,5.1406,5.1406,5.1406,5.1406,5.1406,5.1406,5.1406,5.1406,5.1406,5.2168,5.3164,5.3828,5.4805,5.5762,5.6445,5.6601,5.6601,5.6601,5.6601,5.6601,5.6601,5.6601,5.6601,5.6601,5.6601,5.6601,5.6601,5.6601,5.6601,5.6601,5.6601,5.6601,5.6601,5.6601,5.6601,5.6601,5.6601,5.6601,5.6601,5.6601,5.6601,5.6601,5.6601,5.6601,5.6601,5.6601,5.6601,5.6601,5.6601,5.6601,5.6601,5.6601,5.6601,4.0937,4.0903,4.0873,4.0824,4.0843,4.0871,4.0802,4.0846,0.0,4.0799,0.0,0.0,0.0,0.0,0.0,0.0,0.0,0.0,0.0,0.0,0.0,0.0,0.0,0.0,0.0,0.0,0.0,0.0,0.0,0.0,5.0073,5.091,5.1386,5.1386,5.1386,5.1386,5.1386,5.1406,5.1406,5.1406,5.1406,5.1406,5.1406,5.1406,5.1406,5.1406,5.1406,5.1406,5.1406,5.1406,5.1406,5.1406,5.1406,5.1406,5.1406,5.1406,5.1406,5.1406,5.1406,5.1406,5.1406,5.1406,5.1406,5.1406,5.1406,5.1406,5.1406,5.1406,5.2617,5.3926,5.3984,5.5254,5.6523,5.6582,5.6601,5.6601,5.6601,5.6601,5.6601,5.6601,5.6601,5.6601,5.6601,5.6601,5.6601,5.6601,5.6601,5.6601,5.6601,5.6601,5.6601,5.6601,5.6601,5.6601,5.6601,5.6601,5.6601,5.6601,5.6601,5.6601,5.6601,5.6601,5.6601,5.6601,5.6601,5.6601,5.6601,5.6601,5.6601,5.6601,5.6601,5.6601,4.1048,4.0987,4.0963,4.093,4.0967,0.0,0.0,4.0851,4.0878,4.0802,4.0797,0.0,0.0,0.0,0.0,0.0,0.0,0.0,0.0,0.0,0.0,0.0,0.0,0.0,0.0,0.0,0.0,0.0,0.0,0.0,4.9879,5.0305,5.0796,5.1387,5.1406,5.1406,5.1406,5.1406,5.1406,5.1406,5.1406,5.1406,5.1406,5.1406,5.1406,5.1406,5.1406,5.1406,5.1406,5.1406,5.1406,5.1406,5.1406,5.1406,5.1406,5.1406,5.1406,5.1406,5.1406,5.1406,5.1406,5.1406,5.1406,5.1406,5.1406,5.1406,5.1406,5.1406,5.2266,5.332,5.3867,5.5293,5.6601,5.6601,5.6601,5.6601,5.6601,5.6601,5.6601,5.6601,5.6601,5.6601,5.6601,5.6601,5.6601,5.6601,5.6601,5.6601,5.6601,5.6601,5.6601,5.6601,5.6601,5.6601,5.6601,5.6601,5.6601,5.6601,5.6601,5.6601,5.6601,5.6601,5.6601,5.6601,5.6601,5.6601,5.6601,5.6601,5.6601,5.6601,5.6601,5.6601,4.1111,4.1069,4.1037,4.1016,0.0,0.0,4.0866,4.0883,4.0917,4.0811,4.0797,0.0,0.0,0.0,0.0,0.0,0.0,0.0,0.0,0.0,0.0,0.0,0.0,0.0,0.0,0.0,0.0,0.0,0.0,0.0,0.0,4.9841,5.0437,5.1367,5.1406,5.1406,5.1406,5.1406,5.1406,5.1406,5.1406,5.1406,5.1406,5.1406,5.1406,5.1406,5.1406,5.1406,5.1406,5.1406,5.1406,5.1406,5.1406,5.1406,5.1406,5.1406,5.1406,5.1406,5.1406,5.1406,5.1406,5.1406,5.1406,5.1406,5.1406,5.1406,5.1406,5.1406,5.2031,5.2891,5.3769,5.5098,5.6269,5.6523,5.6601,5.6601,5.6601,5.6601,5.6601,5.6601,5.6601,5.6601,5.6601,5.6601,5.6601,5.6601,5.6601,5.6601,5.6601,5.6601,5.6601,5.6601,5.6601,5.6601,5.6601,5.6601,5.6601,5.6601,5.6601,5.6601,5.6601,5.6601,5.6601,5.6601,5.6601,5.6601,5.6601,5.6601,5.6601,5.6601,5.6601,5.6601,4.1117,4.1109,4.1081,0.0,0.0,0.0,4.0932,4.0959,4.097,4.0828,4.0797,4.0794,4.0813,0.0,0.0,0.0,0.0,0.0,0.0,0.0,0.0,0.0,0.0,0.0,0.0,0.0,0.0,0.0,0.0,0.0,0.0,4.9545,5.0418,5.1367,5.1406,5.1406,5.1406,5.1406,5.1406,5.1406,5.1406,5.1406,5.1406,5.1406,5.1406,5.1406,5.1406,5.1406,5.1406,5.1406,5.1406,5.1406,5.1406,5.1406,5.1406,5.1406,5.1406,5.1406,5.1406,5.1406,5.1406,5.1406,5.1406,5.1406,5.1406,5.1406,5.1406,5.1406,5.2012,5.2891,5.3769,5.4648,5.5508,5.6387,5.6601,5.6601,5.6601,5.6601,5.6601,5.6601,5.6601,5.6601,5.6601,5.6601,5.6601,5.6601,5.6601,5.6601,5.6601,5.6601,5.6601,5.6601,5.6601,5.6601,5.6601,5.6601,5.6601,5.6601,5.6601,5.6601,5.6601,5.6601,5.6601,5.6601,5.6601,5.6601,5.6601,5.6601,5.6601,5.6601,5.6601,5.6601,4.117,4.117,0.0,4.1145,0.0,0.0,0.0,4.0997,0.0,0.0,4.0797,4.1161,4.2338,0.0,0.0,0.0,0.0,0.0,0.0,0.0,0.0,0.0,0.0,0.0,0.0,0.0,0.0,0.0,0.0,0.0,0.0,4.8982,4.9851,5.1348,5.1406,5.1406,5.1406,5.1406,5.1406,5.1406,5.1406,5.1406,5.1406,5.1406,5.1406,5.1406,5.1406,5.1406,5.1406,5.1406,5.1406,5.1406,5.1406,5.1406,5.1406,5.1406,5.1406,5.1406,5.1406,5.1406,5.1406,5.1406,5.1406,5.1406,5.1406,5.1406,5.1406,5.1406,5.1582,5.2129,5.3613,5.4199,5.4765,5.625,5.6601,5.6601,5.6601,5.6601,5.6601,5.6601,5.6601,5.6601,5.6601,5.6601,5.6601,5.6601,5.6601,5.6601,5.6601,5.6601,5.6601,5.6601,5.6601,5.6601,5.6601,5.6601,5.6601,5.6601,5.6601,5.6601,5.6601,5.6601,5.6601,5.6601,5.6601,5.6601,5.6601,5.6601,5.6601,5.6601,5.6601,5.6601,4.1191,4.1191,0.0,4.1191,4.1191,4.1169,4.102,0.0,0.0,0.0,0.0,0.0,0.0,0.0,0.0,0.0,0.0,0.0,0.0,0.0,0.0,0.0,0.0,0.0,0.0,0.0,0.0,0.0,0.0,0.0,0.0,4.877,4.9597,5.1348,5.1406,5.1406,5.1406,5.1406,5.1406,5.1406,5.1406,5.1406,5.1406,5.1406,5.1406,5.1406,5.1406,5.1406,5.1406,5.1406,5.1406,5.1406,5.1406,5.1406,5.1406,5.1406,5.1406,5.1406,5.1406,5.1406,5.1406,5.1406,5.1406,5.1406,5.1406,5.1406,5.1406,5.1406,5.1406,5.1719,5.3125,5.373,5.4433,5.6191,5.6601,5.6601,5.6601,5.6601,5.6601,5.6601,5.6601,5.6601,5.6601,5.6601,5.6601,5.6601,5.6601,5.6601,5.6601,5.6601,5.6601,5.6601,5.6601,5.6601,5.6601,5.6601,5.6601,5.6601,5.6601,5.6601,5.6601,5.6601,5.6601,5.6601,5.6601,5.6601,5.6601,5.6601,5.6601,5.6601,5.6601,5.6601,4.1191,0.0,0.0,4.1191,4.1191,0.0,4.1038,0.0,4.0797,0.0,0.0,0.0,0.0,0.0,0.0,0.0,0.0,0.0,0.0,0.0,0.0,0.0,0.0,0.0,0.0,0.0,0.0,0.0,0.0,0.0,0.0,4.8803,4.9619,5.1348,5.1406,5.1406,5.1406,5.1406,5.1406,5.1406,5.1406,5.1406,5.1406,5.1406,5.1406,5.1406,5.1406,5.1406,5.1406,5.1406,5.1406,5.1406,5.1406,5.1406,5.1406,5.1406,5.1406,5.1406,5.1406,5.1406,5.1406,5.1406,5.1406,5.1406,5.1406,5.1406,5.1406,5.1406,5.1406,5.1601,5.2461,5.3281,5.4316,5.6074,5.6543,5.6601,5.6601,5.6601,5.6601,5.6601,5.6601,5.6601,5.6601,5.6601,5.6601,5.6601,5.6601,5.6601,5.6601,5.6601,5.6601,5.6601,5.6601,5.6601,5.6601,5.6601,5.6601,5.6601,5.6601,5.6601,5.6601,5.6601,5.6601,5.6601,5.6601,5.6601,5.6601,5.6601,5.6601,5.6601,5.6601,5.6601,4.1191,4.1191,0.0,0.0,4.1117,4.1044,4.1018,4.0903,0.0,0.0,0.0,0.0,0.0,0.0,0.0,0.0,0.0,0.0,0.0,0.0,0.0,0.0,0.0,0.0,0.0,0.0,0.0,0.0,0.0,0.0,4.8547,4.8792,4.9648,5.1348,5.1406,5.1406,5.1406,5.1406,5.1406,0.0,5.1406,5.1406,5.1406,5.1406,5.1406,5.1406,5.1406,5.1406,5.1406,5.1406,5.1406,5.1406,5.1406,5.1406,5.1406,5.1406,5.1406,5.1406,5.1406,5.1406,5.1406,5.1406,5.1406,5.1406,5.1406,5.1406,5.1406,5.1406,5.1406,5.1601,5.2461,5.2832,5.3418,5.5176,5.6094,5.6601,5.6601,5.6601,5.6601,5.6601,5.6601,5.6601,5.6601,5.6601,5.6601,5.6601,5.6601,5.6601,5.6601,5.6601,5.6601,5.6601,5.6601,5.6601,5.6601,5.6601,5.6601,5.6601,5.6601,5.6601,5.6601,5.6601,5.6601,5.6601,5.6601,5.6601,5.6601,5.6601,5.6601,5.6601,5.6601,5.6601,4.1172,0.0,0.0,4.1191,0.0,4.1048,4.1018,4.0951,0.0,0.0,0.0,0.0,0.0,0.0,0.0,0.0,0.0,0.0,0.0,0.0,0.0,0.0,0.0,0.0,0.0,0.0,0.0,0.0,0.0,4.6645,4.8002,4.8574,4.945,5.0781,5.1191,5.1406,5.1406,5.1406,5.1406,5.1406,5.1406,5.1406,5.1406,5.1406,5.1406,5.1406,5.1406,5.1406,5.1406,5.1406,5.1406,5.1406,5.1406,5.1406,5.1406,5.1406,5.1406,5.1406,5.1406,5.1406,5.1406,5.1406,5.1406,5.1406,5.1406,5.1406,5.1406,5.1406,5.1406,5.1504,5.1953,5.2383,5.3027,5.4355,5.5332,5.6094,5.6504,5.6601,5.6601,5.6601,5.6601,5.6601,5.6601,5.6601,5.6601,5.6601,5.6601,5.6601,5.6601,5.6601,5.6601,5.6601,5.6601,5.6601,5.6601,5.6601,5.6601,5.6601,5.6601,5.6601,5.6601,5.6601,5.6601,5.6601,5.6601,5.6601,5.6601,5.6601,5.6601,5.6601,5.6601,5.6601,4.1172,0.0,4.1191,4.1191,4.1146,0.0,4.1021,4.1019,0.0,0.0,0.0,0.0,0.0,0.0,0.0,0.0,0.0,0.0,0.0,0.0,0.0,0.0,0.0,0.0,0.0,0.0,0.0,0.0,0.0,4.645,4.744,4.8335,4.9249,5.0176,5.0976,5.1406,5.1406,5.1406,5.1406,5.1406,5.1406,5.1406,5.1406,5.1406,5.1406,5.1406,5.1406,5.1406,5.1406,5.1406,5.1406,5.1406,5.1406,5.1406,5.1406,5.1406,5.1406,5.1406,5.1406,5.1406,5.1406,5.1406,5.1406,5.1406,5.1406,5.1406,5.1406,5.1406,5.1406,5.1406,5.1406,5.1933,5.2695,5.3574,5.4433,5.5351,5.6387,5.6601,5.6601,5.6601,5.6601,5.6601,5.6601,5.6601,5.6601,5.6601,5.6601,5.6601,5.6601,5.6601,5.6601,5.6601,5.6601,5.6601,5.6601,5.6601,5.6601,5.6601,5.6601,5.6601,5.6601,5.6601,5.6601,5.6601,5.6601,5.6601,5.6601,5.6601,5.6601,5.6601,5.6601,5.6601,0.0,0.0,4.1191,0.0,4.1146,4.1108,0.0,0.0,0.0,0.0,0.0,0.0,0.0,0.0,0.0,0.0,0.0,0.0,0.0,0.0,0.0,0.0,0.0,0.0,0.0,0.0,0.0,0.0,4.5996,4.6465,4.7366,4.8344,4.9296,5.0176,5.0976,5.1406,5.1406,5.1406,5.1406,5.1406,5.1406,5.1406,5.1406,5.1406,5.1406,5.1406,5.1406,5.1406,5.1406,5.1406,5.1406,5.1406,5.1406,5.1406,5.1406,5.1406,5.1406,5.1406,5.1406,5.1406,5.1406,5.1406,5.1406,5.1406,5.1406,5.1406,5.1406,5.1406,5.1406,5.1406,5.1406,5.1484,5.1797,5.2676,5.3535,5.4629,5.625,5.6601,5.6601,5.6601,5.6601,5.6601,5.6601,5.6601,5.6601,5.6601,5.6601,5.6601,5.6601,5.6601,5.6601,5.6601,5.6601,5.6601,5.6601,5.6601,5.6601,5.6601,5.6601,5.6601,5.6601,5.6601,5.6601,5.6601,5.6601,5.6601,5.6601,5.6601,5.6601,5.6601,5.6601,5.6601,4.1151,4.1172,4.1191,0.0,4.1171,4.1145,4.1113,0.0,0.0,0.0,0.0,0.0,0.0,0.0,0.0,0.0,0.0,0.0,0.0,0.0,0.0,0.0,0.0,0.0,0.0,0.0,0.0,0.0,4.6031,4.6274,4.6718,4.8065,4.9039,4.9453,5.0723,5.1406,5.1406,5.1406,5.1406,5.1406,5.1406,5.1406,5.1406,5.1406,5.1406,5.1406,5.1406,5.1406,5.1406,5.1406,5.1406,5.1406,5.1406,5.1406,5.1406,5.1406,5.1406,5.1406,5.1406,5.1406,5.1406,5.1406,5.1406,5.1406,5.1406,5.1406,5.1406,5.1406,5.1406,5.1406,5.1406,5.1406,5.1621,5.248,5.3379,5.4335,5.5558,5.6228,5.6601,5.6601,5.6579,5.6532,5.6532,5.6532,5.6527,5.6447,5.6535,5.6581,5.6553,5.658,5.6601,5.6601,5.6601,5.6601,5.6601,5.6601,5.6601,5.6601,5.6601,5.6601,5.6601,5.6601,5.6601,5.6601,5.6601,5.6601,5.6601,5.6601,5.6601,5.6601,5.6601,5.6601,0.0,0.0,4.1172,4.1191,4.1191,4.1191,0.0,0.0,0.0,0.0,0.0,0.0,0.0,0.0,0.0,0.0,0.0,0.0,0.0,0.0,0.0,0.0,0.0,0.0,0.0,0.0,0.0,0.0,4.6074,4.6146,4.6201,4.7656,4.8626,4.8887,5.0332,5.1191,5.1406,5.1406,5.1406,5.1406,5.1406,5.1406,5.1406,5.1406,5.1406,5.1406,5.1406,5.1406,5.1406,5.1406,5.1406,5.1406,5.1406,5.1406,5.1406,5.1406,5.1406,5.1406,5.1406,5.1406,5.1406,5.1406,5.1406,5.1406,5.1406,5.1406,5.1406,5.1406,5.1406,5.1406,5.1406,5.1406,5.1562,5.2226,5.3047,5.4003,5.5266,5.6055,5.6515,5.6515,5.6476,5.6449,5.6449,5.6449,5.6415,5.632,5.642,5.6507,5.6455,5.6481,5.6515,5.6515,5.6515,5.6536,5.6579,5.658,5.6581,5.6601,5.6601,5.6601,5.6601,5.6601,5.6601,5.6601,5.6601,5.6601,5.6601,5.6601,5.6601,5.6601,5.6601,5.6601,0.0,4.1111,0.0,4.1172,0.0,0.0,0.0,0.0,0.0,0.0,0.0,0.0,0.0,0.0,0.0,0.0,0.0,0.0,0.0,0.0,0.0,0.0,0.0,0.0,0.0,0.0,0.0,0.0,4.6122,4.62,4.6202,4.7124,4.8047,4.8867,4.9785,5.0625,5.1387,5.1406,5.1406,5.1406,5.1406,5.1406,5.1406,5.1406,5.1406,5.1406,5.1406,5.1406,5.1406,5.1406,5.1406,5.1406,5.1406,5.1406,5.1406,5.1406,5.1406,5.1406,5.1406,5.1406,5.1406,5.1406,5.1406,5.1406,5.1406,5.1406,5.1406,5.1406,5.1406,5.1406,5.1406,5.1406,5.1406,5.1465,5.2129,5.3436,5.5892,5.6371,5.6324,5.6324,5.6301,5.6316,5.6316,5.6316,5.6316,5.6292,5.6318,5.6303,5.6318,5.6301,5.6324,5.6324,5.6324,5.6374,5.6488,5.6512,5.6527,5.6601,5.6601,5.6601,5.6601,5.6601,5.6601,5.6601,5.6601,5.6601,5.6601,5.6601,5.6601,5.6601,5.6601,5.6601,0.0,0.0,0.0,4.1172,4.1191,0.0,0.0,0.0,0.0,0.0,0.0,0.0,0.0,0.0,0.0,0.0,0.0,0.0,0.0,0.0,0.0,0.0,0.0,0.0,0.0,0.0,0.0,0.0,0.0,4.6266,4.6266,4.7109,4.8008,4.8867,4.9746,5.0586,5.1387,5.1406,5.1406,5.1406,5.1406,5.1406,5.1406,5.1406,5.1406,5.1406,5.1406,5.1406,5.1406,5.1406,5.1406,5.1406,5.1406,5.1406,5.1406,5.1406,5.1406,5.1406,5.1406,5.1406,5.1406,5.1406,5.1406,5.1406,5.1406,5.1406,5.1406,5.1406,5.1406,5.1406,5.1406,5.1406,5.1523,5.2042,5.2371,5.3091,5.5043,5.5903,5.629,5.629,5.6278,5.6244,5.6244,5.6244,5.6218,5.6128,5.6222,5.6288,5.6236,5.6271,5.629,5.629,5.629,5.6322,5.637,5.645,5.6515,5.6527,5.658,5.6601,5.6601,5.6601,5.6601,5.6601,5.6601,5.6601,5.6601,5.6601,5.6601,5.6601,5.6601,5.6601,4.1107,0.0,0.0,0.0,0.0,0.0,0.0,0.0,0.0,0.0,0.0,0.0,0.0,0.0,0.0,0.0,0.0,0.0,0.0,0.0,0.0,0.0,0.0,0.0,0.0,0.0,0.0,0.0,0.0,0.0,4.6308,4.6855,4.7695,4.8867,4.9746,5.0586,5.1387,5.1406,5.1406,5.1406,5.1406,5.1406,5.1406,5.1406,5.1406,5.1406,5.1406,5.1406,5.1406,5.1406,5.1406,5.1406,5.1406,5.1406,5.1406,5.1406,5.1406,5.1406,5.1406,5.1406,5.1406,5.1406,5.1406,5.1406,5.1406,5.1406,5.1406,5.1406,5.1406,5.1406,5.1406,5.1386,5.1496,5.2007,5.2292,5.2806,5.4173,5.5163,5.5872,5.6144,5.6168,5.6119,5.6119,5.6119,5.6102,5.6005,5.6102,5.617,5.6134,5.6168,5.62,5.62,5.62,5.6217,5.6256,5.6357,5.6428,5.6505,5.6531,5.658,5.6601,5.6601,5.6601,5.6601,5.6601,5.6601,5.6601,5.6601,5.6601,5.6601,5.6601,5.6758,0.0,0.0,0.0,0.0,0.0,0.0,0.0,0.0,0.0,0.0,0.0,0.0,0.0,0.0,0.0,0.0,0.0,0.0,0.0,0.0,0.0,0.0,0.0,0.0,0.0,0.0,0.0,0.0,4.6265,4.6308,4.6308,4.6328,4.7129,4.8848,4.9746,5.0586,5.1387,5.1406,5.1406,5.1406,5.1406,5.1406,5.1406,5.1406,5.1406,5.1406,5.1406,5.1406,5.1406,5.1406,5.1406,5.1406,5.1406,5.1406,5.1406,5.1406,5.1406,5.1406,5.1406,5.1406,5.1406,5.1406,5.1406,5.1406,5.1406,5.1406,5.1406,5.1406,5.1406,5.1406,5.1406,5.1358,5.1283,5.1218,5.175,5.2501,5.3368,5.4188,5.5006,5.5834,5.6008,5.6008,5.6008,5.6008,5.6008,5.6008,5.6008,5.6008,5.6008,5.6008,5.6008,5.6008,5.6008,5.604,5.6178,5.6191,5.628,5.648,5.6506,5.6526,5.6601,5.6601,5.6601,5.6601,5.6601,5.6601,5.6601,5.6601,5.6601,5.6601,5.6601,5.707,4.1097,0.0,0.0,0.0,0.0,0.0,0.0,0.0,0.0,0.0,0.0,0.0,0.0,0.0,0.0,0.0,0.0,0.0,0.0,0.0,0.0,0.0,0.0,0.0,0.0,0.0,0.0,0.0,4.6265,4.6308,4.6308,4.6894,4.7754,4.8867,4.9746,5.0586,5.1387,5.1406,5.1406,5.1406,5.1406,5.1406,5.1406,5.1406,5.1406,5.1406,5.1406,5.1406,5.1406,5.1406,5.1406,5.1406,5.1406,5.1406,5.1406,5.1406,5.1406,5.1406,5.1406,5.1406,5.1406,5.1406,5.1406,5.1406,5.1406,5.1406,5.1406,5.1406,5.1406,5.1386,5.1337,5.128,5.1214,5.114,5.1284,5.1641,5.2413,5.3263,5.4271,5.5718,5.6008,5.6008,5.6008,5.6008,5.6008,5.6008,5.6008,5.6008,5.6008,5.6008,5.6008,5.6008,5.6008,5.6029,5.6059,5.6134,5.6247,5.6358,5.6449,5.6526,5.6601,5.6601,5.6601,5.6601,5.6601,5.6601,5.6601,5.6601,5.6601,5.6601,5.6601,5.707,0.0,0.0,0.0,0.0,0.0,0.0,4.1191,4.1191,0.0,0.0,0.0,0.0,0.0,0.0,0.0,0.0,0.0,0.0,0.0,0.0,0.0,0.0,0.0,0.0,0.0,4.6212,4.624,4.624,4.6288,4.6308,4.6308,4.6777,4.7461,4.832,4.9199,5.0058,5.0898,5.123,5.1406,5.1406,5.1406,5.1406,5.1406,5.1406,5.1406,5.1406,5.1406,5.1406,5.1406,5.1406,5.1406,5.1406,5.1406,5.1406,5.1406,5.1406,5.1406,5.1406,5.1406,5.1406,5.1406,5.1406,5.1406,5.1406,5.1406,5.1406,5.1406,5.1406,5.1385,5.1337,5.1279,5.1213,5.1137,5.103,5.1017,5.1226,5.2032,5.2883,5.3904,5.5238,5.5776,5.6008,5.6008,5.6008,5.6008,5.6008,5.6008,5.6008,5.6008,5.6008,5.6008,5.6008,5.6008,5.6008,5.6008,5.6064,5.6168,5.6258,5.6356,5.646,5.6555,5.6581,5.6601,5.6601,5.6601,5.6601,5.6601,5.6601,5.6601,5.6601,5.6601,5.7265,0.0,0.0,0.0,0.0,0.0,0.0,4.1191,4.1191,4.1191,0.0,0.0,0.0,0.0,0.0,0.0,0.0,0.0,0.0,0.0,0.0,0.0,0.0,0.0,0.0,4.6289,4.6308,4.6308,4.6308,4.6308,4.6308,4.6308,4.6308,4.6699,4.7578,4.8359,4.9219,5.0195,5.0918,5.1308,5.1406,5.1406,5.1406,5.1406,5.1406,5.1406,5.1406,5.1406,5.1406,5.1406,5.1406,5.1406,5.1406,5.1406,5.1406,5.1406,5.1406,5.1406,5.1406,5.1406,5.1406,5.1406,5.1406,5.1406,5.1406,5.1406,5.1406,5.1406,5.1386,5.1337,5.1278,5.1209,5.1132,5.105,5.0937,5.0898,5.1115,5.1896,5.2747,5.3618,5.4484,5.5374,5.6008,5.6008,5.6008,5.6008,5.6008,5.6008,5.6008,5.6008,5.6008,5.6008,5.6008,5.6008,5.6008,5.6008,5.6008,5.6067,5.6185,5.6254,5.6367,5.6486,5.6558,5.6601,5.6601,5.6601,5.6601,5.6601,5.6601,5.6601,5.6601,5.6699,5.7637,0.0,0.0,0.0,0.0,0.0,0.0,4.1191,4.1191,4.1191,0.0,0.0,0.0,0.0,0.0,0.0,0.0,0.0,0.0,0.0,0.0,0.0,0.0,0.0,0.0,4.6308,4.6308,4.6308,4.6308,4.6308,4.6308,4.6308,4.6308,4.6699,4.7578,4.7754,4.8613,5.0176,5.0351,5.0762,5.1406,5.1406,5.1406,5.1406,5.1406,5.1406,5.1406,5.1406,5.1406,5.1406,5.1406,5.1406,5.1406,5.1406,5.1406,5.1406,5.1406,5.1406,5.1406,5.1406,5.1406,5.1406,5.1406,5.1406,5.1406,5.1406,5.1406,5.1386,5.1334,5.1275,5.1207,5.1149,5.1021,5.0921,5.0906,5.0898,5.0956,5.1115,5.1834,5.2709,5.3579,5.4967,5.6008,5.6008,5.6008,5.6008,5.6008,5.6008,5.6008,5.6008,5.6008,5.6008,5.6008,5.6008,5.6008,5.6008,5.6008,5.6067,5.6185,5.6254,5.6367,5.6486,5.6558,5.6601,5.6601,5.6601,5.6601,5.6601,5.6601,5.6601,5.6621,5.7324,5.8203,0.0,0.0,0.0,4.1106,0.0,0.0,0.0,4.1191,4.1191,4.1191,0.0,0.0,0.0,0.0,0.0,0.0,0.0,0.0,0.0,0.0,0.0,0.0,0.0,0.0,4.6308,4.6308,4.6308,4.6308,4.6308,4.6308,4.6308,4.6308,4.6504,4.6933,4.7363,4.8223,4.9531,4.998,5.0605,5.1406,5.1406,5.1406,5.1406,5.1406,5.1406,5.1406,5.1406,5.1406,5.1406,5.1406,5.1406,5.1406,5.1406,5.1406,5.1406,5.1406,5.1406,5.1406,5.1406,5.1406,5.1406,5.1406,5.1406,5.1406,5.1406,5.1406,5.1386,5.1327,5.1259,5.1181,5.1114,5.1,5.0898,5.0898,5.0898,5.0898,5.0898,5.1583,5.2457,5.3328,5.4523,5.5524,5.593,5.6008,5.6008,5.6008,5.6008,5.6008,5.6008,5.6008,5.6008,5.6008,5.6008,5.6008,5.6008,5.6008,5.6026,5.6094,5.6222,5.633,5.6405,5.6533,5.6601,5.6601,5.6601,5.6601,5.6601,5.6601,5.6601,5.6621,5.748,5.8379,0.0,0.0,0.0,0.0,0.0,4.1111,0.0,0.0,0.0,4.1191,0.0,0.0,0.0,0.0,0.0,0.0,0.0,0.0,0.0,0.0,0.0,0.0,0.0,0.0,0.0,4.6308,4.6308,4.6308,4.6308,4.6308,4.6308,4.6308,4.6308,4.6308,4.6973,4.7773,4.8633,4.9512,5.0351,5.1172,5.1328,5.1406,5.1406,5.1406,5.1406,5.1406,5.1406,5.1406,5.1406,5.1406,5.1406,5.1406,5.1406,5.1406,5.1406,5.1406,5.1406,5.1406,5.1406,5.1406,5.1406,5.1406,5.1406,5.1406,5.1406,5.1406,5.1386,5.1299,5.1249,5.1176,5.1086,5.0979,5.0898,5.0898,5.0898,5.0898,5.0898,5.1447,5.2264,5.3308,5.4054,5.4839,5.5834,5.6008,5.6008,5.6008,5.6008,5.6008,5.6008,5.6008,5.6008,5.6008,5.6008,5.6008,5.6008,5.6008,5.6008,5.6008,5.6188,5.629,5.629,5.6487,5.6601,5.6601,5.6601,5.6601,5.6601,5.6601,5.6601,5.6621,5.7676,5.8535,0.0,0.0,0.0,0.0,4.1108,0.0,0.0,0.0,4.1191,4.1191,0.0,0.0,0.0,0.0,0.0,0.0,0.0,0.0,0.0,0.0,0.0,0.0,0.0,0.0,0.0,4.6308,4.6308,4.6308,4.6308,4.6308,4.6308,4.6308,4.6308,4.6308,4.6406,4.6875,4.7734,4.8613,4.9473,5.0332,5.1055,5.1406,5.1406,5.1406,5.1406,5.1406,5.1406,5.1406,5.1406,5.1406,5.1406,5.1406,5.1406,5.1406,5.1406,5.1406,5.1406,5.1406,5.1406,5.1406,5.1406,5.1406,5.1406,5.1406,5.1406,5.1406,5.1365,5.1255,5.1209,5.1163,5.0967,5.0914,5.0898,5.0898,5.0898,5.0898,5.0898,5.0979,5.1521,5.3169,5.3522,5.4085,5.5713,5.6008,5.6008,5.6008,5.6008,5.6008,5.6008,5.6008,5.6008,5.6008,5.6008,5.6008,5.6008,5.6008,5.6008,5.6008,5.6188,5.629,5.629,5.6487,5.6601,5.6601,5.6601,5.6601,5.6601,5.6601,5.6601,5.664,5.8281,5.9101,0.0,0.0,0.0,0.0,0.0,0.0,4.1132,0.0,4.1191,0.0,0.0,0.0,0.0,0.0,0.0,0.0,4.1875,0.0,0.0,0.0,0.0,0.0,0.0,0.0,0.0,0.0,0.0,0.0,4.6308,4.6308,4.6308,4.6308,4.6308,4.6308,4.6308,4.6719,4.7598,4.8457,4.9336,5.0215,5.1016,5.1406,5.1406,5.1406,5.1406,5.1406,5.1406,5.1406,5.1406,5.1406,5.1406,5.1406,5.1406,5.1406,5.1406,5.1406,5.1406,5.1406,5.1406,5.1406,5.1406,5.1406,5.1406,5.1406,5.1406,5.1365,5.1328,5.1234,5.1163,5.11,5.094,5.0898,5.0898,5.0898,5.0898,5.0894,5.0889,5.0901,5.1253,5.2449,5.3078,5.3773,5.4986,5.5618,5.5942,5.5942,5.5942,5.5942,5.5942,5.5942,5.5956,5.6002,5.596,5.5965,5.6003,5.6001,5.5996,5.6008,5.6188,5.6332,5.6413,5.6534,5.6601,5.6601,5.6601,5.6601,5.6601,5.6601,5.6855,5.7383,5.8613,5.9199,4.1097,0.0,0.0,0.0,0.0,0.0,0.0,0.0,0.0,0.0,0.0,0.0,0.0,0.0,0.0,0.0,0.0,4.207,0.0,0.0,0.0,0.0,0.0,0.0,0.0,0.0,0.0,4.6308,4.6308,4.6308,4.6308,4.6308,4.6308,4.6308,4.6308,4.6601,4.7246,4.8105,4.8984,4.9844,5.0683,5.1191,5.1406,5.1406,5.1406,5.1406,5.1406,5.1406,5.1406,5.1406,5.1386,5.1365,5.1365,5.1362,5.1359,5.1386,5.1406,5.1406,5.1406,5.1406,5.1406,5.1406,5.1406,5.1406,5.1406,5.1363,5.1302,5.1211,5.1154,5.1097,5.0936,5.0898,5.0898,5.0905,5.089,5.0909,5.0908,5.0905,5.1137,5.1947,5.2787,5.3632,5.4429,5.5316,5.59,5.59,5.59,5.59,5.59,5.59,5.5914,5.5971,5.5919,5.5929,5.5964,5.5975,5.5998,5.6039,5.619,5.6342,5.6486,5.6552,5.6581,5.6601,5.6601,5.6601,5.6601,5.6601,5.7051,5.793,5.8789,5.9316,0.0,0.0,0.0,4.1107,0.0,0.0,0.0,0.0,4.1191,0.0,0.0,0.0,0.0,0.0,0.0,0.0,0.0,0.0,0.0,0.0,0.0,0.0,0.0,0.0,0.0,0.0,0.0,4.6308,4.6308,4.6308,4.6308,4.6308,4.6308,4.6308,4.6308,4.6308,4.6348,4.7207,4.8086,4.8945,4.9824,5.0644,5.1406,5.1406,5.1406,5.1406,5.1406,5.1406,5.1406,5.1406,5.1362,5.1299,5.1299,5.1269,5.1229,5.134,5.1406,5.1406,5.1406,5.1406,5.1406,5.1406,5.1406,5.1406,5.1406,5.1406,5.1364,5.1244,5.1199,5.1156,5.0942,5.0898,5.089,5.0892,5.0893,5.0909,5.0908,5.0899,5.1131,5.1938,5.2756,5.3562,5.4366,5.5273,5.59,5.59,5.59,5.59,5.59,5.59,5.59,5.59,5.59,5.59,5.59,5.59,5.5968,5.6084,5.6159,5.629,5.6484,5.6508,5.6527,5.6601,5.6601,5.6601,5.6601,5.6601,5.7051,5.793,5.8789,5.9629,0.0,0.0,4.109,4.1108,0.0,0.0,0.0,0.0,0.0,0.0,0.0,0.0,0.0,0.0,0.0,0.0,0.0,0.0,0.0,0.0,0.0,0.0,0.0,0.0,0.0,0.0,0.0,4.6308,4.6308,4.6308,4.6308,4.6308,4.6308,4.6308,4.6308,4.6308,4.6308,4.7168,4.8047,4.8906,4.9785,5.0625,5.1406,5.1406,5.1406,5.1406,5.1406,5.1406,5.1406,5.1406,5.1386,5.1363,5.1363,5.133,5.1275,5.1326,5.1333,5.1337,5.1386,5.1406,5.1406,5.1406,5.1406,5.1386,5.1358,5.1274,5.1185,5.114,5.1074,5.0983,5.0913,5.0901,5.0892,5.0831,5.0831,5.0827,5.0779,5.0797,5.0898,5.1124,5.2324,5.3369,5.3604,5.4821,5.578,5.578,5.578,5.578,5.578,5.578,5.5776,5.5831,5.5782,5.5806,5.589,5.5948,5.5984,5.6029,5.6139,5.6253,5.6367,5.6451,5.6527,5.6601,5.6601,5.6601,5.6601,5.6601,5.7344,5.8769,5.9062,5.9629,4.2029,4.1795,0.0,4.1559,4.1345,0.0,4.1111,0.0,0.0,0.0,0.0,0.0,0.0,0.0,0.0,0.0,0.0,0.0,0.0,4.1191,0.0,0.0,0.0,0.0,0.0,0.0,4.5976,4.6289,4.6308,4.6308,0.0,0.0,4.6308,4.6308,4.6308,4.6308,4.6308,4.6855,4.7734,4.8906,4.9473,5.0312,5.1406,5.1406,5.1406,5.1406,5.1406,5.1406,5.1406,5.1406,5.1386,5.1363,5.1335,5.1288,5.1223,5.1284,5.1297,5.1301,5.1359,5.1385,5.1387,5.1344,5.1322,5.1318,5.1255,5.1174,5.1082,5.1041,5.0967,5.0894,5.0876,5.0859,5.0846,5.0784,5.0784,5.0784,5.071,5.0729,5.0752,5.0707,5.1843,5.2897,5.315,5.4357,5.5381,5.567,5.5708,5.5708,5.5708,5.5708,5.5719,5.5761,5.573,5.5735,5.5821,5.5909,5.5967,5.5967,5.6063,5.6165,5.6251,5.6355,5.6572,5.6953,5.6691,5.6714,5.6987,5.6738,5.75,5.9199,5.9199,5.9805]}]]